LiveATC.Net - Listen to live air traffic control over the Internet!
Airport/ARTCC Code
Frequency Search
(e.g., 124.400, 128.75)
Site-wide search
 


Browse Feeds
Top 50 Feeds
Coverage Map
Bad Weather Areas

LiveATC FAQ
Offer LiveATC feed
Contact LiveATC.net
Press Inquiries

LiveATC on iPhone
LiveATC on Android

Windows Phone
Windows 8/10

LiveATC Mobile
(Mobile browser)

ATC Audio Archives
Interesting Recordings

LiveATC Forums

Home Page
About LiveATC.net
Make a Donation
Terms of Use
Privacy Policy

Canadian Air Freqs

AIRMETs/SIGMETs

FAA Airport Status
Nat'l Airspace Status
Arrival Demand Charts


Server Software By:
Icecast.org
Liquidsoap

Select an area of interest:
U.S. Feeds: Class B Airports | Class C Airports | Class D/Other Airports | ARTCC (Centers)
International Feeds: Canada | Europe | Oceania | Asia | South America | North/Central America | Africa
Misc Feeds: HF Feeds
Search by ICAO/IATA airport code:   (e.g., kbos, kjfk, lax, eham, etc.)


Currently Available Live Feeds: 2713
Status Updated: Sun Jan 24 2021 18:16:38 UTC


NOTICE

Unauthorized use prohibited. See LiveATC.net Terms of Service

U.S. Class D Airport and ARTCCC Feeds

 

KUES Del/Gnd/Twr/02C (Archives)
Brookfield, Wisconsin, United States

Feed Status: UP
Listen in your browser - HTML5 player(in browser, HTML5)
Click here to listen with your own player(launches your MP3 player)

KUES 241745Z 24006KT 10SM OVC011 M02/M05 A3005

KUES Airport Info (Airnav.com)

KUES Flight Activity (Flightaware)

Listeners: 0 out of 1520 total

Capitol CTAF: 122.700
Waukesha Clearance Delivery: 128.700
Waukesha Ground: 121.600
Waukesha Tower: 123.700

14A CTAF (Archives)
Mooresville, North Carolina, United States

Feed Status: UP
Listen in your browser - HTML5 player(in browser, HTML5)
Click here to listen with your own player(launches your MP3 player)


Listeners: 1 out of 1520 total

Lake Norman CTAF: 122.800

17FL CTAF (Archives)
Ocala, Florida, United States

Feed Status: UP
Listen in your browser - HTML5 player(in browser, HTML5)
Click here to listen with your own player(launches your MP3 player)

17FL Airport Info (Airnav.com)

17FL Flight Activity (Flightaware)

Listeners: 0 out of 1520 total

Jumbolair-Greystone 17FL CTAF/UNICOM: 122.700

SNJ Area CTAF 122.8 (Archives)
Cross Keys, New Jersey, United States

Feed Status: UP
Listen in your browser - HTML5 player(in browser, HTML5)
Click here to listen with your own player(launches your MP3 player)

KPNE 241754Z 32014KT 10SM CLR 00/M14 A3021 RMK AO2 SLP232 T00001139 10006 21056 58024

KPNE Airport Info (Airnav.com)

KPNE Flight Activity (Flightaware)

Listeners: 0 out of 1520 total

CTAF: 122.800

MA/NH/RI/CT Area CTAF (Archives)
Hopedale, Massachusetts, United States

Feed Status: UP
Listen in your browser - HTML5 player(in browser, HTML5)
Click here to listen with your own player(launches your MP3 player)

KBOS 241754Z 30020G32KT 10SM FEW250 M02/M18 A2988 RMK AO2 PK WND 29034/1716 SLP117 T10171178 11017 21078 58024 $

KBOS Airport Info (Airnav.com)

KBOS Flight Activity (Flightaware)

Listeners: 1 out of 1520 total

Air-to-Air: 122.750
Bridgeport Flight Service: 122.200
CTAF: 122.700
CTAF: 122.800
CTAF: 122.900
CTAF: 123.000
Emergency/Guard: 121.500

MA/NH/RI/CT Area CTAF (Archives)
Hopedale, Massachusetts, United States

Feed Status: UP
Listen in your browser - HTML5 player(in browser, HTML5)
Click here to listen with your own player(launches your MP3 player)

KBOS 241754Z 30020G32KT 10SM FEW250 M02/M18 A2988 RMK AO2 PK WND 29034/1716 SLP117 T10171178 11017 21078 58024 $

KBOS Airport Info (Airnav.com)

KBOS Flight Activity (Flightaware)

Listeners: 1 out of 1520 total

Air-to-Air: 122.750
Bridgeport Flight Service: 122.200
CTAF: 122.700
CTAF: 122.800
CTAF: 122.900
CTAF: 123.000
Emergency/Guard: 121.500

MA/NH/RI/CT Area CTAF (Archives)
Hopedale, Massachusetts, United States

Feed Status: UP
Listen in your browser - HTML5 player(in browser, HTML5)
Click here to listen with your own player(launches your MP3 player)

KBOS 241754Z 30020G32KT 10SM FEW250 M02/M18 A2988 RMK AO2 PK WND 29034/1716 SLP117 T10171178 11017 21078 58024 $

KBOS Airport Info (Airnav.com)

KBOS Flight Activity (Flightaware)

Listeners: 1 out of 1520 total

Air-to-Air: 122.750
Bridgeport Flight Service: 122.200
CTAF: 122.700
CTAF: 122.800
CTAF: 122.900
CTAF: 123.000
Emergency/Guard: 121.500

1B9 Area Guard (Archives)
Mansfield, Massachusetts, United States

Feed Status: UP
Listen in your browser - HTML5 player(in browser, HTML5)
Click here to listen with your own player(launches your MP3 player)


Listeners: 0 out of 1520 total

Emergency/Guard: 121.500

1B9 CTAF #1 (Archives)
Mansfield, Massachusetts, United States

Feed Status: UP
Listen in your browser - HTML5 player(in browser, HTML5)
Click here to listen with your own player(launches your MP3 player)


Listeners: 0 out of 1520 total

Mansfield CTAF/UNICOM: 123.000

1B9 CTAF #2 (Archives)
Mansfield, Massachusetts, United States

Feed Status: UP
Listen in your browser - HTML5 player(in browser, HTML5)
Click here to listen with your own player(launches your MP3 player)


Listeners: 0 out of 1520 total

Mansfield CTAF/UNICOM: 123.000

1B9 CTAF/RCO (Archives)
Mansfield, Massachusetts, United States

Feed Status: UP
Listen in your browser - HTML5 player(in browser, HTML5)
Click here to listen with your own player(launches your MP3 player)


Listeners: 0 out of 1520 total

Bridgeport FSS (RCO): 122.500
Mansfield CTAF/UNICOM: 123.000

1B9 Del/RCO #1 (Archives)
Mansfield, Massachusetts, United States

Feed Status: UP
Listen in your browser - HTML5 player(in browser, HTML5)
Click here to listen with your own player(launches your MP3 player)


Listeners: 0 out of 1520 total

Mansfield Clearance Delivery (RCO): 122.500

1B9 Del/RCO #2 (Archives)
Mansfield, Massachusetts, United States

Feed Status: UP
Listen in your browser - HTML5 player(in browser, HTML5)
Click here to listen with your own player(launches your MP3 player)


Listeners: 0 out of 1520 total

Mansfield Clearance Delivery (RCO): 122.500

1C9 CTAF (Archives)
Hollister, California, United States

Feed Status: UP
Listen in your browser - HTML5 player(in browser, HTML5)
Click here to listen with your own player(launches your MP3 player)

K1C9 Airport Info (Airnav.com)

K1C9 Flight Activity (Flightaware)

Listeners: 0 out of 1520 total

Frazier CTAF: 123.050

1G3 CTAF
Kent, Ohio, United States

Feed Status: DOWN
Offline since: 2020-08-06 18:53:05 UTC

K1G3 Airport Info (Airnav.com)

Kent CTAF: 122.725

KGBR/20N CTAF
Kingston, New York, United States

Feed Status: DOWN
Offline since: 2020-11-21 13:08:39 UTC

KGBR Airport Info (Airnav.com)

Great Barrington CTAF: 122.800

26MA CTAF (Archives)
Pepperell, Massachusetts, United States

Feed Status: UP
Listen in your browser - HTML5 player(in browser, HTML5)
Click here to listen with your own player(launches your MP3 player)

KMHT 241753Z 30013G24KT 10SM CLR M02/M17 A2988 RMK AO2 PK WND 33035/1722 SLP141 T10221167 11022 21083 56016

KMHT Airport Info (Airnav.com)

KMHT Flight Activity (Flightaware)

Listeners: 0 out of 1520 total

CTAF: 123.050

2B1 CTAF (Archives)
Marstons Mills, Massachusetts, United States

Feed Status: UP
Listen in your browser - HTML5 player(in browser, HTML5)
Click here to listen with your own player(launches your MP3 player)

KHYA 241756Z 28017G25KT 10SM CLR 00/M18 A2983 RMK AO2 PK WND 29030/1726 SLP103 T00001178 10006 21067 56023

KHYA Airport Info (Airnav.com)

KHYA Flight Activity (Flightaware)

Listeners: 0 out of 1520 total

Marstons Mills CTAF: 122.900

MA/NH/RI/CT Area CTAF (Archives)
Newburyport, Massachusetts, United States

Feed Status: UP
Listen in your browser - HTML5 player(in browser, HTML5)
Click here to listen with your own player(launches your MP3 player)

KBOS 241754Z 30020G32KT 10SM FEW250 M02/M18 A2988 RMK AO2 PK WND 29034/1716 SLP117 T10171178 11017 21078 58024 $

KBOS Airport Info (Airnav.com)

KBOS Flight Activity (Flightaware)

Listeners: 1 out of 1520 total

Air-to-Air: 122.750
Bridgeport Flight Service: 122.200
CTAF: 122.700
CTAF: 122.800
CTAF: 122.900
CTAF: 123.000
Emergency/Guard: 121.500

MA/NH/RI/CT Area CTAF (Archives)
Newburyport, Massachusetts, United States

Feed Status: UP
Listen in your browser - HTML5 player(in browser, HTML5)
Click here to listen with your own player(launches your MP3 player)

KBOS 241754Z 30020G32KT 10SM FEW250 M02/M18 A2988 RMK AO2 PK WND 29034/1716 SLP117 T10171178 11017 21078 58024 $

KBOS Airport Info (Airnav.com)

KBOS Flight Activity (Flightaware)

Listeners: 1 out of 1520 total

Air-to-Air: 122.750
Bridgeport Flight Service: 122.200
CTAF: 122.700
CTAF: 122.800
CTAF: 122.900
CTAF: 123.000
Emergency/Guard: 121.500

MA/NH/RI/CT Area CTAF (Archives)
Newburyport, Massachusetts, United States

Feed Status: UP
Listen in your browser - HTML5 player(in browser, HTML5)
Click here to listen with your own player(launches your MP3 player)

KBOS 241754Z 30020G32KT 10SM FEW250 M02/M18 A2988 RMK AO2 PK WND 29034/1716 SLP117 T10171178 11017 21078 58024 $

KBOS Airport Info (Airnav.com)

KBOS Flight Activity (Flightaware)

Listeners: 1 out of 1520 total

Air-to-Air: 122.750
Bridgeport Flight Service: 122.200
CTAF: 122.700
CTAF: 122.800
CTAF: 122.900
CTAF: 123.000
Emergency/Guard: 121.500

2GC CTAF
Fayetteville, North Carolina, United States

Feed Status: DOWN
Offline since: 2021-01-14 20:18:22 UTC

KFAY 241753Z VRB03KT 10SM CLR 08/M11 A3028 RMK AO2 SLP252 T00781106 10078 21022 58022

KFAY Airport Info (Airnav.com)

Grays Creek CTAF: 122.900

2NC0 CTAF (Archives)
Burnsville, North Carolina, United States

Feed Status: UP
Listen in your browser - HTML5 player(in browser, HTML5)
Click here to listen with your own player(launches your MP3 player)


Listeners: 0 out of 1520 total

Mountain Air CTAF: 122.725

2O3 CTAF
Angwin, California, United States

Feed Status: DOWN
Offline since: 2021-01-22 21:05:39 UTC

Angwin CTAF: 123.000

KJWY/2TS6 CTAF/Unicom (Archives)
Midlothian, Texas, United States

Feed Status: UP
Listen in your browser - HTML5 player(in browser, HTML5)
Click here to listen with your own player(launches your MP3 player)

KJWY 241755Z AUTO 07003KT 3/4SM BR OVC001 13/13 A2996 RMK AO2 60001 T01310131 10131 20111

KJWY Airport Info (Airnav.com)

KJWY Flight Activity (Flightaware)

Listeners: 0 out of 1520 total

Mid-Way CTAF/UNICOM: 122.975

39N CTAF (Archives)
Princeton/Rocky Hill, New Jersey, United States

Feed Status: UP
Listen in your browser - HTML5 player(in browser, HTML5)
Click here to listen with your own player(launches your MP3 player)


Listeners: 0 out of 1520 total

Princeton CTAF: 122.725

3CK/KBUU CTAF (Archives)
Chicago/Lake In The Hills, Illinois, United States

Feed Status: UP
Listen in your browser - HTML5 player(in browser, HTML5)
Click here to listen with your own player(launches your MP3 player)

K3CK Airport Info (Airnav.com)

K3CK Flight Activity (Flightaware)

Listeners: 0 out of 1520 total

Lake in the Hills CTAF: 123.050

KLXT/3GV CTAF (Archives)
Grain Valley, Missouri, United States

Feed Status: UP
Listen in your browser - HTML5 player(in browser, HTML5)
Click here to listen with your own player(launches your MP3 player)

KOJC 241753Z 01008KT 2 1/2SM BR OVC004 03/03 A3003 RMK AO2 SLP175 60002 T00330033 10033 20017 50004 $

KOJC Airport Info (Airnav.com)

KOJC Flight Activity (Flightaware)

Listeners: 0 out of 1520 total

Lee's Summit/Grain Valley CTAF: 122.800

3M5 CTAF (Archives)
Huntsville, Alabama, United States

Feed Status: UP
Listen in your browser - HTML5 player(in browser, HTML5)
Click here to listen with your own player(launches your MP3 player)


Listeners: 0 out of 1520 total

Moontown CTAF: 122.700

3N6 CTAF (Archives)
Old Bridge, New Jersey, United States

Feed Status: UP
Listen in your browser - HTML5 player(in browser, HTML5)
Click here to listen with your own player(launches your MP3 player)


Listeners: 0 out of 1520 total

Old Bridge CTAF: 123.075

KBLM/N12/3N6/KMJX (Archives)
Old Bridge, New Jersey, United States

Feed Status: UP
Listen in your browser - HTML5 player(in browser, HTML5)
Click here to listen with your own player(launches your MP3 player)

KBLM 241756Z AUTO 29014G21KT 10SM CLR M01/M13 A3015 RMK AO2 SLP211 T10061133 11006 21056 58028 FZRANO

KBLM Airport Info (Airnav.com)

KBLM Flight Activity (Flightaware)

Listeners: 0 out of 1520 total

3N6 Old Bridge CTAF: 123.075
Emergency/Guard: 121.500
Monmouth Clearance: 120.950
Monmouth Clearance: 126.150
Monmouth CTAF: 123.000
N12 Lakewood CTAF: 122.800
Ocean County KMJX CTAF: 122.700

3R9 CTAF (Archives)
Lakeway, Texas, United States

Feed Status: UP
Listen in your browser - HTML5 player(in browser, HTML5)
Click here to listen with your own player(launches your MP3 player)


Listeners: 0 out of 1520 total

Lakeway CTAF: 123.000

3S8 CTAF
Grants Pass, Oregon, United States

Feed Status: DOWN
Offline since: 2021-01-10 06:33:12 UTC

Grants Pass CTAF: 122.800

44N/KMGJ CTAF (Archives)
Millbrook, New York, United States

Feed Status: UP
Listen in your browser - HTML5 player(in browser, HTML5)
Click here to listen with your own player(launches your MP3 player)


Listeners: 0 out of 1520 total

44N Sky Acres CTAF: 122.800
CTAF 122.700: 122.700
CTAF 122.9: 122.900
KMGJ Orange County Clearance: 123.850
KMGJ Orange County CTAF: 122.725

47N CTAF (Archives)
Manville, New Jersey, United States

Feed Status: UP
Listen in your browser - HTML5 player(in browser, HTML5)
Click here to listen with your own player(launches your MP3 player)


Listeners: 0 out of 1520 total

Central Jersey CTAF: 122.700

NY1/4B0 CTAF
South Bethlehem, New York, United States

Feed Status: DOWN
Offline since: 2020-11-21 13:08:40 UTC

Kline Kill CTAF: 122.900

4NY8 CTAF (Archives)
Elmira, New York, United States

Feed Status: UP
Listen in your browser - HTML5 player(in browser, HTML5)
Click here to listen with your own player(launches your MP3 player)

KELM 241753Z 34008KT 310V010 10SM BKN032 M04/M12 A3021 RMK AO2 SLP245 T10391122 11028 21072 56017

KELM Airport Info (Airnav.com)

KELM Flight Activity (Flightaware)

Listeners: 0 out of 1520 total

Harris Gliderport CTAF: 123.300

4S1 CTAF (Archives)
Gold Beach, Oregon, United States

Feed Status: UP
Listen in your browser - HTML5 player(in browser, HTML5)
Click here to listen with your own player(launches your MP3 player)

K4S1 Airport Info (Airnav.com)

K4S1 Flight Activity (Flightaware)

Listeners: 0 out of 1520 total

Gold Beach CTAF: 122.800

KMTC Area CTAF
Ray, Michigan, United States

Feed Status: DOWN
Offline since: 2020-12-31 22:23:06 UTC

KMTC 201856Z 24010KT 10SM OVC031 M03/M09 A3013 RMK AO2A SLP217 T10341087 $

KMTC Airport Info (Airnav.com)

Air to Air: 123.450
Marine City CTAF (76G): 123.000
Port Huron CTAF: 123.050
Ray CTAF: 122.700
Romeo CTAF: 122.800
St Clair CTAF: 122.800
Troy CTAF: 123.050

5A2 Area Emergency/Guard (Archives)
Warner Robins, Georgia, United States

Feed Status: UP
Listen in your browser - HTML5 player(in browser, HTML5)
Click here to listen with your own player(launches your MP3 player)


Listeners: 0 out of 1520 total

Emergency/Guard: 121.500

5A2/5GE1 CTAF (Archives)
Warner Robins, Georgia, United States

Feed Status: UP
Listen in your browser - HTML5 player(in browser, HTML5)
Click here to listen with your own player(launches your MP3 player)


Listeners: 0 out of 1520 total

Warner Robins/Peachtree Landings CTAF: 122.900

5B6/KCQX/KPVC CTAF (Archives)
Falmouth, Massachusetts, United States

Feed Status: UP
Listen in your browser - HTML5 player(in browser, HTML5)
Click here to listen with your own player(launches your MP3 player)

KHYA 241756Z 28017G25KT 10SM CLR 00/M18 A2983 RMK AO2 PK WND 29030/1726 SLP103 T00001178 10006 21067 56023

KHYA Airport Info (Airnav.com)

KHYA Flight Activity (Flightaware)

Listeners: 0 out of 1520 total

Falmouth/Chatham/Provincetown CTAF: 122.800

5C1 CTAF (Archives)
San Antonio, Texas, United States

Feed Status: UP
Listen in your browser - HTML5 player(in browser, HTML5)
Click here to listen with your own player(launches your MP3 player)

K5C1 241735Z AUTO 16004KT 1/4SM OVC003 16/16 RMK AO1

K5C1 Airport Info (Airnav.com)

K5C1 Flight Activity (Flightaware)

Listeners: 0 out of 1520 total

Boerne Stage CTAF: 123.000

5A2/5GE1 CTAF (Archives)
Fort Valley, Georgia, United States

Feed Status: UP
Listen in your browser - HTML5 player(in browser, HTML5)
Click here to listen with your own player(launches your MP3 player)


Listeners: 0 out of 1520 total

Warner Robins/Peachtree Landings CTAF: 122.900

KMTC Area CTAF
St Clair, Michigan, United States

Feed Status: DOWN
Offline since: 2020-12-31 22:23:06 UTC

KMTC 201856Z 24010KT 10SM OVC031 M03/M09 A3013 RMK AO2A SLP217 T10341087 $

KMTC Airport Info (Airnav.com)

Air to Air: 123.450
Marine City CTAF (76G): 123.000
Port Huron CTAF: 123.050
Ray CTAF: 122.700
Romeo CTAF: 122.800
St Clair CTAF: 122.800
Troy CTAF: 123.050

64FA CTAF
Palm City, Florida, United States

Feed Status: DOWN
Offline since: 2020-11-29 18:32:22 UTC

Naked Lady Ranch CTAF: 122.900

MA/NH CTAF 122.8 (Archives)
Stow, Massachusetts, United States

Feed Status: UP
Listen in your browser - HTML5 player(in browser, HTML5)
Click here to listen with your own player(launches your MP3 player)

KMHT 241753Z 30013G24KT 10SM CLR M02/M17 A2988 RMK AO2 PK WND 33035/1722 SLP141 T10221167 11022 21083 56016

KMHT Airport Info (Airnav.com)

KMHT Flight Activity (Flightaware)

Listeners: 0 out of 1520 total

MA/NH Area CTAF: 122.800

MA/NH/RI/CT Area CTAF (Archives)
Stow, Massachusetts, United States

Feed Status: UP
Listen in your browser - HTML5 player(in browser, HTML5)
Click here to listen with your own player(launches your MP3 player)

KBOS 241754Z 30020G32KT 10SM FEW250 M02/M18 A2988 RMK AO2 PK WND 29034/1716 SLP117 T10171178 11017 21078 58024 $

KBOS Airport Info (Airnav.com)

KBOS Flight Activity (Flightaware)

Listeners: 1 out of 1520 total

Air-to-Air: 122.750
Bridgeport Flight Service: 122.200
CTAF: 122.700
CTAF: 122.800
CTAF: 122.900
CTAF: 123.000
Emergency/Guard: 121.500

MA/NH/RI/CT Area CTAF (Archives)
Stow, Massachusetts, United States

Feed Status: UP
Listen in your browser - HTML5 player(in browser, HTML5)
Click here to listen with your own player(launches your MP3 player)

KBOS 241754Z 30020G32KT 10SM FEW250 M02/M18 A2988 RMK AO2 PK WND 29034/1716 SLP117 T10171178 11017 21078 58024 $

KBOS Airport Info (Airnav.com)

KBOS Flight Activity (Flightaware)

Listeners: 1 out of 1520 total

Air-to-Air: 122.750
Bridgeport Flight Service: 122.200
CTAF: 122.700
CTAF: 122.800
CTAF: 122.900
CTAF: 123.000
Emergency/Guard: 121.500

MA/NH/RI/CT Area CTAF (Archives)
Stow, Massachusetts, United States

Feed Status: UP
Listen in your browser - HTML5 player(in browser, HTML5)
Click here to listen with your own player(launches your MP3 player)

KBOS 241754Z 30020G32KT 10SM FEW250 M02/M18 A2988 RMK AO2 PK WND 29034/1716 SLP117 T10171178 11017 21078 58024 $

KBOS Airport Info (Airnav.com)

KBOS Flight Activity (Flightaware)

Listeners: 1 out of 1520 total

Air-to-Air: 122.750
Bridgeport Flight Service: 122.200
CTAF: 122.700
CTAF: 122.800
CTAF: 122.900
CTAF: 123.000
Emergency/Guard: 121.500

6K5 CTAF (Archives)
Sisters, Oregon, United States

Feed Status: UP
Listen in your browser - HTML5 player(in browser, HTML5)
Click here to listen with your own player(launches your MP3 player)

K6K5 Airport Info (Airnav.com)

K6K5 Flight Activity (Flightaware)

Listeners: 0 out of 1520 total

Sisters CTAF: 122.900

6N5 CTAF (Archives)
New York, New York, United States

Feed Status: UP
Listen in your browser - HTML5 player(in browser, HTML5)
Click here to listen with your own player(launches your MP3 player)

KJRA Airport Info (Airnav.com)

KJRA Flight Activity (Flightaware)

Listeners: 0 out of 1520 total

East 34th Street Heliport CTAF: 123.075

6N7 CTAF (Archives)
New York, New York, United States

Feed Status: UP
Listen in your browser - HTML5 player(in browser, HTML5)
Click here to listen with your own player(launches your MP3 player)

KJRA Airport Info (Airnav.com)

KJRA Flight Activity (Flightaware)

Listeners: 0 out of 1520 total

Skyports Inc Seaplane Base : 122.900

KMTC Area CTAF
Marine City, Michigan, United States

Feed Status: DOWN
Offline since: 2020-12-31 22:23:06 UTC

KMTC 201856Z 24010KT 10SM OVC031 M03/M09 A3013 RMK AO2A SLP217 T10341087 $

KMTC Airport Info (Airnav.com)

Air to Air: 123.450
Marine City CTAF (76G): 123.000
Port Huron CTAF: 123.050
Ray CTAF: 122.700
Romeo CTAF: 122.800
St Clair CTAF: 122.800
Troy CTAF: 123.050

77S CTAF (Archives)
Creswell, Oregon, United States

Feed Status: UP
Listen in your browser - HTML5 player(in browser, HTML5)
Click here to listen with your own player(launches your MP3 player)


Listeners: 0 out of 1520 total

Creswell CTAF: 122.700

7B2 CTAF (Archives)
Northampton, Massachusetts, United States

Feed Status: UP
Listen in your browser - HTML5 player(in browser, HTML5)
Click here to listen with your own player(launches your MP3 player)


Listeners: 0 out of 1520 total

Northampton CTAF: 122.700

MA/NH CTAF 122.8 (Archives)
Hampton, New Hampshire, United States

Feed Status: UP
Listen in your browser - HTML5 player(in browser, HTML5)
Click here to listen with your own player(launches your MP3 player)

KMHT 241753Z 30013G24KT 10SM CLR M02/M17 A2988 RMK AO2 PK WND 33035/1722 SLP141 T10221167 11022 21083 56016

KMHT Airport Info (Airnav.com)

KMHT Flight Activity (Flightaware)

Listeners: 0 out of 1520 total

MA/NH Area CTAF: 122.800

7FL6 CTAF (Archives)
Daytona Beach, Florida, United States

Feed Status: UP
Listen in your browser - HTML5 player(in browser, HTML5)
Click here to listen with your own player(launches your MP3 player)


Listeners: 0 out of 1520 total

Spruce Creek CTAF/UNICOM: 122.725

7S5 CTAF (Archives)
Independence, Oregon, United States

Feed Status: UP
Listen in your browser - HTML5 player(in browser, HTML5)
Click here to listen with your own player(launches your MP3 player)


Listeners: 0 out of 1520 total

Independence CTAF/UNICOM: 122.975

KMTC Area CTAF
Romeo, Michigan, United States

Feed Status: DOWN
Offline since: 2020-12-31 22:23:06 UTC

KMTC 201856Z 24010KT 10SM OVC031 M03/M09 A3013 RMK AO2A SLP217 T10341087 $

KMTC Airport Info (Airnav.com)

Air to Air: 123.450
Marine City CTAF (76G): 123.000
Port Huron CTAF: 123.050
Ray CTAF: 122.700
Romeo CTAF: 122.800
St Clair CTAF: 122.800
Troy CTAF: 123.050

F45 CTAF/Dep (Archives)
West Palm Beach, Florida, United States

Feed Status: UP
Listen in your browser - HTML5 player(in browser, HTML5)
Click here to listen with your own player(launches your MP3 player)

KPBI Airport Info (Airnav.com)

KPBI Flight Activity (Flightaware)

Listeners: 0 out of 1520 total

North County CTAF: 123.075
Palm Beach Departure (North): 128.300

KGIF/F57 CTAF (Archives)
Winter Haven, Florida, United States

Feed Status: UP
Listen in your browser - HTML5 player(in browser, HTML5)
Click here to listen with your own player(launches your MP3 player)

KGIF 241753Z AUTO 25004KT 10SM FEW047 24/16 A3013 RMK AO2 SLP201 T02440156 10250 20144 58018

KGIF Airport Info (Airnav.com)

KGIF Flight Activity (Flightaware)

Listeners: 0 out of 1520 total

Winter Haven CTAF: 123.050

F70 CTAF (Archives)
Murrieta/Temecula, California, United States

Feed Status: UP
Listen in your browser - HTML5 player(in browser, HTML5)
Click here to listen with your own player(launches your MP3 player)

KF70 241755Z AUTO 00000KT 10SM SCT024 08/04 A2994 RMK AO1

KF70 Airport Info (Airnav.com)

KF70 Flight Activity (Flightaware)

Listeners: 0 out of 1520 total

French Valley CTAF: 122.800

FA40 CTAF (Archives)
New Port Richey, Florida, United States

Feed Status: UP
Listen in your browser - HTML5 player(in browser, HTML5)
Click here to listen with your own player(launches your MP3 player)


Listeners: 2 out of 1520 total

Hidden Lake CTAF: 123.000

I35 CTAF/ZID (Archives)
Harlan, Kentucky, United States

Feed Status: UP
Listen in your browser - HTML5 player(in browser, HTML5)
Click here to listen with your own player(launches your MP3 player)

KI35 241755Z AUTO 00000KT 10SM OVC048 06/M07 A3013 RMK AO2 T00601074 10061 21028

KI35 Airport Info (Airnav.com)

KI35 Flight Activity (Flightaware)

Listeners: 0 out of 1520 total

Harlan CTAF: 122.800
Indy Center (Sector 21 London Low): 121.325
Indy Center (Sector 21 London Low): 124.625
Indy Center (Sector 25 AZQ Low): 126.575

I40 AWOS (Archives)
Coshocton, Ohio, United States

Feed Status: UP
Listen in your browser - HTML5 player(in browser, HTML5)
Click here to listen with your own player(launches your MP3 player)


Listeners: 0 out of 1520 total

Coshocton AWOS: 118.875

I40 CTAF (Archives)
Coshocton, Ohio, United States

Feed Status: UP
Listen in your browser - HTML5 player(in browser, HTML5)
Click here to listen with your own player(launches your MP3 player)


Listeners: 0 out of 1520 total

Coshocton CTAF: 123.000

K1H0 CTAF/Unicom (Archives)
St. Louis, Missouri, United States

Feed Status: UP
Listen in your browser - HTML5 player(in browser, HTML5)
Click here to listen with your own player(launches your MP3 player)

K1H0 Airport Info (Airnav.com)

K1H0 Flight Activity (Flightaware)

Listeners: 0 out of 1520 total

Creve Coeur CTAF: 122.800

KIXD Ground/Tower/K34 (Archives)
Gardner, Kansas, United States

Feed Status: UP
Listen in your browser - HTML5 player(in browser, HTML5)
Click here to listen with your own player(launches your MP3 player)

KIXD 241753Z 36008KT 4SM BR OVC004 03/02 A3004 RMK AO2 SLP177 60003 T00330017 10033 20022 50008

KIXD Airport Info (Airnav.com)

KIXD Flight Activity (Flightaware)

Listeners: 0 out of 1520 total

K34 CTAF: 122.800
New Century Ground: 124.300
New Century Tower: 133.000

KAAO CTAF/KBEC Twr (Archives)
Wichita, Kansas, United States

Feed Status: UP
Listen in your browser - HTML5 player(in browser, HTML5)
Click here to listen with your own player(launches your MP3 player)

KAAO 241754Z AUTO 01009KT 5SM BR OVC004 01/M01 A3005 RMK AO2 SLP184 T00111006 10044 20006 51013

KAAO Airport Info (Airnav.com)

KAAO Flight Activity (Flightaware)

Listeners: 0 out of 1520 total

Beech Tower: 126.800
Jabara CTAF: 122.700

KACK App/Dep (Archives)
Nantucket, Massachusetts, United States

Feed Status: UP
Listen in your browser - HTML5 player(in browser, HTML5)
Click here to listen with your own player(launches your MP3 player)

KACK 241753Z 29023G31KT 10SM CLR M01/M14 A2987 RMK AO2 PK WND 30032/1737 SLP115 T10111139 11011 21061 58025

KACK Airport Info (Airnav.com)

KACK Flight Activity (Flightaware)

Listeners: 0 out of 1520 total

Cape Approach (Nantucket Sector): 126.100

KACK ATIS (Archives)
Nantucket, Massachusetts, United States

Feed Status: UP
Listen in your browser - HTML5 player(in browser, HTML5)
Click here to listen with your own player(launches your MP3 player)

KACK 241753Z 29023G31KT 10SM CLR M01/M14 A2987 RMK AO2 PK WND 30032/1737 SLP115 T10111139 11011 21061 58025

KACK Airport Info (Airnav.com)

KACK Flight Activity (Flightaware)

Listeners: 0 out of 1520 total

Nantucket ATIS: 127.500

KACK Ground (Archives)
Nantucket, Massachusetts, United States

Feed Status: UP
Listen in your browser - HTML5 player(in browser, HTML5)
Click here to listen with your own player(launches your MP3 player)

KACK 241753Z 29023G31KT 10SM CLR M01/M14 A2987 RMK AO2 PK WND 30032/1737 SLP115 T10111139 11011 21061 58025

KACK Airport Info (Airnav.com)

KACK Flight Activity (Flightaware)

Listeners: 0 out of 1520 total

Nantucket Clearance Delivery: 119.375
Nantucket Ground: 132.500

KACK Tower (Archives)
Nantucket, Massachusetts, United States

Feed Status: UP
Listen in your browser - HTML5 player(in browser, HTML5)
Click here to listen with your own player(launches your MP3 player)

KACK 241753Z 29023G31KT 10SM CLR M01/M14 A2987 RMK AO2 PK WND 30032/1737 SLP115 T10111139 11011 21061 58025

KACK Airport Info (Airnav.com)

KACK Flight Activity (Flightaware)

Listeners: 0 out of 1520 total

Nantucket Tower: 118.300

KADS ATIS (Archives)
Dallas, Texas, United States

Feed Status: UP
Listen in your browser - HTML5 player(in browser, HTML5)
Click here to listen with your own player(launches your MP3 player)

KADS 241747Z 10007KT 3SM BR OVC003 15/14 A2996

KADS Airport Info (Airnav.com)

KADS Flight Activity (Flightaware)

Listeners: 0 out of 1520 total

Addison ATIS: 133.400
Addison ATIS/AWOS: 133.400

KADS Ground (Archives)
Dallas, Texas, United States

Feed Status: UP
Listen in your browser - HTML5 player(in browser, HTML5)
Click here to listen with your own player(launches your MP3 player)

KADS 241747Z 10007KT 3SM BR OVC003 15/14 A2996

KADS Airport Info (Airnav.com)

KADS Flight Activity (Flightaware)

Listeners: 0 out of 1520 total

Addison Ground: 121.600

KADS Tower (Archives)
Dallas, Texas, United States

Feed Status: UP
Listen in your browser - HTML5 player(in browser, HTML5)
Click here to listen with your own player(launches your MP3 player)

KADS 241747Z 10007KT 3SM BR OVC003 15/14 A2996

KADS Airport Info (Airnav.com)

KADS Flight Activity (Flightaware)

Listeners: 3 out of 1520 total

Addison Tower: 126.000

KDAA/KADW Tower (Archives)
Camp Springs, Maryland, United States

Feed Status: UP
Listen in your browser - HTML5 player(in browser, HTML5)
Click here to listen with your own player(launches your MP3 player)

KDAA 201856Z AUTO 31020G28KT 10SM CLR 06/M07 A3006 RMK AO2 PK WND 29030/1759 SLP183 T00641069 $

KDAA Airport Info (Airnav.com)

KDAA Flight Activity (Flightaware)

Listeners: 0 out of 1520 total

Andrews Tower: 118.400
Andrews Tower: 349.000
Davison Tower: 241.000
Davison Tower: 126.300
Davison Tower: 229.400

KAEG Twr/App (Archives)
Albuquerque, New Mexico, United States

Feed Status: UP
Listen in your browser - HTML5 player(in browser, HTML5)
Click here to listen with your own player(launches your MP3 player)

KABQ 241752Z 20003KT 10SM FEW050 BKN130 07/M05 A2982 RMK AO2 SLP079 T00721050 10072 20022 58009

KABQ Airport Info (Airnav.com)

KABQ Flight Activity (Flightaware)

Listeners: 0 out of 1520 total

Double Eagle II Ground: 121.625
Double Eagle II Tower: 120.150
Double Eagle II Tower Clearance: 124.800

MA/NH CTAF 122.8 (Archives)
Jaffrey, New Hampshire, United States

Feed Status: UP
Listen in your browser - HTML5 player(in browser, HTML5)
Click here to listen with your own player(launches your MP3 player)

KMHT 241753Z 30013G24KT 10SM CLR M02/M17 A2988 RMK AO2 PK WND 33035/1722 SLP141 T10221167 11022 21083 56016

KMHT Airport Info (Airnav.com)

KMHT Flight Activity (Flightaware)

Listeners: 0 out of 1520 total

MA/NH Area CTAF: 122.800

KAFW Regional App (North) (Archives)
Fort Worth, Texas, United States

Feed Status: UP
Listen in your browser - HTML5 player(in browser, HTML5)
Click here to listen with your own player(launches your MP3 player)

KAFW 241753Z 00000KT 1 1/4SM R16L/5500VP6000FT -DZ BR OVC002 13/12 A2995 RMK AO2 SLP141 P0000 60001 T01330122 10133 20117 58003

KAFW Airport Info (Airnav.com)

KAFW Flight Activity (Flightaware)

Listeners: 0 out of 1520 total

Regional Approach (North): 118.100

KAFW Tower/Heli (Archives)
Fort Worth, Texas, United States

Feed Status: UP
Listen in your browser - HTML5 player(in browser, HTML5)
Click here to listen with your own player(launches your MP3 player)

KAFW 241753Z 00000KT 1 1/4SM R16L/5500VP6000FT -DZ BR OVC002 13/12 A2995 RMK AO2 SLP141 P0000 60001 T01330122 10133 20117 58003

KAFW Airport Info (Airnav.com)

KAFW Flight Activity (Flightaware)

Listeners: 0 out of 1520 total

Alliance Tower: 135.150
Alliance Tower (Helicopters): 120.850

KAFW Tower/Heli/App (Archives)
Fort Worth, Texas, United States

Feed Status: UP
Listen in your browser - HTML5 player(in browser, HTML5)
Click here to listen with your own player(launches your MP3 player)

KAFW 241753Z 00000KT 1 1/4SM R16L/5500VP6000FT -DZ BR OVC002 13/12 A2995 RMK AO2 SLP141 P0000 60001 T01330122 10133 20117 58003

KAFW Airport Info (Airnav.com)

KAFW Flight Activity (Flightaware)

Listeners: 0 out of 1520 total

Alliance Tower: 135.150
Alliance Tower (Helicopters): 120.850
Regional Approach (North): 118.100

KAHN Tower (Archives)
Athens, Georgia, United States

Feed Status: UP
Listen in your browser - HTML5 player(in browser, HTML5)
Click here to listen with your own player(launches your MP3 player)

KAHN 241751Z VRB04KT 10SM BKN035 13/M04 A3020 RMK AO2 SLP229 T01281044 10128 20022 58023

KAHN Airport Info (Airnav.com)

KAHN Flight Activity (Flightaware)

Listeners: 1 out of 1520 total

Athens Tower: 126.300

KAMW CTAF (Archives)
Ames, Iowa, United States

Feed Status: UP
Listen in your browser - HTML5 player(in browser, HTML5)
Click here to listen with your own player(launches your MP3 player)

KAMW 241753Z AUTO 01009KT 10SM BKN014 M02/M07 A3009 RMK AO2 SLP199 T10221067 11022 21033 50011

KAMW Airport Info (Airnav.com)

KAMW Flight Activity (Flightaware)

Listeners: 0 out of 1520 total

Ames CTAF: 122.700

KANE Twr/CTAF (Archives)
Minneapolis, Minnesota, United States

Feed Status: UP
Listen in your browser - HTML5 player(in browser, HTML5)
Click here to listen with your own player(launches your MP3 player)

KANE 241645Z 34005KT 10SM SCT011 M06/M09 A3013

KANE Airport Info (Airnav.com)

KANE Flight Activity (Flightaware)

Listeners: 0 out of 1520 total

Anoka Tower/CTAF: 132.400

KAPA App/Dep (Archives)
Denver, Colorado, United States

Feed Status: UP
Listen in your browser - HTML5 player(in browser, HTML5)
Click here to listen with your own player(launches your MP3 player)

KAPA 241753Z 00000KT 10SM FEW060 FEW160 M01/M07 A2979 RMK AO2 SLP123 T10061072 11006 21089 58013

KAPA Airport Info (Airnav.com)

KAPA Flight Activity (Flightaware)

Listeners: 0 out of 1520 total

Denver Approach/Departure: 132.750

KAPA Del/Gnd (Archives)
Denver, Colorado, United States

Feed Status: UP
Listen in your browser - HTML5 player(in browser, HTML5)
Click here to listen with your own player(launches your MP3 player)

KAPA 241753Z 00000KT 10SM FEW060 FEW160 M01/M07 A2979 RMK AO2 SLP123 T10061072 11006 21089 58013

KAPA Airport Info (Airnav.com)

KAPA Flight Activity (Flightaware)

Listeners: 0 out of 1520 total

Centennial Clearance Delivery: 128.600
Centennial Ground: 121.800

KAPA Tower (Primary) (Archives)
Denver, Colorado, United States

Feed Status: UP
Listen in your browser - HTML5 player(in browser, HTML5)
Click here to listen with your own player(launches your MP3 player)

KAPA 241753Z 00000KT 10SM FEW060 FEW160 M01/M07 A2979 RMK AO2 SLP123 T10061072 11006 21089 58013

KAPA Airport Info (Airnav.com)

KAPA Flight Activity (Flightaware)

Listeners: 1 out of 1520 total

Centennial Tower: 118.900

KAPA Tower (Secondary #1) (Archives)
Denver, Colorado, United States

Feed Status: UP
Listen in your browser - HTML5 player(in browser, HTML5)
Click here to listen with your own player(launches your MP3 player)

KAPA 241753Z 00000KT 10SM FEW060 FEW160 M01/M07 A2979 RMK AO2 SLP123 T10061072 11006 21089 58013

KAPA Airport Info (Airnav.com)

KAPA Flight Activity (Flightaware)

Listeners: 1 out of 1520 total

Centennial Tower (Rwy 17R/35L or Rwy 28): 123.700

KAPA Tower (Secondary #2) (Archives)
Denver, Colorado, United States

Feed Status: UP
Listen in your browser - HTML5 player(in browser, HTML5)
Click here to listen with your own player(launches your MP3 player)

KAPA 241753Z 00000KT 10SM FEW060 FEW160 M01/M07 A2979 RMK AO2 SLP123 T10061072 11006 21089 58013

KAPA Airport Info (Airnav.com)

KAPA Flight Activity (Flightaware)

Listeners: 0 out of 1520 total

Centennial Tower (Rwy 17R/35L or Rwy 28): 124.600

KAPC Del/Gnd (Archives)
Napa, California, United States

Feed Status: UP
Listen in your browser - HTML5 player(in browser, HTML5)
Click here to listen with your own player(launches your MP3 player)

KAPC 241754Z 00000KT 10SM OVC021 07/05 A2992 RMK AO2 SLP122 T00670050 10067 21006 58003

KAPC Airport Info (Airnav.com)

KAPC Flight Activity (Flightaware)

Listeners: 0 out of 1520 total

Napa Clearance Delivery: 127.850
Napa Ground: 121.700

KAPC Tower (Archives)
Napa, California, United States

Feed Status: UP
Listen in your browser - HTML5 player(in browser, HTML5)
Click here to listen with your own player(launches your MP3 player)

KAPC 241754Z 00000KT 10SM OVC021 07/05 A2992 RMK AO2 SLP122 T00670050 10067 21006 58003

KAPC Airport Info (Airnav.com)

KAPC Flight Activity (Flightaware)

Listeners: 0 out of 1520 total

Napa Tower: 118.700

KAPF ATIS (Archives)
Naples, Florida, United States

Feed Status: UP
Listen in your browser - HTML5 player(in browser, HTML5)
Click here to listen with your own player(launches your MP3 player)

KAPF 241753Z 10004KT 10SM BKN031 26/17 A3010 RMK AO2 SLP190 T02610172 10261 20172 58018 $

KAPF Airport Info (Airnav.com)

KAPF Flight Activity (Flightaware)

Listeners: 1 out of 1520 total

Naples ATIS: 134.225

KAPF Del/Gnd (Archives)
Naples, Florida, United States

Feed Status: UP
Listen in your browser - HTML5 player(in browser, HTML5)
Click here to listen with your own player(launches your MP3 player)

KAPF 241753Z 10004KT 10SM BKN031 26/17 A3010 RMK AO2 SLP190 T02610172 10261 20172 58018 $

KAPF Airport Info (Airnav.com)

KAPF Flight Activity (Flightaware)

Listeners: 1 out of 1520 total

Naples Clearance Delivery: 118.000
Naples Ground: 121.600

KAPF Del/Gnd/Twr (Archives)
Naples, Florida, United States

Feed Status: UP
Listen in your browser - HTML5 player(in browser, HTML5)
Click here to listen with your own player(launches your MP3 player)

KAPF 241753Z 10004KT 10SM BKN031 26/17 A3010 RMK AO2 SLP190 T02610172 10261 20172 58018 $

KAPF Airport Info (Airnav.com)

KAPF Flight Activity (Flightaware)

Listeners: 0 out of 1520 total

Naples Clearance Delivery: 118.000
Naples Ground: 121.600
Naples Tower: 128.500

KAPF Ft Myers App/Dep (Archives)
Naples, Florida, United States

Feed Status: UP
Listen in your browser - HTML5 player(in browser, HTML5)
Click here to listen with your own player(launches your MP3 player)

KAPF 241753Z 10004KT 10SM BKN031 26/17 A3010 RMK AO2 SLP190 T02610172 10261 20172 58018 $

KAPF Airport Info (Airnav.com)

KAPF Flight Activity (Flightaware)

Listeners: 0 out of 1520 total

Fort Myers Approach/Departure: 124.125
Fort Myers Approach/Departure: 126.800

KAPF Tower (Archives)
Naples, Florida, United States

Feed Status: UP
Listen in your browser - HTML5 player(in browser, HTML5)
Click here to listen with your own player(launches your MP3 player)

KAPF 241753Z 10004KT 10SM BKN031 26/17 A3010 RMK AO2 SLP190 T02610172 10261 20172 58018 $

KAPF Airport Info (Airnav.com)

KAPF Flight Activity (Flightaware)

Listeners: 2 out of 1520 total

Naples Tower: 128.500

KAPN App/Dep/ZMP (Archives)
Alpena, Michigan, United States

Feed Status: UP
Listen in your browser - HTML5 player(in browser, HTML5)
Click here to listen with your own player(launches your MP3 player)

KAPN 241754Z AUTO 19009KT 7SM BKN048 OVC055 M03/M07 A3012 RMK AO2 SLP215 T10281072 11022 21072 58024 $

KAPN Airport Info (Airnav.com)

KAPN Flight Activity (Flightaware)

Listeners: 1 out of 1520 total

Alpena Approach/Departure: 128.425
Minneapolis Center (Sector 01 Low): 125.475

KAPN Tower (Archives)
Alpena, Michigan, United States

Feed Status: UP
Listen in your browser - HTML5 player(in browser, HTML5)
Click here to listen with your own player(launches your MP3 player)

KAPN 241754Z AUTO 19009KT 7SM BKN048 OVC055 M03/M07 A3012 RMK AO2 SLP215 T10281072 11022 21072 58024 $

KAPN Airport Info (Airnav.com)

KAPN Flight Activity (Flightaware)

Listeners: 0 out of 1520 total

Alpena Tower: 121.350

KARB ATIS (Archives)
Ann Arbor, Michigan, United States

Feed Status: UP
Listen in your browser - HTML5 player(in browser, HTML5)
Click here to listen with your own player(launches your MP3 player)

KARB 241753Z 13005KT 1 1/2SM -SN BR BKN032 OVC040 M04/M06 A3015 RMK AO2 SNB38 SLP222 P0000 60000 T10391061 11039 21056 58021 $

KARB Airport Info (Airnav.com)

KARB Flight Activity (Flightaware)

Listeners: 0 out of 1520 total

Ann Arbor ATIS: 134.550

KARB Gnd/Twr (Archives)
Ann Arbor, Michigan, United States

Feed Status: UP
Listen in your browser - HTML5 player(in browser, HTML5)
Click here to listen with your own player(launches your MP3 player)

KARB 241753Z 13005KT 1 1/2SM -SN BR BKN032 OVC040 M04/M06 A3015 RMK AO2 SNB38 SLP222 P0000 60000 T10391061 11039 21056 58021 $

KARB Airport Info (Airnav.com)

KARB Flight Activity (Flightaware)

Listeners: 1 out of 1520 total

Ann Arbor Ground: 121.600
Ann Arbor Tower: 120.300

KARB Ground (Archives)
Ann Arbor, Michigan, United States

Feed Status: UP
Listen in your browser - HTML5 player(in browser, HTML5)
Click here to listen with your own player(launches your MP3 player)

KARB 241753Z 13005KT 1 1/2SM -SN BR BKN032 OVC040 M04/M06 A3015 RMK AO2 SNB38 SLP222 P0000 60000 T10391061 11039 21056 58021 $

KARB Airport Info (Airnav.com)

KARB Flight Activity (Flightaware)

Listeners: 0 out of 1520 total

Ann Arbor Ground: 121.600

KARB Tower (Archives)
Ann Arbor, Michigan, United States

Feed Status: UP
Listen in your browser - HTML5 player(in browser, HTML5)
Click here to listen with your own player(launches your MP3 player)

KARB 241753Z 13005KT 1 1/2SM -SN BR BKN032 OVC040 M04/M06 A3015 RMK AO2 SNB38 SLP222 P0000 60000 T10391061 11039 21056 58021 $

KARB Airport Info (Airnav.com)

KARB Flight Activity (Flightaware)

Listeners: 0 out of 1520 total

Ann Arbor Tower: 120.300

KARR Tower (Archives)
Chicago/Aurora, Illinois, United States

Feed Status: UP
Listen in your browser - HTML5 player(in browser, HTML5)
Click here to listen with your own player(launches your MP3 player)

KARR 241752Z 16004KT 10SM FEW030 OVC060 M01/M03 A3004 RMK AO2 SLP182 60000 I6003 T10061033 11006 21033 58009

KARR Airport Info (Airnav.com)

KARR Flight Activity (Flightaware)

Listeners: 0 out of 1520 total

Aurora Tower: 120.600

KASE ATIS (Archives)
Aspen, Colorado, United States

Feed Status: UP
Listen in your browser - HTML5 player(in browser, HTML5)
Click here to listen with your own player(launches your MP3 player)

KASE 241753Z 35006KT 6SM HZ BKN014 BKN025 OVC043 M06/M12 A2975 RMK AO2 SLP095 T10561122 11050 21139 56008

KASE Airport Info (Airnav.com)

KASE Flight Activity (Flightaware)

Listeners: 0 out of 1520 total

Aspen ATIS: 120.400

KASE Gnd/Twr/App/Center (Archives)
Aspen, Colorado, United States

Feed Status: UP
Listen in your browser - HTML5 player(in browser, HTML5)
Click here to listen with your own player(launches your MP3 player)

KASE 241753Z 35006KT 6SM HZ BKN014 BKN025 OVC043 M06/M12 A2975 RMK AO2 SLP095 T10561122 11050 21139 56008

KASE Airport Info (Airnav.com)

KASE Flight Activity (Flightaware)

Listeners: 0 out of 1520 total

Aspen Approach/Departure: 123.800
Aspen Ground: 121.900
Aspen Tower/CTAF: 118.850
Denver Center (Sector 26 POWDR Low): 119.850

KASE Ground/Tower (Archives)
Aspen, Colorado, United States

Feed Status: UP
Listen in your browser - HTML5 player(in browser, HTML5)
Click here to listen with your own player(launches your MP3 player)

KASE 241753Z 35006KT 6SM HZ BKN014 BKN025 OVC043 M06/M12 A2975 RMK AO2 SLP095 T10561122 11050 21139 56008

KASE Airport Info (Airnav.com)

KASE Flight Activity (Flightaware)

Listeners: 0 out of 1520 total

Aspen Ground: 121.900
Aspen Tower/CTAF: 118.850

KASE Tower (Archives)
Aspen, Colorado, United States

Feed Status: UP
Listen in your browser - HTML5 player(in browser, HTML5)
Click here to listen with your own player(launches your MP3 player)

KASE 241753Z 35006KT 6SM HZ BKN014 BKN025 OVC043 M06/M12 A2975 RMK AO2 SLP095 T10561122 11050 21139 56008

KASE Airport Info (Airnav.com)

KASE Flight Activity (Flightaware)

Listeners: 0 out of 1520 total

Aspen Tower/CTAF: 118.850

KASG App/Dep (Archives)
Springdale, Arkansas, United States

Feed Status: UP
Listen in your browser - HTML5 player(in browser, HTML5)
Click here to listen with your own player(launches your MP3 player)

KASG 241748Z 25004KT 4SM BR OVC005 10/10 A3001

KASG Airport Info (Airnav.com)

KASG Flight Activity (Flightaware)

Listeners: 0 out of 1520 total

Razorback Approach/Departure: 126.600

KASG Gnd/Twr (Archives)
Springdale, Arkansas, United States

Feed Status: UP
Listen in your browser - HTML5 player(in browser, HTML5)
Click here to listen with your own player(launches your MP3 player)

KASG 241748Z 25004KT 4SM BR OVC005 10/10 A3001

KASG Airport Info (Airnav.com)

KASG Flight Activity (Flightaware)

Listeners: 0 out of 1520 total

Springdale Ground: 121.600
Springdale Tower: 118.200

KASG Gnd/Twr/App (Archives)
Springdale, Arkansas, United States

Feed Status: UP
Listen in your browser - HTML5 player(in browser, HTML5)
Click here to listen with your own player(launches your MP3 player)

KASG 241748Z 25004KT 4SM BR OVC005 10/10 A3001

KASG Airport Info (Airnav.com)

KASG Flight Activity (Flightaware)

Listeners: 0 out of 1520 total

Razorback Approach/Departure: 126.600
Springdale Ground: 121.600
Springdale Tower: 118.200

KASH ATIS #1 (Archives)
Nashua, New Hampshire, United States

Feed Status: UP
Listen in your browser - HTML5 player(in browser, HTML5)
Click here to listen with your own player(launches your MP3 player)

KASH 241756Z 29014G21KT 10SM CLR M02/M16 A2991 RMK AO2 SLP138 T10221156 11017 21089 56015

KASH Airport Info (Airnav.com)

KASH Flight Activity (Flightaware)

Listeners: 0 out of 1520 total

Nashua ATIS: 125.100

KASH ATIS #2 (Archives)
Nashua, New Hampshire, United States

Feed Status: UP
Listen in your browser - HTML5 player(in browser, HTML5)
Click here to listen with your own player(launches your MP3 player)

KASH 241756Z 29014G21KT 10SM CLR M02/M16 A2991 RMK AO2 SLP138 T10221156 11017 21089 56015

KASH Airport Info (Airnav.com)

KASH Flight Activity (Flightaware)

Listeners: 0 out of 1520 total

Nashua ATIS: 125.100

KASH Gnd/Twr/FBO #1 (Archives)
Nashua, New Hampshire, United States

Feed Status: UP
Listen in your browser - HTML5 player(in browser, HTML5)
Click here to listen with your own player(launches your MP3 player)

KASH 241756Z 29014G21KT 10SM CLR M02/M16 A2991 RMK AO2 SLP138 T10221156 11017 21089 56015

KASH Airport Info (Airnav.com)

KASH Flight Activity (Flightaware)

Listeners: 0 out of 1520 total

Infinity Aviation: 129.750
Nashua Ground: 121.800
Nashua Tower: 133.200

KASH Gnd/Twr/FBO #2 (Archives)
Nashua, New Hampshire, United States

Feed Status: UP
Listen in your browser - HTML5 player(in browser, HTML5)
Click here to listen with your own player(launches your MP3 player)

KASH 241756Z 29014G21KT 10SM CLR M02/M16 A2991 RMK AO2 SLP138 T10221156 11017 21089 56015

KASH Airport Info (Airnav.com)

KASH Flight Activity (Flightaware)

Listeners: 0 out of 1520 total

Nashua Ground: 121.800
Nashua Tower: 133.200

KASH Ground/FBO (Archives)
Nashua, New Hampshire, United States

Feed Status: UP
Listen in your browser - HTML5 player(in browser, HTML5)
Click here to listen with your own player(launches your MP3 player)

KASH 241756Z 29014G21KT 10SM CLR M02/M16 A2991 RMK AO2 SLP138 T10221156 11017 21089 56015

KASH Airport Info (Airnav.com)

KASH Flight Activity (Flightaware)

Listeners: 0 out of 1520 total

Infinity Aviation: 129.750
Nashua Ground: 121.800

KASH Tower (Archives)
Nashua, New Hampshire, United States

Feed Status: UP
Listen in your browser - HTML5 player(in browser, HTML5)
Click here to listen with your own player(launches your MP3 player)

KASH 241756Z 29014G21KT 10SM CLR M02/M16 A2991 RMK AO2 SLP138 T10221156 11017 21089 56015

KASH Airport Info (Airnav.com)

KASH Flight Activity (Flightaware)

Listeners: 0 out of 1520 total

Nashua Tower: 133.200

Atlanta Approach (NW Satellite) (Archives)
Atlanta, Georgia, United States

Feed Status: UP
Listen in your browser - HTML5 player(in browser, HTML5)
Click here to listen with your own player(launches your MP3 player)

KRYY 241750Z 12009KT 10SM FEW025 13/M02 A3018 RMK AO2 SLP940 T01281022 10128 20044 58023 $

KRYY Airport Info (Airnav.com)

KRYY Flight Activity (Flightaware)

Listeners: 0 out of 1520 total

Atlanta Approach (North Satellite): 121.000

KATW Tower (Archives)
Appleton, Wisconsin, United States

Feed Status: UP
Listen in your browser - HTML5 player(in browser, HTML5)
Click here to listen with your own player(launches your MP3 player)

KATW 241745Z 25008KT 10SM OVC010 M03/M07 A3002

KATW Airport Info (Airnav.com)

KATW Flight Activity (Flightaware)

Listeners: 1 out of 1520 total

Appleton Tower: 119.600

KAUG Del/CTAF (Archives)
Augusta, Maine, United States

Feed Status: UP
Listen in your browser - HTML5 player(in browser, HTML5)
Click here to listen with your own player(launches your MP3 player)

KAUG 241753Z AUTO 30011G18KT 10SM CLR M04/M14 A2973 RMK AO2 SLPNO T10441144 11044 21122 58004 $

KAUG Airport Info (Airnav.com)

KAUG Flight Activity (Flightaware)

Listeners: 0 out of 1520 total

Augusta Clearance Delivery: 119.950
Augusta CTAF/UNICOM: 123.000

NORCAL Approach (Elk Horn)
Auburn, California, United States

Feed Status: DOWN
Offline since: 2020-08-14 20:00:39 UTC

KAUN 241735Z AUTO 13008KT 10SM CLR 06/02 A2990 RMK A01

KAUN Airport Info (Airnav.com)

NORCAL Approach (Elk Horn Sector): 125.100

NORCAL Approach (Expo)
Auburn, California, United States

Feed Status: DOWN
Offline since: 2020-08-14 20:00:39 UTC

KAUN 241735Z AUTO 13008KT 10SM CLR 06/02 A2990 RMK A01

KAUN Airport Info (Airnav.com)

NORCAL Approach (EXPO Sector): 127.400

KAUW CTAF (Air Race Classic)
Wausau, Wisconsin, United States

Feed Status: DOWN
Offline since: 2019-06-24 16:01:03 UTC

Wausau CTAF: 122.700

KAVO CTAF (Archives)
Avon Park, Florida, United States

Feed Status: UP
Listen in your browser - HTML5 player(in browser, HTML5)
Click here to listen with your own player(launches your MP3 player)

KAVO Airport Info (Airnav.com)

KAVO Flight Activity (Flightaware)

Listeners: 0 out of 1520 total

Avon Park CTAF: 122.800

KAVP Gnd/Twr/App (Archives)
Wilkes-Barre/Scranton, Pennsylvania, United States

Feed Status: UP
Listen in your browser - HTML5 player(in browser, HTML5)
Click here to listen with your own player(launches your MP3 player)

KAVP 241754Z 35010KT 10SM CLR M03/M13 A3017 RMK AO2 SLP226 T10281128 11028 21067 58018

KAVP Airport Info (Airnav.com)

KAVP Flight Activity (Flightaware)

Listeners: 0 out of 1520 total

Wilkes-Barre Approach: 124.500
Wilkes-Barre Approach: 126.300
Wilkes-Barre Ground: 121.900
Wilkes-Barre Tower: 120.100

KAVQ CTAF (Archives)
Marana, Arizona, United States

Feed Status: UP
Listen in your browser - HTML5 player(in browser, HTML5)
Click here to listen with your own player(launches your MP3 player)

KAVQ 241755Z AUTO 24014G18KT 10SM 12/04 A2986 RMK AO2 T01190035

KAVQ Airport Info (Airnav.com)

KAVQ Flight Activity (Flightaware)

Listeners: 0 out of 1520 total

Marana CTAF: 123.000

Arlington Fly-In Radio
Arlington, Washington, United States

Feed Status: DOWN
Offline since: 2019-08-18 20:46:39 UTC

KAWO 241756Z AUTO 10007KT 10SM -RA OVC019 03/02 A2978 RMK AO2 SLP090 P0000 60000 T00280022 10028 20011 58014

KAWO Airport Info (Airnav.com)

Arlington Fly-In Radio: 89.9

KAWO Arlington Fly-In ATC
Arlington, Washington, United States

Feed Status: DOWN
Offline since: 2019-08-18 20:46:39 UTC

KAWO 241756Z AUTO 10007KT 10SM -RA OVC019 03/02 A2978 RMK AO2 SLP090 P0000 60000 T00280022 10028 20011 58014

KAWO Airport Info (Airnav.com)

Arlington CTAF: 122.725
Arlington Tower (Air Show): 127.200

KAWO CTAF/Clearance (Archives)
Arlington, Washington, United States

Feed Status: UP
Listen in your browser - HTML5 player(in browser, HTML5)
Click here to listen with your own player(launches your MP3 player)

KAWO 241756Z AUTO 10007KT 10SM -RA OVC019 03/02 A2978 RMK AO2 SLP090 P0000 60000 T00280022 10028 20011 58014

KAWO Airport Info (Airnav.com)

KAWO Flight Activity (Flightaware)

Listeners: 0 out of 1520 total

Arlington Clearance Delivery (Seattle): 121.725
Arlington CTAF: 122.725

KBTL/KAZO Gnd/Twr/App (Archives)
Kalamazoo, Michigan, United States

Feed Status: UP
Listen in your browser - HTML5 player(in browser, HTML5)
Click here to listen with your own player(launches your MP3 player)

KBTL Airport Info (Airnav.com)

KBTL Flight Activity (Flightaware)

Listeners: 0 out of 1520 total

Battle Creek Ground: 121.700
Battle Creek Tower: 126.825
Kalamazoo Approach/Departure: 119.200
Kalamazoo Ground: 121.900
Kalamazoo Tower: 118.300

KBAF ATIS (Archives)
Westfield/Springfield, Massachusetts, United States

Feed Status: UP
Listen in your browser - HTML5 player(in browser, HTML5)
Click here to listen with your own player(launches your MP3 player)

KBAF 241753Z 30011G21KT 10SM CLR M03/M19 A3002 RMK AO2 PK WND 33026/1725 SLP173 T10281194 11028 21100 58021

KBAF Airport Info (Airnav.com)

KBAF Flight Activity (Flightaware)

Listeners: 0 out of 1520 total

Westfield ATIS: 127.100

KBAF Ground (Archives)
Westfield/Springfield, Massachusetts, United States

Feed Status: UP
Listen in your browser - HTML5 player(in browser, HTML5)
Click here to listen with your own player(launches your MP3 player)

KBAF 241753Z 30011G21KT 10SM CLR M03/M19 A3002 RMK AO2 PK WND 33026/1725 SLP173 T10281194 11028 21100 58021

KBAF Airport Info (Airnav.com)

KBAF Flight Activity (Flightaware)

Listeners: 0 out of 1520 total

Emergency/Guard: 121.500
Emergency/Guard: 243.000
NG Ops: 123.050
NG Ops: 309.000
Westfield Ground: 121.700
Westfield Ground: 289.400

KBAF Ground/Tower (Archives)
Westfield/Springfield, Massachusetts, United States

Feed Status: UP
Listen in your browser - HTML5 player(in browser, HTML5)
Click here to listen with your own player(launches your MP3 player)

KBAF 241753Z 30011G21KT 10SM CLR M03/M19 A3002 RMK AO2 PK WND 33026/1725 SLP173 T10281194 11028 21100 58021

KBAF Airport Info (Airnav.com)

KBAF Flight Activity (Flightaware)

Listeners: 0 out of 1520 total

Emergency/Guard: 121.500
Emergency/Guard: 243.000
NG Ops: 123.050
NG Ops: 309.000
Westfield Ground: 121.700
Westfield Ground: 289.400
Westfield Tower: 118.900
Westfield Tower: 251.100

KBAF Tower (Archives)
Westfield/Springfield, Massachusetts, United States

Feed Status: UP
Listen in your browser - HTML5 player(in browser, HTML5)
Click here to listen with your own player(launches your MP3 player)

KBAF 241753Z 30011G21KT 10SM CLR M03/M19 A3002 RMK AO2 PK WND 33026/1725 SLP173 T10281194 11028 21100 58021

KBAF Airport Info (Airnav.com)

KBAF Flight Activity (Flightaware)

Listeners: 0 out of 1520 total

Westfield Tower: 118.900
Westfield Tower: 251.100

KBAZ Tower (Archives)
New Braunfels, Texas, United States

Feed Status: UP
Listen in your browser - HTML5 player(in browser, HTML5)
Click here to listen with your own player(launches your MP3 player)

KBAZ 241751Z 14006KT 3/4SM BR VV003 19/18 A2990 RMK AO2 RAB02E23 SLP119 P0001 60002 T01940183 10194 20172 58007

KBAZ Airport Info (Airnav.com)

KBAZ Flight Activity (Flightaware)

Listeners: 0 out of 1520 total

New Braunfels Tower: 127.050

KBCT ATIS (Archives)
Boca Raton, Florida, United States

Feed Status: UP
Listen in your browser - HTML5 player(in browser, HTML5)
Click here to listen with your own player(launches your MP3 player)

KBCT 241647Z 06006KT 9SM SCT025 27/19 A3013

KBCT Airport Info (Airnav.com)

KBCT Flight Activity (Flightaware)

Listeners: 0 out of 1520 total

Boca Raton ATIS/AWOS: 121.125

KBCT Emergency/Guard (Archives)
Boca Raton, Florida, United States

Feed Status: UP
Listen in your browser - HTML5 player(in browser, HTML5)
Click here to listen with your own player(launches your MP3 player)

KBCT 241647Z 06006KT 9SM SCT025 27/19 A3013

KBCT Airport Info (Airnav.com)

KBCT Flight Activity (Flightaware)

Listeners: 0 out of 1520 total

Emergency/Guard: 121.500

KBCT Ground (Archives)
Boca Raton, Florida, United States

Feed Status: UP
Listen in your browser - HTML5 player(in browser, HTML5)
Click here to listen with your own player(launches your MP3 player)

KBCT 241647Z 06006KT 9SM SCT025 27/19 A3013

KBCT Airport Info (Airnav.com)

KBCT Flight Activity (Flightaware)

Listeners: 0 out of 1520 total

Boca Raton Ground: 121.800

KBCT Ground/Tower (Archives)
Boca Raton, Florida, United States

Feed Status: UP
Listen in your browser - HTML5 player(in browser, HTML5)
Click here to listen with your own player(launches your MP3 player)

KBCT 241647Z 06006KT 9SM SCT025 27/19 A3013

KBCT Airport Info (Airnav.com)

KBCT Flight Activity (Flightaware)

Listeners: 0 out of 1520 total

Boca Raton Ground: 121.800
Boca Raton Tower: 118.425

KBCT Tower (Archives)
Boca Raton, Florida, United States

Feed Status: UP
Listen in your browser - HTML5 player(in browser, HTML5)
Click here to listen with your own player(launches your MP3 player)

KBCT 241647Z 06006KT 9SM SCT025 27/19 A3013

KBCT Airport Info (Airnav.com)

KBCT Flight Activity (Flightaware)

Listeners: 0 out of 1520 total

Boca Raton Tower: 118.425

KBDN CTAF (Archives)
Bend, Oregon, United States

Feed Status: UP
Listen in your browser - HTML5 player(in browser, HTML5)
Click here to listen with your own player(launches your MP3 player)

KBDN 241755Z AUTO 13006KT 10SM FEW022 FEW055 M04/M06 A2974 RMK AO2

KBDN Airport Info (Airnav.com)

KBDN Flight Activity (Flightaware)

Listeners: 0 out of 1520 total

Bend CTAF: 123.000

KBDR Del/Gnd/Twr (Archives)
Bridgeport, Connecticut, United States

Feed Status: UP
Listen in your browser - HTML5 player(in browser, HTML5)
Click here to listen with your own player(launches your MP3 player)

KBDR 241752Z 32013G19KT 10SM CLR M01/M17 A3008 RMK AO2 SLP187 T10061172 11006 21061 58025

KBDR Airport Info (Airnav.com)

KBDR Flight Activity (Flightaware)

Listeners: 2 out of 1520 total

Bridgeport Clearance/Ground: 121.750
Bridgeport Tower: 120.900
Sikorsky Heliport: 133.600

KBDR Del/Gnd/Twr/App (Archives)
Bridgeport, Connecticut, United States

Feed Status: UP
Listen in your browser - HTML5 player(in browser, HTML5)
Click here to listen with your own player(launches your MP3 player)

KBDR 241752Z 32013G19KT 10SM CLR M01/M17 A3008 RMK AO2 SLP187 T10061172 11006 21061 58025

KBDR Airport Info (Airnav.com)

KBDR Flight Activity (Flightaware)

Listeners: 0 out of 1520 total

Bridgeport Clearance/Ground: 121.750
Bridgeport Tower: 120.900
New York Approach (LOVES Sector): 124.075
Sikorsky Heliport: 133.600

New York Approach (LOVES Sector) (Archives)
Bridgeport, Connecticut, United States

Feed Status: UP
Listen in your browser - HTML5 player(in browser, HTML5)
Click here to listen with your own player(launches your MP3 player)

KBDR 241752Z 32013G19KT 10SM CLR M01/M17 A3008 RMK AO2 SLP187 T10061172 11006 21061 58025

KBDR Airport Info (Airnav.com)

KBDR Flight Activity (Flightaware)

Listeners: 0 out of 1520 total

New York Approach (LOVES Sector): 124.075

KFTG/KEIK/KBDU/KLMO/Misc (Archives)
Boulder, Colorado, United States

Feed Status: UP
Listen in your browser - HTML5 player(in browser, HTML5)
Click here to listen with your own player(launches your MP3 player)

KDEN 241753Z 00000KT 10SM FEW020 SCT140 00/M07 A2981 RMK AO2 SLP111 T00001072 10000 21050 58013 $

KDEN Airport Info (Airnav.com)

KDEN Flight Activity (Flightaware)

Listeners: 0 out of 1520 total

Air-to-Air Fixed Wing: 122.750
Air-to-Air Informal: 123.450
Boulder CTAF: 122.725
Erie CTAF: 123.000
Front Range Tower: 120.200
KBKF Tower: 121.000
Longmont CTAF: 122.975
MULTICOM: 122.900
UNICOM: 122.950

KAAO CTAF/KBEC Twr (Archives)
Wichita, Kansas, United States

Feed Status: UP
Listen in your browser - HTML5 player(in browser, HTML5)
Click here to listen with your own player(launches your MP3 player)

KAAO 241754Z AUTO 01009KT 5SM BR OVC004 01/M01 A3005 RMK AO2 SLP184 T00111006 10044 20006 51013

KAAO Airport Info (Airnav.com)

KAAO Flight Activity (Flightaware)

Listeners: 0 out of 1520 total

Beech Tower: 126.800
Jabara CTAF: 122.700

Boston App/Dep (North Sat) #1 (Archives)
Bedford, Massachusetts, United States

Feed Status: UP
Listen in your browser - HTML5 player(in browser, HTML5)
Click here to listen with your own player(launches your MP3 player)

KBED 241751Z 29026G34KT 10SM CLR M02/M17 A2988 RMK AO2 PK WND 31036/1735 SLP136 T10171172 11011 21078 58023

KBED Airport Info (Airnav.com)

KBED Flight Activity (Flightaware)

Listeners: 1 out of 1520 total

Boston Approach (North Satellites, SFC-3500'): 124.400

KBED ATIS #1 (Archives)
Bedford, Massachusetts, United States

Feed Status: UP
Listen in your browser - HTML5 player(in browser, HTML5)
Click here to listen with your own player(launches your MP3 player)

KBED 241751Z 29026G34KT 10SM CLR M02/M17 A2988 RMK AO2 PK WND 31036/1735 SLP136 T10171172 11011 21078 58023

KBED Airport Info (Airnav.com)

KBED Flight Activity (Flightaware)

Listeners: 0 out of 1520 total

Hanscom ATIS: 124.600

KBED ATIS #2 (Archives)
Bedford, Massachusetts, United States

Feed Status: UP
Listen in your browser - HTML5 player(in browser, HTML5)
Click here to listen with your own player(launches your MP3 player)

KBED 241751Z 29026G34KT 10SM CLR M02/M17 A2988 RMK AO2 PK WND 31036/1735 SLP136 T10171172 11011 21078 58023

KBED Airport Info (Airnav.com)

KBED Flight Activity (Flightaware)

Listeners: 0 out of 1520 total

Hanscom ATIS: 124.600

KBED Clearance Delivery (Archives)
Bedford, Massachusetts, United States

Feed Status: UP
Listen in your browser - HTML5 player(in browser, HTML5)
Click here to listen with your own player(launches your MP3 player)

KBED 241751Z 29026G34KT 10SM CLR M02/M17 A2988 RMK AO2 PK WND 31036/1735 SLP136 T10171172 11011 21078 58023

KBED Airport Info (Airnav.com)

KBED Flight Activity (Flightaware)

Listeners: 0 out of 1520 total

Hanscom Clearance Delivery: 121.850

KBED Del/Gnd (Archives)
Bedford, Massachusetts, United States

Feed Status: UP
Listen in your browser - HTML5 player(in browser, HTML5)
Click here to listen with your own player(launches your MP3 player)

KBED 241751Z 29026G34KT 10SM CLR M02/M17 A2988 RMK AO2 PK WND 31036/1735 SLP136 T10171172 11011 21078 58023

KBED Airport Info (Airnav.com)

KBED Flight Activity (Flightaware)

Listeners: 0 out of 1520 total

Hanscom Clearance Delivery: 121.850
Hanscom Ground: 121.700

KBED Gnd/Twr (Archives)
Bedford, Massachusetts, United States

Feed Status: UP
Listen in your browser - HTML5 player(in browser, HTML5)
Click here to listen with your own player(launches your MP3 player)

KBED 241751Z 29026G34KT 10SM CLR M02/M17 A2988 RMK AO2 PK WND 31036/1735 SLP136 T10171172 11011 21078 58023

KBED Airport Info (Airnav.com)

KBED Flight Activity (Flightaware)

Listeners: 1 out of 1520 total

Hanscom Ground: 121.700
Hanscom Tower: 118.500

KBED Ground (Archives)
Bedford, Massachusetts, United States

Feed Status: UP
Listen in your browser - HTML5 player(in browser, HTML5)
Click here to listen with your own player(launches your MP3 player)

KBED 241751Z 29026G34KT 10SM CLR M02/M17 A2988 RMK AO2 PK WND 31036/1735 SLP136 T10171172 11011 21078 58023

KBED Airport Info (Airnav.com)

KBED Flight Activity (Flightaware)

Listeners: 0 out of 1520 total

Hanscom Ground: 121.700

KBED Tower (Archives)
Bedford, Massachusetts, United States

Feed Status: UP
Listen in your browser - HTML5 player(in browser, HTML5)
Click here to listen with your own player(launches your MP3 player)

KBED 241751Z 29026G34KT 10SM CLR M02/M17 A2988 RMK AO2 PK WND 31036/1735 SLP136 T10171172 11011 21078 58023

KBED Airport Info (Airnav.com)

KBED Flight Activity (Flightaware)

Listeners: 1 out of 1520 total

Hanscom Tower: 118.500

KBFI ATIS (Archives)
Seattle, Washington, United States

Feed Status: UP
Listen in your browser - HTML5 player(in browser, HTML5)
Click here to listen with your own player(launches your MP3 player)

KBFI 241753Z 13003KT 10SM -RA FEW014 BKN040 OVC055 04/02 A2978 RMK AO2 RAE07B31 SLP084 P0000 60000 T00390022 10039 20028 56012

KBFI Airport Info (Airnav.com)

KBFI Flight Activity (Flightaware)

Listeners: 0 out of 1520 total

Boeing ATIS: 127.750

KBFI Clearance Delivery (Archives)
Seattle, Washington, United States

Feed Status: UP
Listen in your browser - HTML5 player(in browser, HTML5)
Click here to listen with your own player(launches your MP3 player)

KBFI 241753Z 13003KT 10SM -RA FEW014 BKN040 OVC055 04/02 A2978 RMK AO2 RAE07B31 SLP084 P0000 60000 T00390022 10039 20028 56012

KBFI Airport Info (Airnav.com)

KBFI Flight Activity (Flightaware)

Listeners: 0 out of 1520 total

Boeing Clearance Delivery: 132.400

KBFI Ground (Archives)
Seattle, Washington, United States

Feed Status: UP
Listen in your browser - HTML5 player(in browser, HTML5)
Click here to listen with your own player(launches your MP3 player)

KBFI 241753Z 13003KT 10SM -RA FEW014 BKN040 OVC055 04/02 A2978 RMK AO2 RAE07B31 SLP084 P0000 60000 T00390022 10039 20028 56012

KBFI Airport Info (Airnav.com)

KBFI Flight Activity (Flightaware)

Listeners: 0 out of 1520 total

Boeing Ground: 121.900

KBFI Ground/Tower (Archives)
Seattle, Washington, United States

Feed Status: UP
Listen in your browser - HTML5 player(in browser, HTML5)
Click here to listen with your own player(launches your MP3 player)

KBFI 241753Z 13003KT 10SM -RA FEW014 BKN040 OVC055 04/02 A2978 RMK AO2 RAE07B31 SLP084 P0000 60000 T00390022 10039 20028 56012

KBFI Airport Info (Airnav.com)

KBFI Flight Activity (Flightaware)

Listeners: 1 out of 1520 total

Boeing Ground: 121.900
Boeing Tower (Rwy 13L & 31R/VFR): 118.300
Boeing Tower (Rwy 13R/31L/IFR): 120.600
Emergency: 121.500

KBFI Guard (Archives)
Seattle, Washington, United States

Feed Status: UP
Listen in your browser - HTML5 player(in browser, HTML5)
Click here to listen with your own player(launches your MP3 player)

KBFI 241753Z 13003KT 10SM -RA FEW014 BKN040 OVC055 04/02 A2978 RMK AO2 RAE07B31 SLP084 P0000 60000 T00390022 10039 20028 56012

KBFI Airport Info (Airnav.com)

KBFI Flight Activity (Flightaware)

Listeners: 0 out of 1520 total

Emergency/Guard: 121.500

KBFI Tower (IFR) (Archives)
Seattle, Washington, United States

Feed Status: UP
Listen in your browser - HTML5 player(in browser, HTML5)
Click here to listen with your own player(launches your MP3 player)

KBFI 241753Z 13003KT 10SM -RA FEW014 BKN040 OVC055 04/02 A2978 RMK AO2 RAE07B31 SLP084 P0000 60000 T00390022 10039 20028 56012

KBFI Airport Info (Airnav.com)

KBFI Flight Activity (Flightaware)

Listeners: 0 out of 1520 total

Boeing Tower (Rwy 13R/31L/IFR): 120.600

KBFI Tower (VFR) (Archives)
Seattle, Washington, United States

Feed Status: UP
Listen in your browser - HTML5 player(in browser, HTML5)
Click here to listen with your own player(launches your MP3 player)

KBFI 241753Z 13003KT 10SM -RA FEW014 BKN040 OVC055 04/02 A2978 RMK AO2 RAE07B31 SLP084 P0000 60000 T00390022 10039 20028 56012

KBFI Airport Info (Airnav.com)

KBFI Flight Activity (Flightaware)

Listeners: 0 out of 1520 total

Boeing Tower (Rwy 13L & 31R/VFR): 118.300

KBFI Tower (VFR/IFR) (Archives)
Seattle, Washington, United States

Feed Status: UP
Listen in your browser - HTML5 player(in browser, HTML5)
Click here to listen with your own player(launches your MP3 player)

KBFI 241753Z 13003KT 10SM -RA FEW014 BKN040 OVC055 04/02 A2978 RMK AO2 RAE07B31 SLP084 P0000 60000 T00390022 10039 20028 56012

KBFI Airport Info (Airnav.com)

KBFI Flight Activity (Flightaware)

Listeners: 0 out of 1520 total

Boeing Tower (Rwy 13L & 31R/VFR): 118.300
Boeing Tower (Rwy 13R/31L/IFR): 120.600

KBFM Ground/Tower (Archives)
Mobile, Alabama, United States

Feed Status: UP
Listen in your browser - HTML5 player(in browser, HTML5)
Click here to listen with your own player(launches your MP3 player)

KBFM 241753Z 15007KT 10SM OVC011 18/15 A3012 RMK AO2 SLP198 T01830150 10194 20144 58005

KBFM Airport Info (Airnav.com)

KBFM Flight Activity (Flightaware)

Listeners: 0 out of 1520 total

Downtown Ground: 121.700
Downtown Tower: 118.800

KBFM Tower (Archives)
Mobile, Alabama, United States

Feed Status: UP
Listen in your browser - HTML5 player(in browser, HTML5)
Click here to listen with your own player(launches your MP3 player)

KBFM 241753Z 15007KT 10SM OVC011 18/15 A3012 RMK AO2 SLP198 T01830150 10194 20144 58005

KBFM Airport Info (Airnav.com)

KBFM Flight Activity (Flightaware)

Listeners: 0 out of 1520 total

Downtown Tower: 118.800

KBID CTAF (Archives)
Block Island, Rhode Island, United States

Feed Status: UP
Listen in your browser - HTML5 player(in browser, HTML5)
Click here to listen with your own player(launches your MP3 player)

KBID 241756Z AUTO 31013G24KT 10SM CLR M02/M15 A2998 RMK AO2 PK WND 30026/1738 SLP155 T10221150 11022 21078 58030 FZRANO

KBID Airport Info (Airnav.com)

KBID Flight Activity (Flightaware)

Listeners: 0 out of 1520 total

Block Island CTAF: 123.000

KBIS Twr/App (Archives)
Bismarck, North Dakota, United States

Feed Status: UP
Listen in your browser - HTML5 player(in browser, HTML5)
Click here to listen with your own player(launches your MP3 player)

KBIS 241752Z 08009KT 10SM SCT019 M11/M18 A3006 RMK AO2 SLP214 T11061178 11106 21183 57012

KBIS Airport Info (Airnav.com)

KBIS Flight Activity (Flightaware)

Listeners: 0 out of 1520 total

Bismarck Approach/Departure: 126.300
Bismarck Tower: 118.300

KBJC Ground/Tower (Archives)
Denver, Colorado, United States

Feed Status: UP
Listen in your browser - HTML5 player(in browser, HTML5)
Click here to listen with your own player(launches your MP3 player)

KBJC 241755Z 00000KT 10SM OVC012 M01/M07 A2981

KBJC Airport Info (Airnav.com)

KBJC Flight Activity (Flightaware)

Listeners: 1 out of 1520 total

Metro Ground: 121.700
Metro Tower: 118.600

KBJI CTAF/ZMP (Archives)
Bemidji, Minnesota, United States

Feed Status: UP
Listen in your browser - HTML5 player(in browser, HTML5)
Click here to listen with your own player(launches your MP3 player)

KBJI 241755Z AUTO 29007KT 10SM CLR M16/M20 A3011 RMK AO2 T11641202 11164 21211

KBJI Airport Info (Airnav.com)

KBJI Flight Activity (Flightaware)

Listeners: 1 out of 1520 total

Bemidji CTAF: 122.800
Minneapolis Center (Sector 25 Low/High): 134.750

KBKF Tower (UHF) (Archives)
Aurora, Colorado, United States

Feed Status: UP
Listen in your browser - HTML5 player(in browser, HTML5)
Click here to listen with your own player(launches your MP3 player)

KBKF 201858Z 29016G21KT 10SM FEW090 FEW200 14/M10 A2992 RMK AO2A SLP114 T01361103

KBKF Airport Info (Airnav.com)

KBKF Flight Activity (Flightaware)

Listeners: 0 out of 1520 total

Buckley Tower: 291.675

KBKF Tower (VHF) (Archives)
Aurora, Colorado, United States

Feed Status: UP
Listen in your browser - HTML5 player(in browser, HTML5)
Click here to listen with your own player(launches your MP3 player)

KBKF 201858Z 29016G21KT 10SM FEW090 FEW200 14/M10 A2992 RMK AO2A SLP114 T01361103

KBKF Airport Info (Airnav.com)

KBKF Flight Activity (Flightaware)

Listeners: 0 out of 1520 total

Buckley Tower: 121.000

KBKF Tower (VHF/UHF) (Archives)
Aurora, Colorado, United States

Feed Status: UP
Listen in your browser - HTML5 player(in browser, HTML5)
Click here to listen with your own player(launches your MP3 player)

KBKF 201858Z 29016G21KT 10SM FEW090 FEW200 14/M10 A2992 RMK AO2A SLP114 T01361103

KBKF Airport Info (Airnav.com)

KBKF Flight Activity (Flightaware)

Listeners: 0 out of 1520 total

Buckley Tower: 121.000
Buckley Tower: 291.675

KBLI Tower (Archives)
Bellingham, Washington, United States

Feed Status: UP
Listen in your browser - HTML5 player(in browser, HTML5)
Click here to listen with your own player(launches your MP3 player)

KBLI 241753Z 05006KT 10SM -RA OVC023 02/01 A2975 RMK AO2 RAB04E05B50FZRAE50 SLP083 P0000 60002 I1000 I6000 T00170006 10017 20006 56010

KBLI Airport Info (Airnav.com)

KBLI Flight Activity (Flightaware)

Listeners: 0 out of 1520 total

Bellingham Tower: 124.900

KBLM/N12/3N6/KMJX (Archives)
Belmar/Farmingdale, New Jersey, United States

Feed Status: UP
Listen in your browser - HTML5 player(in browser, HTML5)
Click here to listen with your own player(launches your MP3 player)

KBLM 241756Z AUTO 29014G21KT 10SM CLR M01/M13 A3015 RMK AO2 SLP211 T10061133 11006 21056 58028 FZRANO

KBLM Airport Info (Airnav.com)

KBLM Flight Activity (Flightaware)

Listeners: 0 out of 1520 total

3N6 Old Bridge CTAF: 123.075
Emergency/Guard: 121.500
Monmouth Clearance: 120.950
Monmouth Clearance: 126.150
Monmouth CTAF: 123.000
N12 Lakewood CTAF: 122.800
Ocean County KMJX CTAF: 122.700

KBMG Approach/Departure (Archives)
Bloomington, Indiana, United States

Feed Status: UP
Listen in your browser - HTML5 player(in browser, HTML5)
Click here to listen with your own player(launches your MP3 player)

KBMG 241753Z 16005KT 2SM BR OVC004 00/M01 A3005 RMK AO2 SLP184 60008 I1001 I6005 T00001011 10000 21011 58016

KBMG Airport Info (Airnav.com)

KBMG Flight Activity (Flightaware)

Listeners: 0 out of 1520 total

Emergency/Guard: 121.500
Emergency/Guard: 243.000
Hulman Approach: 128.025

KBMG Tower (Archives)
Bloomington, Indiana, United States

Feed Status: UP
Listen in your browser - HTML5 player(in browser, HTML5)
Click here to listen with your own player(launches your MP3 player)

KBMG 241753Z 16005KT 2SM BR OVC004 00/M01 A3005 RMK AO2 SLP184 60008 I1001 I6005 T00001011 10000 21011 58016

KBMG Airport Info (Airnav.com)

KBMG Flight Activity (Flightaware)

Listeners: 0 out of 1520 total

Bloomington Tower: 120.775

KBMG Twr/App (Archives)
Bloomington, Indiana, United States

Feed Status: UP
Listen in your browser - HTML5 player(in browser, HTML5)
Click here to listen with your own player(launches your MP3 player)

KBMG 241753Z 16005KT 2SM BR OVC004 00/M01 A3005 RMK AO2 SLP184 60008 I1001 I6005 T00001011 10000 21011 58016

KBMG Airport Info (Airnav.com)

KBMG Flight Activity (Flightaware)

Listeners: 1 out of 1520 total

Bloomington Tower: 120.775
Emergency/Guard: 121.500
Emergency/Guard: 243.000
Hulman Approach: 128.025

KBMI Gnd/Twr/App/Dep (Archives)
Bloomington/Normal, Illinois, United States

Feed Status: UP
Listen in your browser - HTML5 player(in browser, HTML5)
Click here to listen with your own player(launches your MP3 player)

KBMI 241756Z 20006KT 10SM OVC047 02/M03 A3005 RMK AO2 SLP181 T00171033 10017 21011 58004

KBMI Airport Info (Airnav.com)

KBMI Flight Activity (Flightaware)

Listeners: 0 out of 1520 total

Bloomington Ground: 121.650
Bloomington Tower: 124.600
Peoria Approach/Departure: 128.725

KBOK CTAF (Archives)
Brookings, Oregon, United States

Feed Status: UP
Listen in your browser - HTML5 player(in browser, HTML5)
Click here to listen with your own player(launches your MP3 player)

KBOK 241756Z AUTO 11005KT 10SM OVC021 04/04 A2990 RMK AO2 RAE50 SLP128 P0001 60012 T00390039 10044 20028 56005

KBOK Airport Info (Airnav.com)

KBOK Flight Activity (Flightaware)

Listeners: 0 out of 1520 total

Brookings CTAF: 122.800

KBOW AWOS (Archives)
Bartow, Florida, United States

Feed Status: UP
Listen in your browser - HTML5 player(in browser, HTML5)
Click here to listen with your own player(launches your MP3 player)

KBOW 241750Z 17004KT 10SM SCT036 26/16 A3013

KBOW Airport Info (Airnav.com)

KBOW Flight Activity (Flightaware)

Listeners: 0 out of 1520 total

Bartow AWOS: 123.775

KBOW Gnd/Twr/Misc (Archives)
Bartow, Florida, United States

Feed Status: UP
Listen in your browser - HTML5 player(in browser, HTML5)
Click here to listen with your own player(launches your MP3 player)

KBOW 241750Z 17004KT 10SM SCT036 26/16 A3013

KBOW Airport Info (Airnav.com)

KBOW Flight Activity (Flightaware)

Listeners: 0 out of 1520 total

Bartow Ground: 121.900
Bartow Tower: 121.200
Bartow UNICOM: 122.950
Emergency/Guard: 121.500

KBOW Gnd/UNICOM/Guard (Archives)
Bartow, Florida, United States

Feed Status: UP
Listen in your browser - HTML5 player(in browser, HTML5)
Click here to listen with your own player(launches your MP3 player)

KBOW 241750Z 17004KT 10SM SCT036 26/16 A3013

KBOW Airport Info (Airnav.com)

KBOW Flight Activity (Flightaware)

Listeners: 0 out of 1520 total

Bartow Ground: 121.900
Bartow UNICOM: 122.950
Emergency/Guard: 121.500

KBOW Tower/CTAF (Archives)
Bartow, Florida, United States

Feed Status: UP
Listen in your browser - HTML5 player(in browser, HTML5)
Click here to listen with your own player(launches your MP3 player)

KBOW 241750Z 17004KT 10SM SCT036 26/16 A3013

KBOW Airport Info (Airnav.com)

KBOW Flight Activity (Flightaware)

Listeners: 0 out of 1520 total

Bartow Tower: 121.200

KBPK CTAF (Archives)
Mountain Home, Arkansas, United States

Feed Status: UP
Listen in your browser - HTML5 player(in browser, HTML5)
Click here to listen with your own player(launches your MP3 player)

KBPK 241753Z AUTO 00000KT 10SM OVC017 08/06 A3001 RMK AO2 SLP165 T00830056 10083 20022 58001

KBPK Airport Info (Airnav.com)

KBPK Flight Activity (Flightaware)

Listeners: 0 out of 1520 total

Baxter County CTAF: 123.000

KBTL/KAZO Gnd/Twr/App (Archives)
Battle Creek, Michigan, United States

Feed Status: UP
Listen in your browser - HTML5 player(in browser, HTML5)
Click here to listen with your own player(launches your MP3 player)

KBTL Airport Info (Airnav.com)

KBTL Flight Activity (Flightaware)

Listeners: 0 out of 1520 total

Battle Creek Ground: 121.700
Battle Creek Tower: 126.825
Kalamazoo Approach/Departure: 119.200
Kalamazoo Ground: 121.900
Kalamazoo Tower: 118.300

KWHP/KVNY/KBUR App/Dep (Archives)
Burbank, California, United States

Feed Status: UP
Listen in your browser - HTML5 player(in browser, HTML5)
Click here to listen with your own player(launches your MP3 player)

KWHP 241750Z 09004KT 10SM SKC 09/04 A2995

KWHP Airport Info (Airnav.com)

KWHP Flight Activity (Flightaware)

Listeners: 2 out of 1520 total

SOCAL App (Glendale Sector): 135.050
SOCAL App (Valley Sector): 124.600
SOCAL Approach (Fillmore Sector): 120.400
SOCAL Approach (Moorpark Sector): 128.750
SOCAL Approach (Woodland Sector): 134.200

3CK/KBUU CTAF (Archives)
Burlington, Wisconsin, United States

Feed Status: UP
Listen in your browser - HTML5 player(in browser, HTML5)
Click here to listen with your own player(launches your MP3 player)

K3CK Airport Info (Airnav.com)

K3CK Flight Activity (Flightaware)

Listeners: 0 out of 1520 total

Lake in the Hills CTAF: 123.050

KBVI ATIS (Archives)
Beaver Falls, Pennsylvania, United States

Feed Status: UP
Listen in your browser - HTML5 player(in browser, HTML5)
Click here to listen with your own player(launches your MP3 player)

KBVI 241755Z AUTO 11004KT 10SM OVC070 M04/M09 A3017 RMK AO2 T10371090

KBVI Airport Info (Airnav.com)

KBVI Flight Activity (Flightaware)

Listeners: 0 out of 1520 total

Beaver County ATIS: 118.350

KBVI Ground (Archives)
Beaver Falls, Pennsylvania, United States

Feed Status: UP
Listen in your browser - HTML5 player(in browser, HTML5)
Click here to listen with your own player(launches your MP3 player)

KBVI 241755Z AUTO 11004KT 10SM OVC070 M04/M09 A3017 RMK AO2 T10371090

KBVI Airport Info (Airnav.com)

KBVI Flight Activity (Flightaware)

Listeners: 0 out of 1520 total

Beaver County Clearance (when Tower closed): 124.850
Beaver County Ground: 121.800

KBVI Ground/Tower (Archives)
Beaver Falls, Pennsylvania, United States

Feed Status: UP
Listen in your browser - HTML5 player(in browser, HTML5)
Click here to listen with your own player(launches your MP3 player)

KBVI 241755Z AUTO 11004KT 10SM OVC070 M04/M09 A3017 RMK AO2 T10371090

KBVI Airport Info (Airnav.com)

KBVI Flight Activity (Flightaware)

Listeners: 0 out of 1520 total

Beaver County Clearance (when Tower closed): 124.850
Beaver County Ground: 121.800
Beaver County Tower: 120.300

KBVI Tower (Archives)
Beaver Falls, Pennsylvania, United States

Feed Status: UP
Listen in your browser - HTML5 player(in browser, HTML5)
Click here to listen with your own player(launches your MP3 player)

KBVI 241755Z AUTO 11004KT 10SM OVC070 M04/M09 A3017 RMK AO2 T10371090

KBVI Airport Info (Airnav.com)

KBVI Flight Activity (Flightaware)

Listeners: 0 out of 1520 total

Beaver County Tower: 120.300

KBVI Tower (Archives)
Beaver Falls, Pennsylvania, United States

Feed Status: UP
Listen in your browser - HTML5 player(in browser, HTML5)
Click here to listen with your own player(launches your MP3 player)

KBVI 241755Z AUTO 11004KT 10SM OVC070 M04/M09 A3017 RMK AO2 T10371090

KBVI Airport Info (Airnav.com)

KBVI Flight Activity (Flightaware)

Listeners: 0 out of 1520 total

Beaver County Tower: 120.300

KBVY ATIS (Archives)
Beverly, Massachusetts, United States

Feed Status: UP
Listen in your browser - HTML5 player(in browser, HTML5)
Click here to listen with your own player(launches your MP3 player)

KBVY 241753Z 31022G32KT 10SM CLR M01/M18 A2983 RMK AO2 PK WND 31037/1658 SLP101 T10061178 11006 21078 58020

KBVY Airport Info (Airnav.com)

KBVY Flight Activity (Flightaware)

Listeners: 0 out of 1520 total

Beverly ATIS: 119.200

KBVY Ground (Archives)
Beverly, Massachusetts, United States

Feed Status: UP
Listen in your browser - HTML5 player(in browser, HTML5)
Click here to listen with your own player(launches your MP3 player)

KBVY 241753Z 31022G32KT 10SM CLR M01/M18 A2983 RMK AO2 PK WND 31037/1658 SLP101 T10061178 11006 21078 58020

KBVY Airport Info (Airnav.com)

KBVY Flight Activity (Flightaware)

Listeners: 0 out of 1520 total

Beverly Ground: 121.600

KBVY Tower #1 (Archives)
Beverly, Massachusetts, United States

Feed Status: UP
Listen in your browser - HTML5 player(in browser, HTML5)
Click here to listen with your own player(launches your MP3 player)

KBVY 241753Z 31022G32KT 10SM CLR M01/M18 A2983 RMK AO2 PK WND 31037/1658 SLP101 T10061178 11006 21078 58020

KBVY Airport Info (Airnav.com)

KBVY Flight Activity (Flightaware)

Listeners: 1 out of 1520 total

Beverly Tower: 125.200

KBVY Tower #2 (Archives)
Beverly, Massachusetts, United States

Feed Status: UP
Listen in your browser - HTML5 player(in browser, HTML5)
Click here to listen with your own player(launches your MP3 player)

KBVY 241753Z 31022G32KT 10SM CLR M01/M18 A2983 RMK AO2 PK WND 31037/1658 SLP101 T10061178 11006 21078 58020

KBVY Airport Info (Airnav.com)

KBVY Flight Activity (Flightaware)

Listeners: 0 out of 1520 total

Beverly Tower: 125.200

KBXM CTAF/AWOS (Archives)
Brunswick, Maine, United States

Feed Status: UP
Listen in your browser - HTML5 player(in browser, HTML5)
Click here to listen with your own player(launches your MP3 player)

KBXM Airport Info (Airnav.com)

KBXM Flight Activity (Flightaware)

Listeners: 0 out of 1520 total

Brunswick CTAF/UNICOM: 122.725
KBXM AWOS: 134.875

KBZN App/Dep (Archives)
Bozeman, Montana, United States

Feed Status: UP
Listen in your browser - HTML5 player(in browser, HTML5)
Click here to listen with your own player(launches your MP3 player)

KBZN 241756Z 00000KT 10SM CLR M07/M12 A2975 RMK AO2 SLP133 T10671117 11067 21156 58003 $

KBZN Airport Info (Airnav.com)

KBZN Flight Activity (Flightaware)

Listeners: 0 out of 1520 total

Big Sky Approach/Departure: 118.975

KBZN Ground (Archives)
Bozeman, Montana, United States

Feed Status: UP
Listen in your browser - HTML5 player(in browser, HTML5)
Click here to listen with your own player(launches your MP3 player)

KBZN 241756Z 00000KT 10SM CLR M07/M12 A2975 RMK AO2 SLP133 T10671117 11067 21156 58003 $

KBZN Airport Info (Airnav.com)

KBZN Flight Activity (Flightaware)

Listeners: 0 out of 1520 total

Bozeman Ground: 121.800

KBZN Tower #1
Bozeman, Montana, United States

Feed Status: DOWN
Offline since: 2019-12-19 20:24:05 UTC

KBZN 241756Z 00000KT 10SM CLR M07/M12 A2975 RMK AO2 SLP133 T10671117 11067 21156 58003 $

KBZN Airport Info (Airnav.com)

Bozeman Tower/CTAF: 118.200

KBZN Tower #2 (Archives)
Bozeman, Montana, United States

Feed Status: UP
Listen in your browser - HTML5 player(in browser, HTML5)
Click here to listen with your own player(launches your MP3 player)

KBZN 241756Z 00000KT 10SM CLR M07/M12 A2975 RMK AO2 SLP133 T10671117 11067 21156 58003 $

KBZN Airport Info (Airnav.com)

KBZN Flight Activity (Flightaware)

Listeners: 0 out of 1520 total

Bozeman Tower/CTAF: 118.200

KCCB CTAF (Archives)
Upland, California, United States

Feed Status: UP
Listen in your browser - HTML5 player(in browser, HTML5)
Click here to listen with your own player(launches your MP3 player)

KCCB Airport Info (Airnav.com)

KCCB Flight Activity (Flightaware)

Listeners: 0 out of 1520 total

Upland CTAF: 123.000

KCCO CTAF (Archives)
Atlanta, Georgia, United States

Feed Status: UP
Listen in your browser - HTML5 player(in browser, HTML5)
Click here to listen with your own player(launches your MP3 player)

KCCO 241735Z AUTO 15008KT 10SM BKN024 15/02 A3018 RMK AO2 T01500022

KCCO Airport Info (Airnav.com)

KCCO Flight Activity (Flightaware)

Listeners: out of 1520 total

Emergency/Guard: 121.500
Flight School Company Channel: 123.300
Newnan CTAF: 122.700

KCCR Gnd/Twr (Archives)
Concord, California, United States

Feed Status: UP
Listen in your browser - HTML5 player(in browser, HTML5)
Click here to listen with your own player(launches your MP3 player)

KCCR 241753Z 22008KT 10SM OVC027 10/04 A2993 RMK AO2 SLP120 T01000044 10100 20056 50000

KCCR Airport Info (Airnav.com)

KCCR Flight Activity (Flightaware)

Listeners: 0 out of 1520 total

Concord Ground: 121.900
Concord Tower: 119.700

KCDC ASOS (Archives)
Cedar City, Utah, United States

Feed Status: UP
Listen in your browser - HTML5 player(in browser, HTML5)
Click here to listen with your own player(launches your MP3 player)

KCDC 241753Z AUTO 30003KT 10SM BKN012 M03/M07 A2979 RMK AO2 SLP102 I6000 T10331067 11033 21083 58000 $

KCDC Airport Info (Airnav.com)

KCDC Flight Activity (Flightaware)

Listeners: 0 out of 1520 total

Cedar City ASOS: 119.025

KCDC CTAF #1 (Archives)
Cedar City, Utah, United States

Feed Status: UP
Listen in your browser - HTML5 player(in browser, HTML5)
Click here to listen with your own player(launches your MP3 player)

KCDC 241753Z AUTO 30003KT 10SM BKN012 M03/M07 A2979 RMK AO2 SLP102 I6000 T10331067 11033 21083 58000 $

KCDC Airport Info (Airnav.com)

KCDC Flight Activity (Flightaware)

Listeners: 1 out of 1520 total

Cedar City CTAF: 123.000

KCDC CTAF #2 (Archives)
Cedar City, Utah, United States

Feed Status: UP
Listen in your browser - HTML5 player(in browser, HTML5)
Click here to listen with your own player(launches your MP3 player)

KCDC 241753Z AUTO 30003KT 10SM BKN012 M03/M07 A2979 RMK AO2 SLP102 I6000 T10331067 11033 21083 58000 $

KCDC Airport Info (Airnav.com)

KCDC Flight Activity (Flightaware)

Listeners: 0 out of 1520 total

Cedar City CTAF: 123.000

KCDC Guard (Archives)
Cedar City, Utah, United States

Feed Status: UP
Listen in your browser - HTML5 player(in browser, HTML5)
Click here to listen with your own player(launches your MP3 player)

KCDC 241753Z AUTO 30003KT 10SM BKN012 M03/M07 A2979 RMK AO2 SLP102 I6000 T10331067 11033 21083 58000 $

KCDC Airport Info (Airnav.com)

KCDC Flight Activity (Flightaware)

Listeners: 0 out of 1520 total

Emergency/Guard: 121.500

KCDC T-Bird Dispatch (Archives)
Cedar City, Utah, United States

Feed Status: UP
Listen in your browser - HTML5 player(in browser, HTML5)
Click here to listen with your own player(launches your MP3 player)

KCDC 241753Z AUTO 30003KT 10SM BKN012 M03/M07 A2979 RMK AO2 SLP102 I6000 T10331067 11033 21083 58000 $

KCDC Airport Info (Airnav.com)

KCDC Flight Activity (Flightaware)

Listeners: 0 out of 1520 total

SUU Aviation T-Bird Traffic (Dispatch): 123.500

KCDW Del/Gnd/Twr (Archives)
Caldwell, New Jersey, United States

Feed Status: UP
Listen in your browser - HTML5 player(in browser, HTML5)
Click here to listen with your own player(launches your MP3 player)

KCDW 241753Z 30016G22KT 10SM CLR M01/M16 A3014 RMK AO2 SLP212 T10061161 11006 21056 58023

KCDW Airport Info (Airnav.com)

KCDW Flight Activity (Flightaware)

Listeners: 2 out of 1520 total

Caldwell Clearance: 121.100
Caldwell Ground: 121.900
Caldwell Tower: 119.800

KCEU CTAF/App
Clemson, South Carolina, United States

Feed Status: DOWN
Offline since: 2019-10-13 21:53:39 UTC

KCEU Airport Info (Airnav.com)

CTAF: 122.700
Greer Approach/Departure: 118.800

KCEZ CTAF/ZDV
Cortez, Colorado, United States

Feed Status: DOWN
Offline since: 2020-12-18 03:02:39 UTC

KCEZ 241753Z AUTO 24005KT 9SM FEW010 BKN028 OVC038 02/01 A2978 RMK AO2 SLP085 60007 T00220006 10022 21022 55000

KCEZ Airport Info (Airnav.com)

Cortez CTAF: 122.800
Denver Center (Sector 36 Farmington Low): 118.575
Emergency/Guard: 121.500

KCFD CTAF/App (Archives)
Bryan, Texas, United States

Feed Status: UP
Listen in your browser - HTML5 player(in browser, HTML5)
Click here to listen with your own player(launches your MP3 player)

KCFD 241735Z AUTO 07004KT 1/2SM FG OVC003 18/18 A2995 RMK AO2 T01820182

KCFD Airport Info (Airnav.com)

KCFD Flight Activity (Flightaware)

Listeners: 0 out of 1520 total

Bryan CTAF/UNICOM: 123.000
Houston Approach/Departure: 134.300

KCFJ CTAF (Archives)
Crawfordsville, Indiana, United States

Feed Status: UP
Listen in your browser - HTML5 player(in browser, HTML5)
Click here to listen with your own player(launches your MP3 player)

KCFJ 241755Z AUTO 20004KT 2 1/2SM BR OVC004 M01/M01 A3006 RMK AO2 T10151015 11015 21027

KCFJ Airport Info (Airnav.com)

KCFJ Flight Activity (Flightaware)

Listeners: 0 out of 1520 total

Crawfordsville CTAF: 122.800

KCFJ Emergency/Guard (Archives)
Crawfordsville, Indiana, United States

Feed Status: UP
Listen in your browser - HTML5 player(in browser, HTML5)
Click here to listen with your own player(launches your MP3 player)

KCFJ 241755Z AUTO 20004KT 2 1/2SM BR OVC004 M01/M01 A3006 RMK AO2 T10151015 11015 21027

KCFJ Airport Info (Airnav.com)

KCFJ Flight Activity (Flightaware)

Listeners: 0 out of 1520 total

Emergency/Guard: 121.500

KCFO/KEIK/KBDU/KLMO/Misc (Archives)
Denver, Colorado, United States

Feed Status: UP
Listen in your browser - HTML5 player(in browser, HTML5)
Click here to listen with your own player(launches your MP3 player)

KDEN 241753Z 00000KT 10SM FEW020 SCT140 00/M07 A2981 RMK AO2 SLP111 T00001072 10000 21050 58013 $

KDEN Airport Info (Airnav.com)

KDEN Flight Activity (Flightaware)

Listeners: 0 out of 1520 total

Air-to-Air Fixed Wing: 122.750
Air-to-Air Informal: 123.450
Boulder CTAF: 122.725
Erie CTAF: 123.000
Front Range Tower: 120.200
KBKF Tower: 121.000
Longmont CTAF: 122.975
MULTICOM: 122.900
UNICOM: 122.950

KCGZ AWOS (Archives)
Casa Grande, Arizona, United States

Feed Status: UP
Listen in your browser - HTML5 player(in browser, HTML5)
Click here to listen with your own player(launches your MP3 player)

KCGZ 241756Z AUTO 28010KT 10SM -RA FEW017 SCT022 BKN042 08/05 A2988 RMK AO2 RAB04 SLP117 P0008 6//// T00780050 10106 20078 53013

KCGZ Airport Info (Airnav.com)

KCGZ Flight Activity (Flightaware)

Listeners: 0 out of 1520 total

Casa Grande AWOS: 132.175

KCGZ CTAF (Archives)
Casa Grande, Arizona, United States

Feed Status: UP
Listen in your browser - HTML5 player(in browser, HTML5)
Click here to listen with your own player(launches your MP3 player)

KCGZ 241756Z AUTO 28010KT 10SM -RA FEW017 SCT022 BKN042 08/05 A2988 RMK AO2 RAB04 SLP117 P0008 6//// T00780050 10106 20078 53013

KCGZ Airport Info (Airnav.com)

KCGZ Flight Activity (Flightaware)

Listeners: 0 out of 1520 total

Casa Grande CTAF: 122.700

KCGZ SE/SW Practice Area (Archives)
Casa Grande, Arizona, United States

Feed Status: UP
Listen in your browser - HTML5 player(in browser, HTML5)
Click here to listen with your own player(launches your MP3 player)

KCGZ 241756Z AUTO 28010KT 10SM -RA FEW017 SCT022 BKN042 08/05 A2988 RMK AO2 RAB04 SLP117 P0008 6//// T00780050 10106 20078 53013

KCGZ Airport Info (Airnav.com)

KCGZ Flight Activity (Flightaware)

Listeners: 0 out of 1520 total

Casa Grande SE Practice Area: 122.850

KCHD Tower (North)
Chandler, Arizona, United States

Feed Status: DOWN
Offline since: 2020-12-11 21:32:21 UTC

KCHD 241647Z 18011KT 10SM SCT025 BKN030 10/06 A2986 RA

KCHD Airport Info (Airnav.com)

Chandler Tower (North): 126.100

KCHD Tower (South) (Archives)
Chandler, Arizona, United States

Feed Status: UP
Listen in your browser - HTML5 player(in browser, HTML5)
Click here to listen with your own player(launches your MP3 player)

KCHD 241647Z 18011KT 10SM SCT025 BKN030 10/06 A2986 RA

KCHD Airport Info (Airnav.com)

KCHD Flight Activity (Flightaware)

Listeners: 0 out of 1520 total

Chandler Tower (South): 133.100

KCHK CTAF (Archives)
Chickasha, Oklahoma, United States

Feed Status: UP
Listen in your browser - HTML5 player(in browser, HTML5)
Click here to listen with your own player(launches your MP3 player)

KCHK 241735Z AUTO 01014KT 5SM BR OVC008 08/07 A2996 RMK AO2 T00760066

KCHK Airport Info (Airnav.com)

KCHK Flight Activity (Flightaware)

Listeners: 0 out of 1520 total

Chickasha CTAF: 123.000

KCHO Tower (Archives)
Charlottesville, Virginia, United States

Feed Status: UP
Listen in your browser - HTML5 player(in browser, HTML5)
Click here to listen with your own player(launches your MP3 player)

KCHO 241753Z 14004KT 10SM OVC100 04/M11 A3023 RMK AO2 SLP240 T00391111 10039 21033 58016

KCHO Airport Info (Airnav.com)

KCHO Flight Activity (Flightaware)

Listeners: 0 out of 1520 total

Charlottesville Tower: 124.500

KCHO Tower/App (Archives)
Charlottesville, Virginia, United States

Feed Status: UP
Listen in your browser - HTML5 player(in browser, HTML5)
Click here to listen with your own player(launches your MP3 player)

KCHO 241753Z 14004KT 10SM OVC100 04/M11 A3023 RMK AO2 SLP240 T00391111 10039 21033 58016

KCHO Airport Info (Airnav.com)

KCHO Flight Activity (Flightaware)

Listeners: 1 out of 1520 total

Charlottesville Tower: 124.500
Potomac Approach/Departure: 132.850

KCIC Tower/ZOA42 (Archives)
Chico, California, United States

Feed Status: UP
Listen in your browser - HTML5 player(in browser, HTML5)
Click here to listen with your own player(launches your MP3 player)

KCIC 241748Z 15013KT 10SM SCT120 BKN150 09/02 A2992

KCIC Airport Info (Airnav.com)

KCIC Flight Activity (Flightaware)

Listeners: 1 out of 1520 total

Chico CTAF/Tower: 121.000
Oakland Center (Sector 42 Low): 132.200

KCID Gnd/Twr/App/KIOW (Archives)
Cedar Rapids, Iowa, United States

Feed Status: UP
Listen in your browser - HTML5 player(in browser, HTML5)
Click here to listen with your own player(launches your MP3 player)

KCID 241752Z 34008KT 6SM HZ BKN048 OVC100 M01/M04 A3004 RMK AO2 SLP183 T10111039 11011 21039 50002

KCID Airport Info (Airnav.com)

KCID Flight Activity (Flightaware)

Listeners: 0 out of 1520 total

Cedar Rapids Approach (091-269): 119.700
Cedar Rapids Approach (270-090): 134.050
Cedar Rapids Clearance Delivery: 125.450
Cedar Rapids Ground (0500-2330): 121.600
Cedar Rapids Tower (0500-2330): 118.700
UNICOM C17 (Marion) and surrounding area: 122.700
UNICOM IA24 Green Castle: 122.900
UNICOM KIOW (Iowa City) and surrounding area: 122.800

KCIU CTAF (Air Race Classic)
Sault Ste Marie, Michigan, United States

Feed Status: DOWN
Offline since: 2019-06-24 17:12:02 UTC

Chippewa CTAF: 123.000

KCKB App/Dep (Archives)
Clarksburg, West Virginia, United States

Feed Status: UP
Listen in your browser - HTML5 player(in browser, HTML5)
Click here to listen with your own player(launches your MP3 player)

KCKB 241753Z 08003KT 10SM SCT055 OVC080 00/M09 A3014 RMK AO2 SLP215 T00001094 10000 21083 58033

KCKB Airport Info (Airnav.com)

KCKB Flight Activity (Flightaware)

Listeners: 1 out of 1520 total

Clarksburg Approach (East): 121.150
Clarksburg Approach (West): 119.600

KCKB App/Dep (East) (Archives)
Clarksburg, West Virginia, United States

Feed Status: UP
Listen in your browser - HTML5 player(in browser, HTML5)
Click here to listen with your own player(launches your MP3 player)

KCKB 241753Z 08003KT 10SM SCT055 OVC080 00/M09 A3014 RMK AO2 SLP215 T00001094 10000 21083 58033

KCKB Airport Info (Airnav.com)

KCKB Flight Activity (Flightaware)

Listeners: 0 out of 1520 total

Clarksburg Approach (East): 121.150

KCKB App/Dep (West) (Archives)
Clarksburg, West Virginia, United States

Feed Status: UP
Listen in your browser - HTML5 player(in browser, HTML5)
Click here to listen with your own player(launches your MP3 player)

KCKB 241753Z 08003KT 10SM SCT055 OVC080 00/M09 A3014 RMK AO2 SLP215 T00001094 10000 21083 58033

KCKB Airport Info (Airnav.com)

KCKB Flight Activity (Flightaware)

Listeners: 0 out of 1520 total

Clarksburg Approach (West): 119.600

KCKB Emergency/Guard (Archives)
Clarksburg, West Virginia, United States

Feed Status: UP
Listen in your browser - HTML5 player(in browser, HTML5)
Click here to listen with your own player(launches your MP3 player)

KCKB 241753Z 08003KT 10SM SCT055 OVC080 00/M09 A3014 RMK AO2 SLP215 T00001094 10000 21083 58033

KCKB Airport Info (Airnav.com)

KCKB Flight Activity (Flightaware)

Listeners: 0 out of 1520 total

Emergency/Guard: 121.500

KCKB Ground (Archives)
Clarksburg, West Virginia, United States

Feed Status: UP
Listen in your browser - HTML5 player(in browser, HTML5)
Click here to listen with your own player(launches your MP3 player)

KCKB 241753Z 08003KT 10SM SCT055 OVC080 00/M09 A3014 RMK AO2 SLP215 T00001094 10000 21083 58033

KCKB Airport Info (Airnav.com)

KCKB Flight Activity (Flightaware)

Listeners: 0 out of 1520 total

Clarksburg Ground: 121.900

KCKB Ground/Tower (Archives)
Clarksburg, West Virginia, United States

Feed Status: UP
Listen in your browser - HTML5 player(in browser, HTML5)
Click here to listen with your own player(launches your MP3 player)

KCKB 241753Z 08003KT 10SM SCT055 OVC080 00/M09 A3014 RMK AO2 SLP215 T00001094 10000 21083 58033

KCKB Airport Info (Airnav.com)

KCKB Flight Activity (Flightaware)

Listeners: 0 out of 1520 total

Clarksburg Ground: 121.900
Clarksburg Tower: 126.700

KCKB Tower (Archives)
Clarksburg, West Virginia, United States

Feed Status: UP
Listen in your browser - HTML5 player(in browser, HTML5)
Click here to listen with your own player(launches your MP3 player)

KCKB 241753Z 08003KT 10SM SCT055 OVC080 00/M09 A3014 RMK AO2 SLP215 T00001094 10000 21083 58033

KCKB Airport Info (Airnav.com)

KCKB Flight Activity (Flightaware)

Listeners: 0 out of 1520 total

Clarksburg Tower: 126.700

KCLM Del/CTAF/App (Archives)
Port Angeles, Washington, United States

Feed Status: UP
Listen in your browser - HTML5 player(in browser, HTML5)
Click here to listen with your own player(launches your MP3 player)

KCLM 241753Z AUTO 28005KT 10SM OVC070 03/01 A2969 RMK AO2 SLP057 T00330011 10033 20017 56017

KCLM Airport Info (Airnav.com)

KCLM Flight Activity (Flightaware)

Listeners: 0 out of 1520 total

Clearance Delivery: 124.150
Fairchild CTAF: 122.975
Seattle Radio (Port Angeles RCO): 122.600
Whidbey Approach: 118.200

KCMA ATIS (Archives)
Camarillo, California, United States

Feed Status: UP
Listen in your browser - HTML5 player(in browser, HTML5)
Click here to listen with your own player(launches your MP3 player)

KCMA 241755Z 00000KT 10SM CLR 13/04 A2994 RMK AO2 SLP147 6//// T01280044 10128 20033 53008 PNO $

KCMA Airport Info (Airnav.com)

KCMA Flight Activity (Flightaware)

Listeners: 0 out of 1520 total

Camarillo ATIS: 126.025

KCMA Gnd/Twr/App (Archives)
Camarillo, California, United States

Feed Status: UP
Listen in your browser - HTML5 player(in browser, HTML5)
Click here to listen with your own player(launches your MP3 player)

KCMA 241755Z 00000KT 10SM CLR 13/04 A2994 RMK AO2 SLP147 6//// T01280044 10128 20033 53008 PNO $

KCMA Airport Info (Airnav.com)

KCMA Flight Activity (Flightaware)

Listeners: 2 out of 1520 total

Camarillo Ground: 121.800
Camarillo Tower: 128.200
Point Mugu Approach: 124.700

KWDR/KCVC/KCNI CTAF (Archives)
Canton, Georgia, United States

Feed Status: UP
Listen in your browser - HTML5 player(in browser, HTML5)
Click here to listen with your own player(launches your MP3 player)

KWDR 241755Z AUTO 12004KT 10SM BKN032 10/M06 A3023 RMK AO2

KWDR Airport Info (Airnav.com)

KWDR Flight Activity (Flightaware)

Listeners: 0 out of 1520 total

KWDR/KCVC/KCNI CTAF: 123.000

KCNO Ground (Archives)
Chino, California, United States

Feed Status: UP
Listen in your browser - HTML5 player(in browser, HTML5)
Click here to listen with your own player(launches your MP3 player)

KCNO 241753Z 13003KT 4SM HZ OVC005 09/06 A2996 RMK AO2 SLP145 T00890061 10089 20050 51012 $

KCNO Airport Info (Airnav.com)

KCNO Flight Activity (Flightaware)

Listeners: 1 out of 1520 total

Chino Ground: 121.600

KCNO Ground/Tower (Archives)
Chino, California, United States

Feed Status: UP
Listen in your browser - HTML5 player(in browser, HTML5)
Click here to listen with your own player(launches your MP3 player)

KCNO 241753Z 13003KT 4SM HZ OVC005 09/06 A2996 RMK AO2 SLP145 T00890061 10089 20050 51012 $

KCNO Airport Info (Airnav.com)

KCNO Flight Activity (Flightaware)

Listeners: 0 out of 1520 total

Chino Ground: 121.600
Chino Tower: 118.500

KCNO Tower (Archives)
Chino, California, United States

Feed Status: UP
Listen in your browser - HTML5 player(in browser, HTML5)
Click here to listen with your own player(launches your MP3 player)

KCNO 241753Z 13003KT 4SM HZ OVC005 09/06 A2996 RMK AO2 SLP145 T00890061 10089 20050 51012 $

KCNO Airport Info (Airnav.com)

KCNO Flight Activity (Flightaware)

Listeners: 0 out of 1520 total

Chino Tower: 118.500

KCON/KFIT CTAF (Archives)
Concord, New Hampshire, United States

Feed Status: UP
Listen in your browser - HTML5 player(in browser, HTML5)
Click here to listen with your own player(launches your MP3 player)

KMHT 241753Z 30013G24KT 10SM CLR M02/M17 A2988 RMK AO2 PK WND 33035/1722 SLP141 T10221167 11022 21083 56016

KMHT Airport Info (Airnav.com)

KMHT Flight Activity (Flightaware)

Listeners: 1 out of 1520 total

Concord NH/Fitchburg MA CTAF: 122.700

MA/NH/RI/CT Area CTAF (Archives)
Concord, New Hampshire, United States

Feed Status: UP
Listen in your browser - HTML5 player(in browser, HTML5)
Click here to listen with your own player(launches your MP3 player)

KBOS 241754Z 30020G32KT 10SM FEW250 M02/M18 A2988 RMK AO2 PK WND 29034/1716 SLP117 T10171178 11017 21078 58024 $

KBOS Airport Info (Airnav.com)

KBOS Flight Activity (Flightaware)

Listeners: 1 out of 1520 total

Air-to-Air: 122.750
Bridgeport Flight Service: 122.200
CTAF: 122.700
CTAF: 122.800
CTAF: 122.900
CTAF: 123.000
Emergency/Guard: 121.500

MA/NH/RI/CT Area CTAF (Archives)
Concord, New Hampshire, United States

Feed Status: UP
Listen in your browser - HTML5 player(in browser, HTML5)
Click here to listen with your own player(launches your MP3 player)

KBOS 241754Z 30020G32KT 10SM FEW250 M02/M18 A2988 RMK AO2 PK WND 29034/1716 SLP117 T10171178 11017 21078 58024 $

KBOS Airport Info (Airnav.com)

KBOS Flight Activity (Flightaware)

Listeners: 1 out of 1520 total

Air-to-Air: 122.750
Bridgeport Flight Service: 122.200
CTAF: 122.700
CTAF: 122.800
CTAF: 122.900
CTAF: 123.000
Emergency/Guard: 121.500

MA/NH/RI/CT Area CTAF (Archives)
Concord, New Hampshire, United States

Feed Status: UP
Listen in your browser - HTML5 player(in browser, HTML5)
Click here to listen with your own player(launches your MP3 player)

KBOS 241754Z 30020G32KT 10SM FEW250 M02/M18 A2988 RMK AO2 PK WND 29034/1716 SLP117 T10171178 11017 21078 58024 $

KBOS Airport Info (Airnav.com)

KBOS Flight Activity (Flightaware)

Listeners: 1 out of 1520 total

Air-to-Air: 122.750
Bridgeport Flight Service: 122.200
CTAF: 122.700
CTAF: 122.800
CTAF: 122.900
CTAF: 123.000
Emergency/Guard: 121.500

KCOU CTAF/Gnd/App (Archives)
Columbia, Missouri, United States

Feed Status: UP
Listen in your browser - HTML5 player(in browser, HTML5)
Click here to listen with your own player(launches your MP3 player)

KCOU 241754Z 33004KT 4SM BR OVC004 03/02 A3003 RMK AO2 SLP174 T00330022 10033 20011 50006

KCOU Airport Info (Airnav.com)

KCOU Flight Activity (Flightaware)

Listeners: 1 out of 1520 total

Columbia CTAF: 119.300
Columbia Ground: 121.600
Columbia UNICOM: 122.950
Mizzou Approach/Departure: 124.375

KCPM CTAF (Archives)
Compton, California, United States

Feed Status: UP
Listen in your browser - HTML5 player(in browser, HTML5)
Click here to listen with your own player(launches your MP3 player)

KCPM Airport Info (Airnav.com)

KCPM Flight Activity (Flightaware)

Listeners: 0 out of 1520 total

Compton CTAF: 123.050

KCPR Tower/App (Archives)
Casper, Wyoming, United States

Feed Status: UP
Listen in your browser - HTML5 player(in browser, HTML5)
Click here to listen with your own player(launches your MP3 player)

KCPR 241753Z 21016KT 10SM CLR M04/M08 A2970 RMK AO2 SLP109 I6000 T10441078 11044 21139 56005

KCPR Airport Info (Airnav.com)

KCPR Flight Activity (Flightaware)

Listeners: 0 out of 1520 total

Casper Approach: 120.650
Casper Tower: 118.300

KCPS Del/Gnd/Twr/App (Archives)
Cahokia/St Louis, Illinois, United States

Feed Status: UP
Listen in your browser - HTML5 player(in browser, HTML5)
Click here to listen with your own player(launches your MP3 player)

KCPS 241753Z 01003KT 10SM OVC045 04/01 A3006 RMK AO2 SLP181 T00390011 10039 20006 58002

KCPS Airport Info (Airnav.com)

KCPS Flight Activity (Flightaware)

Listeners: 1 out of 1520 total

Downtown Clearance Delivery: 118.275
Downtown Ground: 121.800
Downtown Tower: 119.925
St. Louis Approach/Departure: 123.700

KCQF CTAF/Misc (Archives)
Fairhope, Alabama, United States

Feed Status: UP
Listen in your browser - HTML5 player(in browser, HTML5)
Click here to listen with your own player(launches your MP3 player)

KCQF 241755Z AUTO 12008KT 10SM OVC009 18/16 A3011 RMK AO2

KCQF Airport Info (Airnav.com)

KCQF Flight Activity (Flightaware)

Listeners: 0 out of 1520 total

Emergency/Guard: 121.500
Fairhope CTAF: 123.000

5B6/KCQX/KPVC CTAF (Archives)
Chatham, Massachusetts, United States

Feed Status: UP
Listen in your browser - HTML5 player(in browser, HTML5)
Click here to listen with your own player(launches your MP3 player)

KHYA 241756Z 28017G25KT 10SM CLR 00/M18 A2983 RMK AO2 PK WND 29030/1726 SLP103 T00001178 10006 21067 56023

KHYA Airport Info (Airnav.com)

KHYA Flight Activity (Flightaware)

Listeners: 0 out of 1520 total

Falmouth/Chatham/Provincetown CTAF: 122.800

KCRE Ground/Tower (Archives)
North Myrtle Beach, South Carolina, United States

Feed Status: UP
Listen in your browser - HTML5 player(in browser, HTML5)
Click here to listen with your own player(launches your MP3 player)

KCRE 241753Z 11006KT 10SM CLR 09/01 A3028 RMK AO1 SLP253 T00940006 10094 20011 58020

KCRE Airport Info (Airnav.com)

KCRE Flight Activity (Flightaware)

Listeners: 0 out of 1520 total

Strand Ground: 121.800
Strand Tower: 124.600

KCRG Gnd/Twr/App (Archives)
Jacksonville, Florida, United States

Feed Status: UP
Listen in your browser - HTML5 player(in browser, HTML5)
Click here to listen with your own player(launches your MP3 player)

KCRG 241753Z 13008KT 10SM FEW027 BKN039 OVC048 22/15 A3016 RMK AO2 SLP212 T02170150 10217 20156 58022

KCRG Airport Info (Airnav.com)

KCRG Flight Activity (Flightaware)

Listeners: 0 out of 1520 total

Craig Clearance: 118.350
Craig Ground: 121.800
Craig Tower: 132.100
Jacksonville Approach: 118.000
Jacksonville Approach: 124.900

KCRQ Tower (Archives)
Carlsbad, California, United States

Feed Status: UP
Listen in your browser - HTML5 player(in browser, HTML5)
Click here to listen with your own player(launches your MP3 player)

KCRQ 241753Z AUTO 13004KT 10SM CLR 11/06 A2995 RMK AO2 SLP141 T01060061 10106 20056 51015

KCRQ Airport Info (Airnav.com)

KCRQ Flight Activity (Flightaware)

Listeners: 5 out of 1520 total

Palomar Tower: 118.600

KCTJ/KLGC CTAF (Archives)
Carrollton, Georgia, United States

Feed Status: UP
Listen in your browser - HTML5 player(in browser, HTML5)
Click here to listen with your own player(launches your MP3 player)

KCCO 241735Z AUTO 15008KT 10SM BKN024 15/02 A3018 RMK AO2 T01500022

KCCO Airport Info (Airnav.com)

KCCO Flight Activity (Flightaware)

Listeners: 0 out of 1520 total

KCTJ/KLGC CTAF: 122.975

51FL/KCDK/KCTY/X60 CTAF
Cross City, Florida, United States

Feed Status: DOWN
Offline since: 2020-09-10 03:08:21 UTC

Cedar Key CTAF: 122.900
Cross City CTAF: 122.800
Emergency/Guard: 121.500
Jacksonville Approach/Departure: 118.600
Jacksonville Center: 127.800
Williston CTAF: 122.975

KCUB CTAF (Archives)
Columbia, South Carolina, United States

Feed Status: UP
Listen in your browser - HTML5 player(in browser, HTML5)
Click here to listen with your own player(launches your MP3 player)

KCUB 241753Z AUTO 18004KT 10SM CLR 12/M07 A3026 RMK AO2 SLP246 T01171072 10122 20017 58020

KCUB Airport Info (Airnav.com)

KCUB Flight Activity (Flightaware)

Listeners: 0 out of 1520 total

Columbia CTAF: 123.075

KWDR/KCVC/KCNI CTAF (Archives)
Atlanta, Georgia, United States

Feed Status: UP
Listen in your browser - HTML5 player(in browser, HTML5)
Click here to listen with your own player(launches your MP3 player)

KWDR 241755Z AUTO 12004KT 10SM BKN032 10/M06 A3023 RMK AO2

KWDR Airport Info (Airnav.com)

KWDR Flight Activity (Flightaware)

Listeners: 0 out of 1520 total

KWDR/KCVC/KCNI CTAF: 123.000

KCVO CTAF/Misc (Archives)
Corvallis, Oregon, United States

Feed Status: UP
Listen in your browser - HTML5 player(in browser, HTML5)
Click here to listen with your own player(launches your MP3 player)

KCVO 241756Z AUTO 16012KT 10SM -RA BKN029 OVC035 03/02 A2982 RMK AO2 SLP101 P0002 60006 T00280022 10028 20028 56014

KCVO Airport Info (Airnav.com)

KCVO Flight Activity (Flightaware)

Listeners: 1 out of 1520 total

Cascade Approach: 127.500
Cascade Approach: 119.600
Corvallis CTAF: 123.075
Seattle Center (Sector 6 Low): 125.800

KCXY Ground (Archives)
Harrisburg, Pennsylvania, United States

Feed Status: UP
Listen in your browser - HTML5 player(in browser, HTML5)
Click here to listen with your own player(launches your MP3 player)

KMDT 241756Z 29008KT 10SM BKN110 BKN250 M01/M13 A3024 RMK AO2 SLP244 T10061133 10000 21050 58017

KMDT Airport Info (Airnav.com)

KMDT Flight Activity (Flightaware)

Listeners: 0 out of 1520 total

Capital City Ground: 121.900

KCXY Ground/Tower (Archives)
Harrisburg, Pennsylvania, United States

Feed Status: UP
Listen in your browser - HTML5 player(in browser, HTML5)
Click here to listen with your own player(launches your MP3 player)

KMDT 241756Z 29008KT 10SM BKN110 BKN250 M01/M13 A3024 RMK AO2 SLP244 T10061133 10000 21050 58017

KMDT Airport Info (Airnav.com)

KMDT Flight Activity (Flightaware)

Listeners: 0 out of 1520 total

Capital City Ground: 121.900
Capital City Tower: 119.500

KCXY Tower (Archives)
Harrisburg, Pennsylvania, United States

Feed Status: UP
Listen in your browser - HTML5 player(in browser, HTML5)
Click here to listen with your own player(launches your MP3 player)

KMDT 241756Z 29008KT 10SM BKN110 BKN250 M01/M13 A3024 RMK AO2 SLP244 T10061133 10000 21050 58017

KMDT Airport Info (Airnav.com)

KMDT Flight Activity (Flightaware)

Listeners: 0 out of 1520 total

Capital City Tower: 119.500

KCYS Gnd/Twr/App/Center (Archives)
Cheyenne, Wyoming, United States

Feed Status: UP
Listen in your browser - HTML5 player(in browser, HTML5)
Click here to listen with your own player(launches your MP3 player)

KCYS 241753Z 21015KT 8SM OVC004 M07/M07 A2978 RMK AO2 SLP141 T10671072 11061 21072 58009

KCYS Airport Info (Airnav.com)

KCYS Flight Activity (Flightaware)

Listeners: 1 out of 1520 total

Cheyenne Approach: 124.550
Cheyenne Ground: 121.900
Cheyenne Tower: 118.700
Denver Center (Sector 21 Cheyenne Low): 125.900
Emergency/Guard: 121.500

KDAA/KADW Tower (Archives)
Fort Belvoir, Virginia, United States

Feed Status: UP
Listen in your browser - HTML5 player(in browser, HTML5)
Click here to listen with your own player(launches your MP3 player)

KDAA 201856Z AUTO 31020G28KT 10SM CLR 06/M07 A3006 RMK AO2 PK WND 29030/1759 SLP183 T00641069 $

KDAA Airport Info (Airnav.com)

KDAA Flight Activity (Flightaware)

Listeners: 0 out of 1520 total

Andrews Tower: 118.400
Andrews Tower: 349.000
Davison Tower: 241.000
Davison Tower: 126.300
Davison Tower: 229.400

KDBQ ATIS (Archives)
Dubuque, Iowa, United States

Feed Status: UP
Listen in your browser - HTML5 player(in browser, HTML5)
Click here to listen with your own player(launches your MP3 player)

KDBQ 241753Z 33009KT 7SM OVC011 M02/M04 A3004 RMK AO2 SLP185 60001 T10171044 11011 21039 58004

KDBQ Airport Info (Airnav.com)

KDBQ Flight Activity (Flightaware)

Listeners: 0 out of 1520 total

Dubuque ATIS: 127.250

KDBQ Ground (Archives)
Dubuque, Iowa, United States

Feed Status: UP
Listen in your browser - HTML5 player(in browser, HTML5)
Click here to listen with your own player(launches your MP3 player)

KDBQ 241753Z 33009KT 7SM OVC011 M02/M04 A3004 RMK AO2 SLP185 60001 T10171044 11011 21039 58004

KDBQ Airport Info (Airnav.com)

KDBQ Flight Activity (Flightaware)

Listeners: 0 out of 1520 total

Dubuque Ground: 121.800

KDBQ Ground/Tower (Archives)
Dubuque, Iowa, United States

Feed Status: UP
Listen in your browser - HTML5 player(in browser, HTML5)
Click here to listen with your own player(launches your MP3 player)

KDBQ 241753Z 33009KT 7SM OVC011 M02/M04 A3004 RMK AO2 SLP185 60001 T10171044 11011 21039 58004

KDBQ Airport Info (Airnav.com)

KDBQ Flight Activity (Flightaware)

Listeners: 0 out of 1520 total

Dubuque Ground: 121.800
Dubuque Tower: 119.500

KDBQ Guard (Archives)
Dubuque, Iowa, United States

Feed Status: UP
Listen in your browser - HTML5 player(in browser, HTML5)
Click here to listen with your own player(launches your MP3 player)

KDBQ 241753Z 33009KT 7SM OVC011 M02/M04 A3004 RMK AO2 SLP185 60001 T10171044 11011 21039 58004

KDBQ Airport Info (Airnav.com)

KDBQ Flight Activity (Flightaware)

Listeners: 0 out of 1520 total

Emergency/Guard: 121.500

KDBQ Tower (Archives)
Dubuque, Iowa, United States

Feed Status: UP
Listen in your browser - HTML5 player(in browser, HTML5)
Click here to listen with your own player(launches your MP3 player)

KDBQ 241753Z 33009KT 7SM OVC011 M02/M04 A3004 RMK AO2 SLP185 60001 T10171044 11011 21039 58004

KDBQ Airport Info (Airnav.com)

KDBQ Flight Activity (Flightaware)

Listeners: 0 out of 1520 total

Dubuque Tower: 119.500

KDED CTAF/Misc (Archives)
DeLand, Florida, United States

Feed Status: UP
Listen in your browser - HTML5 player(in browser, HTML5)
Click here to listen with your own player(launches your MP3 player)

KDED 241735Z AUTO 07010KT 10SM SCT020 BKN033 OVC060 23/17 A3016 RMK AO2 T02340172

KDED Airport Info (Airnav.com)

KDED Flight Activity (Flightaware)

Listeners: 0 out of 1520 total

DeLand CTAF/UNICOM: 123.075
Skydive DeLand: 122.850

KDED/1J6 CTAF/UNICOM (Archives)
DeLand, Florida, United States

Feed Status: UP
Listen in your browser - HTML5 player(in browser, HTML5)
Click here to listen with your own player(launches your MP3 player)

KDED 241735Z AUTO 07010KT 10SM SCT020 BKN033 OVC060 23/17 A3016 RMK AO2 T02340172

KDED Airport Info (Airnav.com)

KDED Flight Activity (Flightaware)

Listeners: 0 out of 1520 total

DeLand CTAF/UNICOM: 123.075

Regional Approach (Feeder 2/East)
Dallas, Texas, United States

Feed Status: DOWN
Offline since: 2020-03-29 19:10:05 UTC

KRBD Airport Info (Airnav.com)

Regional Approach (Feeder 2/East): 133.525

KDLH Gnd/Twr/App (Archives)
Duluth, Minnesota, United States

Feed Status: UP
Listen in your browser - HTML5 player(in browser, HTML5)
Click here to listen with your own player(launches your MP3 player)

KDLH 241755Z 30011G21KT 10SM CLR M09/M19 A3002 RMK AO2 PK WND 28026/1740 SLP198 60000 T10891194 11083 21117 51010

KDLH Airport Info (Airnav.com)

KDLH Flight Activity (Flightaware)

Listeners: 0 out of 1520 total

Duluth Approach/Departure: 125.450
Duluth Ground: 121.900
Duluth Tower: 118.300

KDOV App/Dep
Dover, Delaware, United States

Feed Status: DOWN
Offline since: 2021-01-20 10:36:39 UTC

KDOV 201856Z AUTO 29020G30KT 10SM CLR 06/M10 A2998 RMK AO2 PK WND 27031/04 SLP156 T00581105 $

KDOV Airport Info (Airnav.com)

Dover Approach/Departure: 132.425

KDOV ATIS (Archives)
Dover, Delaware, United States

Feed Status: UP
Listen in your browser - HTML5 player(in browser, HTML5)
Click here to listen with your own player(launches your MP3 player)

KDOV 201856Z AUTO 29020G30KT 10SM CLR 06/M10 A2998 RMK AO2 PK WND 27031/04 SLP156 T00581105 $

KDOV Airport Info (Airnav.com)

KDOV Flight Activity (Flightaware)

Listeners: 0 out of 1520 total

Dover ATIS: 127.825

KDOV Del/Gnd/Twr
Dover, Delaware, United States

Feed Status: DOWN
Offline since: 2021-01-20 10:33:22 UTC

KDOV 201856Z AUTO 29020G30KT 10SM CLR 06/M10 A2998 RMK AO2 PK WND 27031/04 SLP156 T00581105 $

KDOV Airport Info (Airnav.com)

Dover Clearance Delivery: 118.050
Dover Clearance Delivery: 125.550
Dover Ground: 118.875
Dover Tower: 126.350

KDOV Gnd/App (Archives)
Dover, Delaware, United States

Feed Status: UP
Listen in your browser - HTML5 player(in browser, HTML5)
Click here to listen with your own player(launches your MP3 player)

KDOV 201856Z AUTO 29020G30KT 10SM CLR 06/M10 A2998 RMK AO2 PK WND 27031/04 SLP156 T00581105 $

KDOV Airport Info (Airnav.com)

KDOV Flight Activity (Flightaware)

Listeners: 0 out of 1520 total

Dover Approach/Departure: 132.425
Dover Ground: 118.875

KDOV Tower (Archives)
Dover, Delaware, United States

Feed Status: UP
Listen in your browser - HTML5 player(in browser, HTML5)
Click here to listen with your own player(launches your MP3 player)

KDOV 201856Z AUTO 29020G30KT 10SM CLR 06/M10 A2998 RMK AO2 PK WND 27031/04 SLP156 T00581105 $

KDOV Airport Info (Airnav.com)

KDOV Flight Activity (Flightaware)

Listeners: 0 out of 1520 total

Dover Tower: 126.350

KDPA ATIS (Archives)
Chicago, Illinois, United States

Feed Status: UP
Listen in your browser - HTML5 player(in browser, HTML5)
Click here to listen with your own player(launches your MP3 player)

KDPA 241752Z 18006KT 9SM OVC024 M01/M04 A3004 RMK AO2 SLP183 60000 I6002 T10111044 11011 21033 58010

KDPA Airport Info (Airnav.com)

KDPA Flight Activity (Flightaware)

Listeners: 1 out of 1520 total

DuPage ATIS: 132.075

KDPA Chicago Approach (Archives)
Chicago, Illinois, United States

Feed Status: UP
Listen in your browser - HTML5 player(in browser, HTML5)
Click here to listen with your own player(launches your MP3 player)

KORD 241751Z 22006KT 10SM FEW012 BKN030 OVC065 M01/M04 A3005 RMK AO2 SLP183 60001 T10111039 11006 21028 58010

KORD Airport Info (Airnav.com)

KORD Flight Activity (Flightaware)

Listeners: 0 out of 1520 total

Chicago Approach/Departure: 133.500

KDPA Del/Gnd/Twr/Misc (Archives)
Chicago, Illinois, United States

Feed Status: UP
Listen in your browser - HTML5 player(in browser, HTML5)
Click here to listen with your own player(launches your MP3 player)

KDPA 241752Z 18006KT 9SM OVC024 M01/M04 A3004 RMK AO2 SLP183 60000 I6002 T10111044 11011 21033 58010

KDPA Airport Info (Airnav.com)

KDPA Flight Activity (Flightaware)

Listeners: 0 out of 1520 total

DuPage Clearance Delivery: 119.750
DuPage Flight Center (FBO): 464.375
DuPage Ground: 121.800
DuPage Ground Operations: 469.5875
DuPage Ground Operations: 453.225
DuPage Ground Operations (Airport Authority): 453.500
DuPage Tower: 120.900
DuPage UNICOM ("Flight Center"): 122.950
Flight Service Station (FSS) RCO: 122.550

KDTO ASOS (Archives)
Denton, Texas, United States

Feed Status: UP
Listen in your browser - HTML5 player(in browser, HTML5)
Click here to listen with your own player(launches your MP3 player)

KDTO 241753Z 07003KT 2SM BR OVC002 12/12 A2997 RMK AO2 SLP144 T01220117 10122 20111 58006

KDTO Airport Info (Airnav.com)

KDTO Flight Activity (Flightaware)

Listeners: 0 out of 1520 total

Denton ASOS: 119.325

KDTO Gnd/Twr (Archives)
Denton, Texas, United States

Feed Status: UP
Listen in your browser - HTML5 player(in browser, HTML5)
Click here to listen with your own player(launches your MP3 player)

KDTO 241753Z 07003KT 2SM BR OVC002 12/12 A2997 RMK AO2 SLP144 T01220117 10122 20111 58006

KDTO Airport Info (Airnav.com)

KDTO Flight Activity (Flightaware)

Listeners: 0 out of 1520 total

Denton Ground: 123.950
Denton Tower: 119.950

KDTO Tower (Archives)
Denton, Texas, United States

Feed Status: UP
Listen in your browser - HTML5 player(in browser, HTML5)
Click here to listen with your own player(launches your MP3 player)

KDTO 241753Z 07003KT 2SM BR OVC002 12/12 A2997 RMK AO2 SLP144 T01220117 10122 20111 58006

KDTO Airport Info (Airnav.com)

KDTO Flight Activity (Flightaware)

Listeners: 0 out of 1520 total

Denton Tower: 119.950

KDVO CTAF (Archives)
Novato, California, United States

Feed Status: UP
Listen in your browser - HTML5 player(in browser, HTML5)
Click here to listen with your own player(launches your MP3 player)

KDVO 241735Z AUTO 34006KT 7SM FEW002 SCT022 SCT110 05/04 A2992 RMK AO2

KDVO Airport Info (Airnav.com)

KDVO Flight Activity (Flightaware)

Listeners: 0 out of 1520 total

Novato CTAF: 123.075

KDVT ATIS (Archives)
Phoenix, Arizona, United States

Feed Status: UP
Listen in your browser - HTML5 player(in browser, HTML5)
Click here to listen with your own player(launches your MP3 player)

KDVT 241753Z 14003KT 10SM SCT050 BKN080 OVC100 09/07 A2985 RMK AO2 SLP100 60016 T00890072 10089 20067 51010

KDVT Airport Info (Airnav.com)

KDVT Flight Activity (Flightaware)

Listeners: 0 out of 1520 total

Deer Valley ATIS: 126.500

KDVT Clearance Delivery (Archives)
Phoenix, Arizona, United States

Feed Status: UP
Listen in your browser - HTML5 player(in browser, HTML5)
Click here to listen with your own player(launches your MP3 player)

KDVT 241753Z 14003KT 10SM SCT050 BKN080 OVC100 09/07 A2985 RMK AO2 SLP100 60016 T00890072 10089 20067 51010

KDVT Airport Info (Airnav.com)

KDVT Flight Activity (Flightaware)

Listeners: 0 out of 1506 total

Deer Valley Clearance Delivery: 123.900

KDVT Delivery/Ground (Archives)
Phoenix, Arizona, United States

Feed Status: UP
Listen in your browser - HTML5 player(in browser, HTML5)
Click here to listen with your own player(launches your MP3 player)

KDVT 241753Z 14003KT 10SM SCT050 BKN080 OVC100 09/07 A2985 RMK AO2 SLP100 60016 T00890072 10089 20067 51010

KDVT Airport Info (Airnav.com)

KDVT Flight Activity (Flightaware)

Listeners: 0 out of 1506 total

Deer Valley Clearance Delivery: 123.900
Deer Valley Ground: 121.800

KDVT Ground (Archives)
Phoenix, Arizona, United States

Feed Status: UP
Listen in your browser - HTML5 player(in browser, HTML5)
Click here to listen with your own player(launches your MP3 player)

KDVT 241753Z 14003KT 10SM SCT050 BKN080 OVC100 09/07 A2985 RMK AO2 SLP100 60016 T00890072 10089 20067 51010

KDVT Airport Info (Airnav.com)

KDVT Flight Activity (Flightaware)

Listeners: 0 out of 1506 total

Deer Valley Ground: 121.800

KDVT Tower (Both) (Archives)
Phoenix, Arizona, United States

Feed Status: UP
Listen in your browser - HTML5 player(in browser, HTML5)
Click here to listen with your own player(launches your MP3 player)

KDVT 241753Z 14003KT 10SM SCT050 BKN080 OVC100 09/07 A2985 RMK AO2 SLP100 60016 T00890072 10089 20067 51010

KDVT Airport Info (Airnav.com)

KDVT Flight Activity (Flightaware)

Listeners: 2 out of 1506 total

Deer Valley Tower (North): 120.200
Deer Valley Tower (South): 118.400

KDVT Tower (North) (Archives)
Phoenix, Arizona, United States

Feed Status: UP
Listen in your browser - HTML5 player(in browser, HTML5)
Click here to listen with your own player(launches your MP3 player)

KDVT 241753Z 14003KT 10SM SCT050 BKN080 OVC100 09/07 A2985 RMK AO2 SLP100 60016 T00890072 10089 20067 51010

KDVT Airport Info (Airnav.com)

KDVT Flight Activity (Flightaware)

Listeners: 0 out of 1506 total

Deer Valley Tower (North): 120.200

KDVT Tower (South) (Archives)
Phoenix, Arizona, United States

Feed Status: UP
Listen in your browser - HTML5 player(in browser, HTML5)
Click here to listen with your own player(launches your MP3 player)

KDVT 241753Z 14003KT 10SM SCT050 BKN080 OVC100 09/07 A2985 RMK AO2 SLP100 60016 T00890072 10089 20067 51010

KDVT Airport Info (Airnav.com)

KDVT Flight Activity (Flightaware)

Listeners: 0 out of 1506 total

Deer Valley Tower (South): 118.400

KDWH Del/ Gnd/Twr (Archives)
Houston, Texas, United States

Feed Status: UP
Listen in your browser - HTML5 player(in browser, HTML5)
Click here to listen with your own player(launches your MP3 player)

KDWH 241753Z 14005KT 3SM BR BKN005 OVC010 22/20 A2995 RMK AO2 SLP141 60000 T02170200 10217 20167 58002

KDWH Airport Info (Airnav.com)

KDWH Flight Activity (Flightaware)

Listeners: 1 out of 1506 total

Hooks Clearance Delivery: 119.450
Hooks Ground: 121.800
Hooks Tower (E): 127.400
Hooks Tower (W): 118.400
Hooks UNICOM: 122.950

KDXR ATIS (Archives)
Danbury, Connecticut, United States

Feed Status: UP
Listen in your browser - HTML5 player(in browser, HTML5)
Click here to listen with your own player(launches your MP3 player)

KDXR 241753Z 28011G21KT 250V310 10SM CLR M02/M17 A3007 RMK AO2 SLP189 T10221172 11017 21078 58022

KDXR Airport Info (Airnav.com)

KDXR Flight Activity (Flightaware)

Listeners: 0 out of 1506 total

Danbury ATIS: 127.750

KDXR Ground/Tower (Archives)
Danbury, Connecticut, United States

Feed Status: UP
Listen in your browser - HTML5 player(in browser, HTML5)
Click here to listen with your own player(launches your MP3 player)

KDXR 241753Z 28011G21KT 250V310 10SM CLR M02/M17 A3007 RMK AO2 SLP189 T10221172 11017 21078 58022

KDXR Airport Info (Airnav.com)

KDXR Flight Activity (Flightaware)

Listeners: 3 out of 1506 total

Danbury Ground: 121.600
Danbury Tower: 119.400

KDYB CTAF (Archives)
Summerville, South Carolina, United States

Feed Status: UP
Listen in your browser - HTML5 player(in browser, HTML5)
Click here to listen with your own player(launches your MP3 player)

KDYB 241755Z AUTO 14005KT 10SM OVC047 16/01 A3023 RMK AO2

KDYB Airport Info (Airnav.com)

KDYB Flight Activity (Flightaware)

Listeners: 0 out of 1506 total

Summerville CTAF: 123.000

KDYL CTAF #1 (Archives)
Doylestown, Pennsylvania, United States

Feed Status: UP
Listen in your browser - HTML5 player(in browser, HTML5)
Click here to listen with your own player(launches your MP3 player)

KDYL 241754Z AUTO 32009G18KT 290V360 10SM CLR 01/M14 A3017 RMK AO2 SLP224 T00061139 10006 21056 58023

KDYL Airport Info (Airnav.com)

KDYL Flight Activity (Flightaware)

Listeners: 0 out of 1506 total

Doylestown CTAF/UNICOM: 122.975

KDYL CTAF #2 (Archives)
Doylestown, Pennsylvania, United States

Feed Status: UP
Listen in your browser - HTML5 player(in browser, HTML5)
Click here to listen with your own player(launches your MP3 player)

KDYL 241754Z AUTO 32009G18KT 290V360 10SM CLR 01/M14 A3017 RMK AO2 SLP224 T00061139 10006 21056 58023

KDYL Airport Info (Airnav.com)

KDYL Flight Activity (Flightaware)

Listeners: 0 out of 1506 total

Doylestown CTAF/UNICOM: 122.975

KEAR AWOS (Archives)
Kearney, Nebraska, United States

Feed Status: UP
Listen in your browser - HTML5 player(in browser, HTML5)
Click here to listen with your own player(launches your MP3 player)

KEAR 241756Z AUTO 06010KT 10SM OVC011 M03/M05 A3006 RMK AO2 SLP202 T10281050 11028 21039 50001 FZRANO

KEAR Airport Info (Airnav.com)

KEAR Flight Activity (Flightaware)

Listeners: 0 out of 1506 total

Kearney AWOS: 123.875

KEAR Columbus Radio (Archives)
Kearney, Nebraska, United States

Feed Status: UP
Listen in your browser - HTML5 player(in browser, HTML5)
Click here to listen with your own player(launches your MP3 player)

KEAR 241756Z AUTO 06010KT 10SM OVC011 M03/M05 A3006 RMK AO2 SLP202 T10281050 11028 21039 50001 FZRANO

KEAR Airport Info (Airnav.com)

KEAR Flight Activity (Flightaware)

Listeners: 1 out of 1506 total

Columbus Radio: 122.550

KEAR CTAF (Archives)
Kearney, Nebraska, United States

Feed Status: UP
Listen in your browser - HTML5 player(in browser, HTML5)
Click here to listen with your own player(launches your MP3 player)

KEAR 241756Z AUTO 06010KT 10SM OVC011 M03/M05 A3006 RMK AO2 SLP202 T10281050 11028 21039 50001 FZRANO

KEAR Airport Info (Airnav.com)

KEAR Flight Activity (Flightaware)

Listeners: 0 out of 1506 total

Kearney CTAF: 123.000

KEAU Tower (Archives)
Eau Claire, Wisconsin, United States

Feed Status: UP
Listen in your browser - HTML5 player(in browser, HTML5)
Click here to listen with your own player(launches your MP3 player)

KEAU 241756Z 28006KT 10SM OVC013 M06/M09 A3010 RMK AO2 SLP210 T10561094 11056 21094 50011

KEAU Airport Info (Airnav.com)

KEAU Flight Activity (Flightaware)

Listeners: 0 out of 1506 total

Eau Claire Tower: 118.575

KEDC ATIS (Archives)
Austin, Texas, United States

Feed Status: UP
Listen in your browser - HTML5 player(in browser, HTML5)
Click here to listen with your own player(launches your MP3 player)

KEDC 241735Z AUTO 00000KT M1/4SM FG OVC002 17/17 A2993 RMK AO2

KEDC Airport Info (Airnav.com)

KEDC Flight Activity (Flightaware)

Listeners: 0 out of 1506 total

Executive ATIS/AWOS: 118.825

KEDC Austin App/Dep (Archives)
Austin, Texas, United States

Feed Status: UP
Listen in your browser - HTML5 player(in browser, HTML5)
Click here to listen with your own player(launches your MP3 player)

KEDC 241735Z AUTO 00000KT M1/4SM FG OVC002 17/17 A2993 RMK AO2

KEDC Airport Info (Airnav.com)

KEDC Flight Activity (Flightaware)

Listeners: 0 out of 1506 total

Auston Approach/Departure: 127.225

KEDC Clearance Delivery (Archives)
Austin, Texas, United States

Feed Status: UP
Listen in your browser - HTML5 player(in browser, HTML5)
Click here to listen with your own player(launches your MP3 player)

KEDC 241735Z AUTO 00000KT M1/4SM FG OVC002 17/17 A2993 RMK AO2

KEDC Airport Info (Airnav.com)

KEDC Flight Activity (Flightaware)

Listeners: 0 out of 1506 total

Executive Clearance Delivery (when Tower is closed): 126.025

KEDC Clearance/Ground (Archives)
Austin, Texas, United States

Feed Status: UP
Listen in your browser - HTML5 player(in browser, HTML5)
Click here to listen with your own player(launches your MP3 player)

KEDC 241735Z AUTO 00000KT M1/4SM FG OVC002 17/17 A2993 RMK AO2

KEDC Airport Info (Airnav.com)

KEDC Flight Activity (Flightaware)

Listeners: 0 out of 1506 total

Executive Clearance Delivery (when Tower is closed): 126.025
Executive Ground: 119.450

KEDC Del/Gnd/Twr (Archives)
Austin, Texas, United States

Feed Status: UP
Listen in your browser - HTML5 player(in browser, HTML5)
Click here to listen with your own player(launches your MP3 player)

KEDC 241735Z AUTO 00000KT M1/4SM FG OVC002 17/17 A2993 RMK AO2

KEDC Airport Info (Airnav.com)

KEDC Flight Activity (Flightaware)

Listeners: 0 out of 1506 total

Executive Ground: 119.450
Executive Tower: 120.300

KEDC Ground (Archives)
Austin, Texas, United States

Feed Status: UP
Listen in your browser - HTML5 player(in browser, HTML5)
Click here to listen with your own player(launches your MP3 player)

KEDC 241735Z AUTO 00000KT M1/4SM FG OVC002 17/17 A2993 RMK AO2

KEDC Airport Info (Airnav.com)

KEDC Flight Activity (Flightaware)

Listeners: 0 out of 1506 total

Executive Ground: 119.450

KEDC Ground/Tower (Archives)
Austin, Texas, United States

Feed Status: UP
Listen in your browser - HTML5 player(in browser, HTML5)
Click here to listen with your own player(launches your MP3 player)

KEDC 241735Z AUTO 00000KT M1/4SM FG OVC002 17/17 A2993 RMK AO2

KEDC Airport Info (Airnav.com)

KEDC Flight Activity (Flightaware)

Listeners: 0 out of 1506 total

Executive Ground: 119.450
Executive Tower: 120.300

KEDC Tower (Archives)
Austin, Texas, United States

Feed Status: UP
Listen in your browser - HTML5 player(in browser, HTML5)
Click here to listen with your own player(launches your MP3 player)

KEDC 241735Z AUTO 00000KT M1/4SM FG OVC002 17/17 A2993 RMK AO2

KEDC Airport Info (Airnav.com)

KEDC Flight Activity (Flightaware)

Listeners: 0 out of 1506 total

Executive Tower: 120.300

KEDU CTAF (Archives)
Davis, California, United States

Feed Status: UP
Listen in your browser - HTML5 player(in browser, HTML5)
Click here to listen with your own player(launches your MP3 player)

KEDU 241755Z AUTO 18012KT 10SM SCT016 09/07 A2992 RMK AO1

KEDU Airport Info (Airnav.com)

KEDU Flight Activity (Flightaware)

Listeners: 0 out of 1506 total

University CTAF: 123.075

KEEN CTAF (Archives)
Keene, New Hampshire, United States

Feed Status: UP
Listen in your browser - HTML5 player(in browser, HTML5)
Click here to listen with your own player(launches your MP3 player)

KMHT 241753Z 30013G24KT 10SM CLR M02/M17 A2988 RMK AO2 PK WND 33035/1722 SLP141 T10221167 11022 21083 56016

KMHT Airport Info (Airnav.com)

KMHT Flight Activity (Flightaware)

Listeners: 0 out of 1506 total

Keene CTAF: 123.000

MA/NH/RI/CT Area CTAF (Archives)
Keene, New Hampshire, United States

Feed Status: UP
Listen in your browser - HTML5 player(in browser, HTML5)
Click here to listen with your own player(launches your MP3 player)

KBOS 241754Z 30020G32KT 10SM FEW250 M02/M18 A2988 RMK AO2 PK WND 29034/1716 SLP117 T10171178 11017 21078 58024 $

KBOS Airport Info (Airnav.com)

KBOS Flight Activity (Flightaware)

Listeners: 1 out of 1506 total

Air-to-Air: 122.750
Bridgeport Flight Service: 122.200
CTAF: 122.700
CTAF: 122.800
CTAF: 122.900
CTAF: 123.000
Emergency/Guard: 121.500

MA/NH/RI/CT Area CTAF (Archives)
Keene, New Hampshire, United States

Feed Status: UP
Listen in your browser - HTML5 player(in browser, HTML5)
Click here to listen with your own player(launches your MP3 player)

KBOS 241754Z 30020G32KT 10SM FEW250 M02/M18 A2988 RMK AO2 PK WND 29034/1716 SLP117 T10171178 11017 21078 58024 $

KBOS Airport Info (Airnav.com)

KBOS Flight Activity (Flightaware)

Listeners: 1 out of 1506 total

Air-to-Air: 122.750
Bridgeport Flight Service: 122.200
CTAF: 122.700
CTAF: 122.800
CTAF: 122.900
CTAF: 123.000
Emergency/Guard: 121.500

MA/NH/RI/CT Area CTAF (Archives)
Keene, New Hampshire, United States

Feed Status: UP
Listen in your browser - HTML5 player(in browser, HTML5)
Click here to listen with your own player(launches your MP3 player)

KBOS 241754Z 30020G32KT 10SM FEW250 M02/M18 A2988 RMK AO2 PK WND 29034/1716 SLP117 T10171178 11017 21078 58024 $

KBOS Airport Info (Airnav.com)

KBOS Flight Activity (Flightaware)

Listeners: 1 out of 1506 total

Air-to-Air: 122.750
Bridgeport Flight Service: 122.200
CTAF: 122.700
CTAF: 122.800
CTAF: 122.900
CTAF: 123.000
Emergency/Guard: 121.500

KFTG/KEIK/KBDU/KLMO/Misc (Archives)
Erie, Colorado, United States

Feed Status: UP
Listen in your browser - HTML5 player(in browser, HTML5)
Click here to listen with your own player(launches your MP3 player)

KDEN 241753Z 00000KT 10SM FEW020 SCT140 00/M07 A2981 RMK AO2 SLP111 T00001072 10000 21050 58013 $

KDEN Airport Info (Airnav.com)

KDEN Flight Activity (Flightaware)

Listeners: 0 out of 1506 total

Air-to-Air Fixed Wing: 122.750
Air-to-Air Informal: 123.450
Boulder CTAF: 122.725
Erie CTAF: 123.000
Front Range Tower: 120.200
KBKF Tower: 121.000
Longmont CTAF: 122.975
MULTICOM: 122.900
UNICOM: 122.950

KELM App/Dep (Archives)
Elmira, New York, United States

Feed Status: UP
Listen in your browser - HTML5 player(in browser, HTML5)
Click here to listen with your own player(launches your MP3 player)

KELM 241753Z 34008KT 310V010 10SM BKN032 M04/M12 A3021 RMK AO2 SLP245 T10391122 11028 21072 56017

KELM Airport Info (Airnav.com)

KELM Flight Activity (Flightaware)

Listeners: 0 out of 1506 total

Elmira Approach/Departure: 128.425
Elmira Approach/Departure (Backup): 118.150
Elmira Approach/Departure (Ithica): 124.300

KELM ATIS (Archives)
Elmira, New York, United States

Feed Status: UP
Listen in your browser - HTML5 player(in browser, HTML5)
Click here to listen with your own player(launches your MP3 player)

KELM 241753Z 34008KT 310V010 10SM BKN032 M04/M12 A3021 RMK AO2 SLP245 T10391122 11028 21072 56017

KELM Airport Info (Airnav.com)

KELM Flight Activity (Flightaware)

Listeners: 0 out of 1506 total

Elmira ATIS: 125.475

KELM Del/Gnd/Twr/App (Archives)
Elmira, New York, United States

Feed Status: UP
Listen in your browser - HTML5 player(in browser, HTML5)
Click here to listen with your own player(launches your MP3 player)

KELM 241753Z 34008KT 310V010 10SM BKN032 M04/M12 A3021 RMK AO2 SLP245 T10391122 11028 21072 56017

KELM Airport Info (Airnav.com)

KELM Flight Activity (Flightaware)

Listeners: 0 out of 1506 total

Elmira Approach/Departure: 128.425
Elmira Approach/Departure (Backup): 118.150
Elmira Approach/Departure (Ithica): 124.300
Elmira Clearance Delivery/Ground: 121.900
Elmira Tower: 121.100

KELM Del/Ground (Archives)
Elmira, New York, United States

Feed Status: UP
Listen in your browser - HTML5 player(in browser, HTML5)
Click here to listen with your own player(launches your MP3 player)

KELM 241753Z 34008KT 310V010 10SM BKN032 M04/M12 A3021 RMK AO2 SLP245 T10391122 11028 21072 56017

KELM Airport Info (Airnav.com)

KELM Flight Activity (Flightaware)

Listeners: 0 out of 1506 total

Elmira Clearance Delivery/Ground: 121.900

KELM Emergency/Guard (Archives)
Elmira, New York, United States

Feed Status: UP
Listen in your browser - HTML5 player(in browser, HTML5)
Click here to listen with your own player(launches your MP3 player)

KELM 241753Z 34008KT 310V010 10SM BKN032 M04/M12 A3021 RMK AO2 SLP245 T10391122 11028 21072 56017

KELM Airport Info (Airnav.com)

KELM Flight Activity (Flightaware)

Listeners: 0 out of 1506 total

Emergency/Guard: 121.500

KELM Tower (Archives)
Elmira, New York, United States

Feed Status: UP
Listen in your browser - HTML5 player(in browser, HTML5)
Click here to listen with your own player(launches your MP3 player)

KELM 241753Z 34008KT 310V010 10SM BKN032 M04/M12 A3021 RMK AO2 SLP245 T10391122 11028 21072 56017

KELM Airport Info (Airnav.com)

KELM Flight Activity (Flightaware)

Listeners: 0 out of 1506 total

Elmira Tower: 121.100

KEMT Gnd/Twr (Archives)
El Monte, California, United States

Feed Status: UP
Listen in your browser - HTML5 player(in browser, HTML5)
Click here to listen with your own player(launches your MP3 player)

KEMT 241745Z VRB03KT 10SM FEW018 SCT025 10/07 A2997

KEMT Airport Info (Airnav.com)

KEMT Flight Activity (Flightaware)

Listeners: 0 out of 1506 total

El Monte Ground: 125.900
El Monte Tower: 121.200
Santa Fe Dam Practice Area: 123.300

KENW Ground/Tower
Kenosha, Wisconsin, United States

Feed Status: DOWN
Offline since: 2021-01-15 02:59:05 UTC

KENW 241753Z 25008KT 10SM BKN014 OVC022 00/M04 A3005 RMK AO2 SLP183 60000 I6/// T00001039 10000 21017 58010 $

KENW Airport Info (Airnav.com)

Kenosha Ground: 121.875
Kenosha Tower: 118.600

KEST CTAF (Archives)
Estherville, Iowa, United States

Feed Status: UP
Listen in your browser - HTML5 player(in browser, HTML5)
Click here to listen with your own player(launches your MP3 player)

KEST 241752Z AUTO 02008KT 6SM BR OVC004 M07/M08 A3011 RMK AO2 SLP220 T10721083 11061 21078 50013

KEST Airport Info (Airnav.com)

KEST Flight Activity (Flightaware)

Listeners: 0 out of 1506 total

Estherville CTAF: 122.800

KEUG App/Dep
Eugene, Oregon, United States

Feed Status: DOWN
Offline since: 2019-03-29 08:26:04 UTC

KEUG 241754Z 14005KT 8SM -RA SCT010 BKN024 OVC037 03/02 A2983 RMK AO2 SLP104 P0003 60009 T00330022 10033 20028 56012

KEUG Airport Info (Airnav.com)

Cascade Approach/Departure: 119.600
Cascade Approach/Departure: 120.250

KEUG App/Dep 119.6
Eugene, Oregon, United States

Feed Status: DOWN
Offline since: 2020-08-27 05:43:05 UTC

KEUG 241754Z 14005KT 8SM -RA SCT010 BKN024 OVC037 03/02 A2983 RMK AO2 SLP104 P0003 60009 T00330022 10033 20028 56012

KEUG Airport Info (Airnav.com)

Cascade Approach/Departure: 119.600

KEUG App/Dep 120.25
Eugene, Oregon, United States

Feed Status: DOWN
Offline since: 2020-08-27 05:43:05 UTC

KEUG 241754Z 14005KT 8SM -RA SCT010 BKN024 OVC037 03/02 A2983 RMK AO2 SLP104 P0003 60009 T00330022 10033 20028 56012

KEUG Airport Info (Airnav.com)

Cascade Approach/Departure: 120.250

KEUG ATIS
Eugene, Oregon, United States

Feed Status: DOWN
Offline since: 2020-08-27 05:43:05 UTC

KEUG 241754Z 14005KT 8SM -RA SCT010 BKN024 OVC037 03/02 A2983 RMK AO2 SLP104 P0003 60009 T00330022 10033 20028 56012

KEUG Airport Info (Airnav.com)

Eugene ATIS: 125.225

KEUG Emergency/Guard
Eugene, Oregon, United States

Feed Status: DOWN
Offline since: 2020-08-27 05:43:05 UTC

KEUG 241754Z 14005KT 8SM -RA SCT010 BKN024 OVC037 03/02 A2983 RMK AO2 SLP104 P0003 60009 T00330022 10033 20028 56012

KEUG Airport Info (Airnav.com)

Emergency/Guard: 121.500

KEUG Ground
Eugene, Oregon, United States

Feed Status: DOWN
Offline since: 2020-08-27 05:42:38 UTC

KEUG 241754Z 14005KT 8SM -RA SCT010 BKN024 OVC037 03/02 A2983 RMK AO2 SLP104 P0003 60009 T00330022 10033 20028 56012

KEUG Airport Info (Airnav.com)

Eugene Ground: 121.700

KEUG Ground/Tower
Eugene, Oregon, United States

Feed Status: DOWN
Offline since: 2019-03-29 09:35:03 UTC

KEUG 241754Z 14005KT 8SM -RA SCT010 BKN024 OVC037 03/02 A2983 RMK AO2 SLP104 P0003 60009 T00330022 10033 20028 56012

KEUG Airport Info (Airnav.com)

Eugene Ground: 121.700
Eugene Tower (Rwy 16L/34R): 124.150
Eugene Tower (Rwy 16R/34L): 118.900

KEUG Tower (Both)
Eugene, Oregon, United States

Feed Status: DOWN
Offline since: 2019-03-29 08:26:04 UTC

KEUG 241754Z 14005KT 8SM -RA SCT010 BKN024 OVC037 03/02 A2983 RMK AO2 SLP104 P0003 60009 T00330022 10033 20028 56012

KEUG Airport Info (Airnav.com)

Eugene Tower (Rwy 16L/34R): 124.150
Eugene Tower (Rwy 16R/34L): 118.900

KEUG Tower (Rwy 16L/34R)
Eugene, Oregon, United States

Feed Status: DOWN
Offline since: 2020-08-27 05:43:05 UTC

KEUG 241754Z 14005KT 8SM -RA SCT010 BKN024 OVC037 03/02 A2983 RMK AO2 SLP104 P0003 60009 T00330022 10033 20028 56012

KEUG Airport Info (Airnav.com)

Eugene Tower (Rwy 16L/34R): 124.150

KEUG Tower (Rwy 16R/34L)
Eugene, Oregon, United States

Feed Status: DOWN
Offline since: 2020-08-27 05:43:05 UTC

KEUG 241754Z 14005KT 8SM -RA SCT010 BKN024 OVC037 03/02 A2983 RMK AO2 SLP104 P0003 60009 T00330022 10033 20028 56012

KEUG Airport Info (Airnav.com)

Eugene Tower (Rwy 16R/34L): 118.900

KMAN/KEUL CTAF (Archives)
Nampa, Idaho, United States

Feed Status: UP
Listen in your browser - HTML5 player(in browser, HTML5)
Click here to listen with your own player(launches your MP3 player)

KMAN 241755Z AUTO 14011KT 10SM CLR M00/M00 A2984 RMK A01

KMAN Airport Info (Airnav.com)

KMAN Flight Activity (Flightaware)

Listeners: 0 out of 1506 total

Nampa/Caldwell CTAF/UNICOM: 122.700

KEVB ATIS (Archives)
New Smyrna Beach, Florida, United States

Feed Status: UP
Listen in your browser - HTML5 player(in browser, HTML5)
Click here to listen with your own player(launches your MP3 player)

KEVB 241847Z 13004KT 7SM OVC020 20/18 A3014

KEVB Airport Info (Airnav.com)

KEVB Flight Activity (Flightaware)

Listeners: 0 out of 1506 total

New Smyrna ATIS: 124.625

KEVB Gnd/Twr (Archives)
New Smyrna Beach, Florida, United States

Feed Status: UP
Listen in your browser - HTML5 player(in browser, HTML5)
Click here to listen with your own player(launches your MP3 player)

KEVB 241847Z 13004KT 7SM OVC020 20/18 A3014

KEVB Airport Info (Airnav.com)

KEVB Flight Activity (Flightaware)

Listeners: 0 out of 1506 total

New Smyrna Ground: 121.325
New Smyrna Tower: 119.675

KFAR Tower (Archives)
Fargo, North Dakota, United States

Feed Status: UP
Listen in your browser - HTML5 player(in browser, HTML5)
Click here to listen with your own player(launches your MP3 player)

KFAR 241753Z 04004KT 10SM CLR M16/M20 A3020 RMK AO2 SLP248 T11561200 11156 21189 50006

KFAR Airport Info (Airnav.com)

KFAR Flight Activity (Flightaware)

Listeners: 0 out of 1506 total

Fargo Tower: 133.800

KFCM Tower (Archives)
Minneapolis, Minnesota, United States

Feed Status: UP
Listen in your browser - HTML5 player(in browser, HTML5)
Click here to listen with your own player(launches your MP3 player)

KFCM 241753Z 33006KT 10SM CLR M05/M09 A3012 RMK AO2 SLP214 T10501094 11044 21089 50010

KFCM Airport Info (Airnav.com)

KFCM Flight Activity (Flightaware)

Listeners: 2 out of 1506 total

Flying Cloud Tower: 119.150

KFDK ATIS (Archives)
Frederick, Maryland, United States

Feed Status: UP
Listen in your browser - HTML5 player(in browser, HTML5)
Click here to listen with your own player(launches your MP3 player)

KFDK 241751Z 00000KT 10SM SCT100 BKN120 01/M09 A3026

KFDK Airport Info (Airnav.com)

KFDK Flight Activity (Flightaware)

Listeners: 0 out of 1506 total

Frederick ATIS: 124.875

KFDK Del/Gnd/Twr/CTAF #1 (Archives)
Frederick, Maryland, United States

Feed Status: UP
Listen in your browser - HTML5 player(in browser, HTML5)
Click here to listen with your own player(launches your MP3 player)

KFDK 241751Z 00000KT 10SM SCT100 BKN120 01/M09 A3026

KFDK Airport Info (Airnav.com)

KFDK Flight Activity (Flightaware)

Listeners: 1 out of 1506 total

Clearance Delivery (Potomac Approach): 126.900
Frederick Ground: 121.975
Frederick Tower/CTAF: 132.400

KFDK Del/Gnd/Twr/CTAF #2 (Archives)
Frederick, Maryland, United States

Feed Status: UP
Listen in your browser - HTML5 player(in browser, HTML5)
Click here to listen with your own player(launches your MP3 player)

KFDK 241751Z 00000KT 10SM SCT100 BKN120 01/M09 A3026

KFDK Airport Info (Airnav.com)

KFDK Flight Activity (Flightaware)

Listeners: 0 out of 1506 total

Clearance Delivery (Potomac Approach): 126.900
Frederick Ground: 121.975
Frederick Tower/CTAF: 132.400

KFFC CTAF (Archives)
Atlanta, Georgia, United States

Feed Status: UP
Listen in your browser - HTML5 player(in browser, HTML5)
Click here to listen with your own player(launches your MP3 player)

KCCO 241735Z AUTO 15008KT 10SM BKN024 15/02 A3018 RMK AO2 T01500022

KCCO Airport Info (Airnav.com)

KCCO Flight Activity (Flightaware)

Listeners: 0 out of 1506 total

Falcon CTAF: 123.050

KFFZ ATIS (Archives)
Mesa, Arizona, United States

Feed Status: UP
Listen in your browser - HTML5 player(in browser, HTML5)
Click here to listen with your own player(launches your MP3 player)

KFFZ Airport Info (Airnav.com)

KFFZ Flight Activity (Flightaware)

Listeners: 0 out of 1506 total

Falcon ATIS: 118.250

KFFZ Ground (Archives)
Mesa, Arizona, United States

Feed Status: UP
Listen in your browser - HTML5 player(in browser, HTML5)
Click here to listen with your own player(launches your MP3 player)

KFFZ Airport Info (Airnav.com)

KFFZ Flight Activity (Flightaware)

Listeners: 0 out of 1506 total

Falcon Ground: 121.300

KFFZ Twr #1 (Archives)
Mesa, Arizona, United States

Feed Status: UP
Listen in your browser - HTML5 player(in browser, HTML5)
Click here to listen with your own player(launches your MP3 player)

KFFZ Airport Info (Airnav.com)

KFFZ Flight Activity (Flightaware)

Listeners: 2 out of 1506 total

Falcon Tower (North, 4L/22R): 119.700
Falcon Tower (South)/CTAF: 124.600

KFFZ Twr #2 (Archives)
Mesa, Arizona, United States

Feed Status: UP
Listen in your browser - HTML5 player(in browser, HTML5)
Click here to listen with your own player(launches your MP3 player)

KFFZ Airport Info (Airnav.com)

KFFZ Flight Activity (Flightaware)

Listeners: 0 out of 1506 total

Falcon Tower (North, 4L/22R): 119.700
Falcon Tower (South)/CTAF: 124.600

KFFZ Twr (North) (Archives)
Mesa, Arizona, United States

Feed Status: UP
Listen in your browser - HTML5 player(in browser, HTML5)
Click here to listen with your own player(launches your MP3 player)

KFFZ Airport Info (Airnav.com)

KFFZ Flight Activity (Flightaware)

Listeners: 0 out of 1506 total

Falcon Tower (North, 4L/22R): 119.700

KFFZ Twr (South)/CTAF (Archives)
Mesa, Arizona, United States

Feed Status: UP
Listen in your browser - HTML5 player(in browser, HTML5)
Click here to listen with your own player(launches your MP3 player)

KFFZ Airport Info (Airnav.com)

KFFZ Flight Activity (Flightaware)

Listeners: 0 out of 1506 total

Falcon Tower (South)/CTAF: 124.600

KFHR CTAF (Archives)
Friday Harbor, Washington, United States

Feed Status: UP
Listen in your browser - HTML5 player(in browser, HTML5)
Click here to listen with your own player(launches your MP3 player)

KFHR 241753Z AUTO 11013KT 10SM -RA OVC009 03/02 A2974 RMK AO2 RAB1657 SLP071 P0001 60005 T00330022 10039 20033 56007 TSNO

KFHR Airport Info (Airnav.com)

KFHR Flight Activity (Flightaware)

Listeners: 0 out of 1506 total

KFHR/San Juan Islands CTAF: 128.250

KFHU Gnd/Twr/Radar (Archives)
Fort Huachuca/Sierra Vista, Arizona, United States

Feed Status: UP
Listen in your browser - HTML5 player(in browser, HTML5)
Click here to listen with your own player(launches your MP3 player)

KFHU 201758Z AUTO 11010KT 10SM CLR 13/02 A3022 RMK AO2 SLP201 T01290018 10129 20028 50008

KFHU Airport Info (Airnav.com)

KFHU Flight Activity (Flightaware)

Listeners: 0 out of 1506 total

Libby AAF GCA Radar: 127.050
Libby AAF GCA Radar: 254.350
Libby Ground: 121.700
Libby Ground: 268.700
Libby Tower: 124.950
Libby Tower: 284.750

KCON/KFIT CTAF (Archives)
Fitchburg, Massachusetts, United States

Feed Status: UP
Listen in your browser - HTML5 player(in browser, HTML5)
Click here to listen with your own player(launches your MP3 player)

KMHT 241753Z 30013G24KT 10SM CLR M02/M17 A2988 RMK AO2 PK WND 33035/1722 SLP141 T10221167 11022 21083 56016

KMHT Airport Info (Airnav.com)

KMHT Flight Activity (Flightaware)

Listeners: 1 out of 1506 total

Concord NH/Fitchburg MA CTAF: 122.700

KFIT CTAF (Archives)
Fitchburg, Massachusetts, United States

Feed Status: UP
Listen in your browser - HTML5 player(in browser, HTML5)
Click here to listen with your own player(launches your MP3 player)

KFIT 241752Z AUTO 29021G27KT 10SM CLR M02/M17 A2992 RMK AO2 PK WND 32031/1712 SLP139 T10221172 11017 21089 56017

KFIT Airport Info (Airnav.com)

KFIT Flight Activity (Flightaware)

Listeners: 0 out of 1506 total

Fitchburg CTAF/UNICOM: 122.700

KFIT CTAF/FSS RCO (Archives)
Fitchburg, Massachusetts, United States

Feed Status: UP
Listen in your browser - HTML5 player(in browser, HTML5)
Click here to listen with your own player(launches your MP3 player)

KFIT 241752Z AUTO 29021G27KT 10SM CLR M02/M17 A2992 RMK AO2 PK WND 32031/1712 SLP139 T10221172 11017 21089 56017

KFIT Airport Info (Airnav.com)

KFIT Flight Activity (Flightaware)

Listeners: 0 out of 1506 total

Bridgeport Radio (FSS via RCO): 119.025
Emergency/Guard: 121.500
Fitchburg CTAF/UNICOM: 122.700

MA/NH/RI/CT Area CTAF (Archives)
Fitchburg, Massachusetts, United States

Feed Status: UP
Listen in your browser - HTML5 player(in browser, HTML5)
Click here to listen with your own player(launches your MP3 player)

KBOS 241754Z 30020G32KT 10SM FEW250 M02/M18 A2988 RMK AO2 PK WND 29034/1716 SLP117 T10171178 11017 21078 58024 $

KBOS Airport Info (Airnav.com)

KBOS Flight Activity (Flightaware)

Listeners: 1 out of 1506 total

Air-to-Air: 122.750
Bridgeport Flight Service: 122.200
CTAF: 122.700
CTAF: 122.800
CTAF: 122.900
CTAF: 123.000
Emergency/Guard: 121.500

MA/NH/RI/CT Area CTAF (Archives)
Fitchburg, Massachusetts, United States

Feed Status: UP
Listen in your browser - HTML5 player(in browser, HTML5)
Click here to listen with your own player(launches your MP3 player)

KBOS 241754Z 30020G32KT 10SM FEW250 M02/M18 A2988 RMK AO2 PK WND 29034/1716 SLP117 T10171178 11017 21078 58024 $

KBOS Airport Info (Airnav.com)

KBOS Flight Activity (Flightaware)

Listeners: 1 out of 1506 total

Air-to-Air: 122.750
Bridgeport Flight Service: 122.200
CTAF: 122.700
CTAF: 122.800
CTAF: 122.900
CTAF: 123.000
Emergency/Guard: 121.500

MA/NH/RI/CT Area CTAF (Archives)
Fitchburg, Massachusetts, United States

Feed Status: UP
Listen in your browser - HTML5 player(in browser, HTML5)
Click here to listen with your own player(launches your MP3 player)

KBOS 241754Z 30020G32KT 10SM FEW250 M02/M18 A2988 RMK AO2 PK WND 29034/1716 SLP117 T10171178 11017 21078 58024 $

KBOS Airport Info (Airnav.com)

KBOS Flight Activity (Flightaware)

Listeners: 1 out of 1506 total

Air-to-Air: 122.750
Bridgeport Flight Service: 122.200
CTAF: 122.700
CTAF: 122.800
CTAF: 122.900
CTAF: 123.000
Emergency/Guard: 121.500

KFKA CTAF (Archives)
Preston, Minnesota, United States

Feed Status: UP
Listen in your browser - HTML5 player(in browser, HTML5)
Click here to listen with your own player(launches your MP3 player)

KFKA 241755Z AUTO 35009KT 7SM CLR M06/M09 A3007 RMK AO2 T10621094 11062 21079

KFKA Airport Info (Airnav.com)

KFKA Flight Activity (Flightaware)

Listeners: 0 out of 1506 total

Preston CTAF: 122.900

KFLG Ground/Tower (Archives)
Flagstaff, Arizona, United States

Feed Status: UP
Listen in your browser - HTML5 player(in browser, HTML5)
Click here to listen with your own player(launches your MP3 player)

KFLG 241757Z 21012KT 9SM BKN009 OVC015 M02/M04 A2974 RMK AO2 SNE52 SLP068 P0000 60018 T10221039 11022 21033 50001

KFLG Airport Info (Airnav.com)

KFLG Flight Activity (Flightaware)

Listeners: 0 out of 1506 total

Flagstaff Ground: 121.900
Flagstaff Tower: 134.550

KFLO App/Dep (Archives)
Florence, South Carolina, United States

Feed Status: UP
Listen in your browser - HTML5 player(in browser, HTML5)
Click here to listen with your own player(launches your MP3 player)

KFLO 241753Z 00000KT 10SM CLR 11/M07 A3028 RMK AO2 SLP251 T01061067 10111 20000 56024

KFLO Airport Info (Airnav.com)

KFLO Flight Activity (Flightaware)

Listeners: 0 out of 1506 total

Florence Approach: 135.250
Florence Approach: 118.600

KFLO ATIS (Archives)
Florence, South Carolina, United States

Feed Status: UP
Listen in your browser - HTML5 player(in browser, HTML5)
Click here to listen with your own player(launches your MP3 player)

KFLO 241753Z 00000KT 10SM CLR 11/M07 A3028 RMK AO2 SLP251 T01061067 10111 20000 56024

KFLO Airport Info (Airnav.com)

KFLO Flight Activity (Flightaware)

Listeners: 0 out of 1506 total

Florence ATIS: 123.625

KFLO Gnd/Twr/App (Archives)
Florence, South Carolina, United States

Feed Status: UP
Listen in your browser - HTML5 player(in browser, HTML5)
Click here to listen with your own player(launches your MP3 player)

KFLO 241753Z 00000KT 10SM CLR 11/M07 A3028 RMK AO2 SLP251 T01061067 10111 20000 56024

KFLO Airport Info (Airnav.com)

KFLO Flight Activity (Flightaware)

Listeners: 0 out of 1506 total

Florence Approach: 118.600
Florence Approach: 135.250
Florence Ground: 121.900
Florence Tower: 125.100

KFLO Ground (Archives)
Florence, South Carolina, United States

Feed Status: UP
Listen in your browser - HTML5 player(in browser, HTML5)
Click here to listen with your own player(launches your MP3 player)

KFLO 241753Z 00000KT 10SM CLR 11/M07 A3028 RMK AO2 SLP251 T01061067 10111 20000 56024

KFLO Airport Info (Airnav.com)

KFLO Flight Activity (Flightaware)

Listeners: 0 out of 1506 total

Florence Ground: 121.900

KFLO Tower (Archives)
Florence, South Carolina, United States

Feed Status: UP
Listen in your browser - HTML5 player(in browser, HTML5)
Click here to listen with your own player(launches your MP3 player)

KFLO 241753Z 00000KT 10SM CLR 11/M07 A3028 RMK AO2 SLP251 T01061067 10111 20000 56024

KFLO Airport Info (Airnav.com)

KFLO Flight Activity (Flightaware)

Listeners: 0 out of 1506 total

Florence Tower: 125.100

Boston Approach (Cape North) (Archives)
Falmouth, Massachusetts, United States

Feed Status: UP
Listen in your browser - HTML5 player(in browser, HTML5)
Click here to listen with your own player(launches your MP3 player)

KFMH 241745Z 30020G25KT 10SM CLR M01/M19 A2988

KFMH Airport Info (Airnav.com)

KFMH Flight Activity (Flightaware)

Listeners: 0 out of 1506 total

Boston Approach (Cape North Arrival): 118.200

Boston Approach (OTIS Arrival) (Archives)
Falmouth, Massachusetts, United States

Feed Status: UP
Listen in your browser - HTML5 player(in browser, HTML5)
Click here to listen with your own player(launches your MP3 player)

KFMH 241745Z 30020G25KT 10SM CLR M01/M19 A2988

KFMH Airport Info (Airnav.com)

KFMH Flight Activity (Flightaware)

Listeners: 0 out of 1506 total

Boston Approach (OTIS Arrival): 126.300

KFMH ATIS (Archives)
Falmouth, Massachusetts, United States

Feed Status: UP
Listen in your browser - HTML5 player(in browser, HTML5)
Click here to listen with your own player(launches your MP3 player)

KFMH 241745Z 30020G25KT 10SM CLR M01/M19 A2988

KFMH Airport Info (Airnav.com)

KFMH Flight Activity (Flightaware)

Listeners: 0 out of 1506 total

Coast Guard ATIS: 120.475

KFMH Ground (Archives)
Falmouth, Massachusetts, United States

Feed Status: UP
Listen in your browser - HTML5 player(in browser, HTML5)
Click here to listen with your own player(launches your MP3 player)

KFMH 241745Z 30020G25KT 10SM CLR M01/M19 A2988

KFMH Airport Info (Airnav.com)

KFMH Flight Activity (Flightaware)

Listeners: 0 out of 1506 total

Coast Guard Ground: 124.150

KFMH Tower (Archives)
Falmouth, Massachusetts, United States

Feed Status: UP
Listen in your browser - HTML5 player(in browser, HTML5)
Click here to listen with your own player(launches your MP3 player)

KFMH 241745Z 30020G25KT 10SM CLR M01/M19 A2988

KFMH Airport Info (Airnav.com)

KFMH Flight Activity (Flightaware)

Listeners: 2 out of 1506 total

Coast Guard Tower: 128.425

KFMY ATIS (Archives)
Fort Myers, Florida, United States

Feed Status: UP
Listen in your browser - HTML5 player(in browser, HTML5)
Click here to listen with your own player(launches your MP3 player)

KFMY 241753Z 08006KT 10SM FEW030 FEW036 26/18 A3010 RMK AO2 SLP194 T02560178 10261 20161 58019

KFMY Airport Info (Airnav.com)

KFMY Flight Activity (Flightaware)

Listeners: 0 out of 1506 total

Page ATIS: 123.725

KFMY Del/Gnd/Twr (Archives)
Fort Myers, Florida, United States

Feed Status: UP
Listen in your browser - HTML5 player(in browser, HTML5)
Click here to listen with your own player(launches your MP3 player)

KFMY 241753Z 08006KT 10SM FEW030 FEW036 26/18 A3010 RMK AO2 SLP194 T02560178 10261 20161 58019

KFMY Airport Info (Airnav.com)

KFMY Flight Activity (Flightaware)

Listeners: 1 out of 1506 total

Page Clearance/Ground: 121.700
Page Tower: 119.000

KFNL Ground (Archives)
Fort Collins/Loveland, Colorado, United States

Feed Status: UP
Listen in your browser - HTML5 player(in browser, HTML5)
Click here to listen with your own player(launches your MP3 player)

KFNL 241756Z 00000KT 10SM OVC019 M03/M07 A2984 RMK AO2 SLP130 T10281072 11022 21044 58014 FZRANO

KFNL Airport Info (Airnav.com)

KFNL Flight Activity (Flightaware)

Listeners: 0 out of 1506 total

Fort Collins Ground: 121.650

KFNL Tower/CTAF (Archives)
Fort Collins/Loveland, Colorado, United States

Feed Status: UP
Listen in your browser - HTML5 player(in browser, HTML5)
Click here to listen with your own player(launches your MP3 player)

KFNL 241756Z 00000KT 10SM OVC019 M03/M07 A2984 RMK AO2 SLP130 T10281072 11022 21044 58014 FZRANO

KFNL Airport Info (Airnav.com)

KFNL Flight Activity (Flightaware)

Listeners: 2 out of 1506 total

Fort Collins Tower/CTAF: 118.400

KFNL UNICOM
Fort Collins/Loveland, Colorado, United States

Feed Status: DOWN
Offline since: 2021-01-01 16:34:22 UTC

KFNL 241756Z 00000KT 10SM OVC019 M03/M07 A2984 RMK AO2 SLP130 T10281072 11022 21044 58014 FZRANO

KFNL Airport Info (Airnav.com)


KFPR ATIS #1 (Archives)
Fort Pierce, Florida, United States

Feed Status: UP
Listen in your browser - HTML5 player(in browser, HTML5)
Click here to listen with your own player(launches your MP3 player)

KFPR 241753Z 10011KT 10SM BKN021 BKN033 OVC040 24/18 A3012 RMK AO2 SLP197 T02440178 10256 20178 58015

KFPR Airport Info (Airnav.com)

KFPR Flight Activity (Flightaware)

Listeners: 0 out of 1506 total

Fort Pierce ATIS: 134.825

KFPR Gnd/Twr #1 (Archives)
Fort Pierce, Florida, United States

Feed Status: UP
Listen in your browser - HTML5 player(in browser, HTML5)
Click here to listen with your own player(launches your MP3 player)

KFPR 241753Z 10011KT 10SM BKN021 BKN033 OVC040 24/18 A3012 RMK AO2 SLP197 T02440178 10256 20178 58015

KFPR Airport Info (Airnav.com)

KFPR Flight Activity (Flightaware)

Listeners: 1 out of 1506 total

Ft Pierce Ground: 119.550
Ft Pierce Tower: 128.200

KFPR Ground (Archives)
Fort Pierce, Florida, United States

Feed Status: UP
Listen in your browser - HTML5 player(in browser, HTML5)
Click here to listen with your own player(launches your MP3 player)

KFPR 241753Z 10011KT 10SM BKN021 BKN033 OVC040 24/18 A3012 RMK AO2 SLP197 T02440178 10256 20178 58015

KFPR Airport Info (Airnav.com)

KFPR Flight Activity (Flightaware)

Listeners: 0 out of 1506 total

Ft Pierce Ground: 119.550

KFPR Tower (Archives)
Fort Pierce, Florida, United States

Feed Status: UP
Listen in your browser - HTML5 player(in browser, HTML5)
Click here to listen with your own player(launches your MP3 player)

KFPR 241753Z 10011KT 10SM BKN021 BKN033 OVC040 24/18 A3012 RMK AO2 SLP197 T02440178 10256 20178 58015

KFPR Airport Info (Airnav.com)

KFPR Flight Activity (Flightaware)

Listeners: 0 out of 1506 total

Ft Pierce Tower: 128.200

Palm Beach App/Dep (Archives)
Fort Pierce, Florida, United States

Feed Status: UP
Listen in your browser - HTML5 player(in browser, HTML5)
Click here to listen with your own player(launches your MP3 player)

KFPR 241753Z 10011KT 10SM BKN021 BKN033 OVC040 24/18 A3012 RMK AO2 SLP197 T02440178 10256 20178 58015

KFPR Airport Info (Airnav.com)

KFPR Flight Activity (Flightaware)

Listeners: 0 out of 1506 total

Palm Beach Approach/Departure: 123.625

KFRG ATIS (Archives)
Farmingdale, New York, United States

Feed Status: UP
Listen in your browser - HTML5 player(in browser, HTML5)
Click here to listen with your own player(launches your MP3 player)

KFRG 241753Z 31010G22KT 280V350 10SM CLR M01/M16 A3011 RMK AO2 SLP196 T10111156 11011 21056 58025

KFRG Airport Info (Airnav.com)

KFRG Flight Activity (Flightaware)

Listeners: 0 out of 1506 total

Republic ATIS: 126.650

KFRG Delivery/Ground (Archives)
Farmingdale, New York, United States

Feed Status: UP
Listen in your browser - HTML5 player(in browser, HTML5)
Click here to listen with your own player(launches your MP3 player)

KFRG 241753Z 31010G22KT 280V350 10SM CLR M01/M16 A3011 RMK AO2 SLP196 T10111156 11011 21056 58025

KFRG Airport Info (Airnav.com)

KFRG Flight Activity (Flightaware)

Listeners: 0 out of 1506 total

Emergency/Guard: 121.500
Republic Clearance Delivery: 128.250
Republic Ground: 121.600

KFRG Tower (Archives)
Farmingdale, New York, United States

Feed Status: UP
Listen in your browser - HTML5 player(in browser, HTML5)
Click here to listen with your own player(launches your MP3 player)

KFRG 241753Z 31010G22KT 280V350 10SM CLR M01/M16 A3011 RMK AO2 SLP196 T10111156 11011 21056 58025

KFRG Airport Info (Airnav.com)

KFRG Flight Activity (Flightaware)

Listeners: 3 out of 1506 total

Republic Tower: 118.800

KFRM CTAF (Air Race Classic)
Fairmont, Minnesota, United States

Feed Status: DOWN
Offline since: 2019-06-25 18:58:03 UTC

Fairmont CTAF: 122.800

KFSD Twr/App/Dep/ZMP (Archives)
Sioux Falls, South Dakota, United States

Feed Status: UP
Listen in your browser - HTML5 player(in browser, HTML5)
Click here to listen with your own player(launches your MP3 player)

KFSD 241756Z 04007KT 10SM CLR M07/M12 A3011 RMK AO2 SLP222 T10721122 11050 21100 50003

KFSD Airport Info (Airnav.com)

KFSD Flight Activity (Flightaware)

Listeners: 1 out of 1506 total

Minneapolis Center (Sector 33 PIR Low): 132.050
Sioux Falls Approach/Departure: 125.800
Sioux Falls Tower: 118.300

KFTW Del/Gnd/Twr (Archives)
Fort Worth, Texas, United States

Feed Status: UP
Listen in your browser - HTML5 player(in browser, HTML5)
Click here to listen with your own player(launches your MP3 player)

KFTW 241753Z 08004KT 3/4SM R16/4000V5000FT BR OVC001 13/13 A2994 RMK AO2 SLP136 T01280128 10128 20111 58007

KFTW Airport Info (Airnav.com)

KFTW Flight Activity (Flightaware)

Listeners: 2 out of 1506 total

Meacham Clearance Delivery: 124.650
Meacham Ground: 121.900
Meacham Tower: 118.300

KFTW Del/Ground (Archives)
Fort Worth, Texas, United States

Feed Status: UP
Listen in your browser - HTML5 player(in browser, HTML5)
Click here to listen with your own player(launches your MP3 player)

KFTW 241753Z 08004KT 3/4SM R16/4000V5000FT BR OVC001 13/13 A2994 RMK AO2 SLP136 T01280128 10128 20111 58007

KFTW Airport Info (Airnav.com)

KFTW Flight Activity (Flightaware)

Listeners: 0 out of 1506 total

Meacham Clearance Delivery: 124.650
Meacham Ground: 121.900

KFTW Tower (Archives)
Fort Worth, Texas, United States

Feed Status: UP
Listen in your browser - HTML5 player(in browser, HTML5)
Click here to listen with your own player(launches your MP3 player)

KFTW 241753Z 08004KT 3/4SM R16/4000V5000FT BR OVC001 13/13 A2994 RMK AO2 SLP136 T01280128 10128 20111 58007

KFTW Airport Info (Airnav.com)

KFTW Flight Activity (Flightaware)

Listeners: 1 out of 1506 total

Meacham Tower: 118.300

Regional App (Meacham North) (Archives)
Fort Worth, Texas, United States

Feed Status: UP
Listen in your browser - HTML5 player(in browser, HTML5)
Click here to listen with your own player(launches your MP3 player)

KFTW 241753Z 08004KT 3/4SM R16/4000V5000FT BR OVC001 13/13 A2994 RMK AO2 SLP136 T01280128 10128 20111 58007

KFTW Airport Info (Airnav.com)

KFTW Flight Activity (Flightaware)

Listeners: 0 out of 1506 total

Regional Approach (Meacham North): 118.100

Regional App (Meacham South) (Archives)
Fort Worth, Texas, United States

Feed Status: UP
Listen in your browser - HTML5 player(in browser, HTML5)
Click here to listen with your own player(launches your MP3 player)

KDFW 241753Z 11003KT 1 1/2SM -DZ BR OVC003 13/13 A2994 RMK AO2 SFC VIS 2 1/2 DZB53 SLP135 P0000 60000 T01330133 10133 20106 58007

KDFW Airport Info (Airnav.com)

KDFW Flight Activity (Flightaware)

Listeners: 0 out of 1506 total

Regional Approach (Meacham South): 135.975

Regional Approach (Meacham North/South) (Archives)
Fort Worth, Texas, United States

Feed Status: UP
Listen in your browser - HTML5 player(in browser, HTML5)
Click here to listen with your own player(launches your MP3 player)

KFTW 241753Z 08004KT 3/4SM R16/4000V5000FT BR OVC001 13/13 A2994 RMK AO2 SLP136 T01280128 10128 20111 58007

KFTW Airport Info (Airnav.com)

KFTW Flight Activity (Flightaware)

Listeners: 0 out of 1506 total

Regional Approach (Meacham North): 118.100
Regional Approach (Meacham South): 135.975

Atlanta Approach (N. Sat) (Archives)
Atlanta, Georgia, United States

Feed Status: UP
Listen in your browser - HTML5 player(in browser, HTML5)
Click here to listen with your own player(launches your MP3 player)

KRYY 241750Z 12009KT 10SM FEW025 13/M02 A3018 RMK AO2 SLP940 T01281022 10128 20044 58023 $

KRYY Airport Info (Airnav.com)

KRYY Flight Activity (Flightaware)

Listeners: 0 out of 1506 total

Atlanta Approach (North Satellite): 121.000

KFTY Ground/Tower (Archives)
Atlanta, Georgia, United States

Feed Status: UP
Listen in your browser - HTML5 player(in browser, HTML5)
Click here to listen with your own player(launches your MP3 player)

KFTY 241753Z 13007KT 10SM BKN030 14/M01 A3017 RMK AO2 SLP216 T01391011 10144 20028 58025

KFTY Airport Info (Airnav.com)

KFTY Flight Activity (Flightaware)

Listeners: 1 out of 1506 total

County Ground: 121.700
County Tower: 118.450

KFWS Ground/Tower (Archives)
Fort Worth, Texas, United States

Feed Status: UP
Listen in your browser - HTML5 player(in browser, HTML5)
Click here to listen with your own player(launches your MP3 player)

KFWS 241750Z 00000KT 1SM BR OVC002 14/14 A2996

KFWS Airport Info (Airnav.com)

KFWS Flight Activity (Flightaware)

Listeners: 1 out of 1506 total

Spinks Ground: 119.475
Spinks Tower/CTAF: 124.625

KFXE ATIS (Archives)
Fort Lauderdale, Florida, United States

Feed Status: UP
Listen in your browser - HTML5 player(in browser, HTML5)
Click here to listen with your own player(launches your MP3 player)

KFXE 241753Z AUTO 11005KT 10SM FEW035 SCT047 27/18 A3009 RMK AO2 SLP192 T02670183 10272 20161 58016 TSNO

KFXE Airport Info (Airnav.com)

KFXE Flight Activity (Flightaware)

Listeners: 0 out of 1506 total

Executive ATIS: 119.850

KFXE Ground (Archives)
Fort Lauderdale, Florida, United States

Feed Status: UP
Listen in your browser - HTML5 player(in browser, HTML5)
Click here to listen with your own player(launches your MP3 player)

KFXE 241753Z AUTO 11005KT 10SM FEW035 SCT047 27/18 A3009 RMK AO2 SLP192 T02670183 10272 20161 58016 TSNO

KFXE Airport Info (Airnav.com)

KFXE Flight Activity (Flightaware)

Listeners: 0 out of 1506 total

Executive Ground: 121.750

KFXE Practice Area (Archives)
Fort Lauderdale, Florida, United States

Feed Status: UP
Listen in your browser - HTML5 player(in browser, HTML5)
Click here to listen with your own player(launches your MP3 player)

KFXE 241753Z AUTO 11005KT 10SM FEW035 SCT047 27/18 A3009 RMK AO2 SLP192 T02670183 10272 20161 58016 TSNO

KFXE Airport Info (Airnav.com)

KFXE Flight Activity (Flightaware)

Listeners: 0 out of 1506 total

Coral Springs/Everglades Practice Area: 123.450

KFXE Tower #1 (Archives)
Fort Lauderdale, Florida, United States

Feed Status: UP
Listen in your browser - HTML5 player(in browser, HTML5)
Click here to listen with your own player(launches your MP3 player)

KFXE 241753Z AUTO 11005KT 10SM FEW035 SCT047 27/18 A3009 RMK AO2 SLP192 T02670183 10272 20161 58016 TSNO

KFXE Airport Info (Airnav.com)

KFXE Flight Activity (Flightaware)

Listeners: 0 out of 1506 total

Ft. Lauderdale Exec Tower: 120.900

KFYV Gnd/Twr/App/ZME (Archives)
Fayetteville, Arkansas, United States

Feed Status: UP
Listen in your browser - HTML5 player(in browser, HTML5)
Click here to listen with your own player(launches your MP3 player)

KFYV 241753Z 19006KT 10SM OVC007 10/09 A3001 RMK AO2 SLP164 60000 T01000089 10100 20072 50004

KFYV Airport Info (Airnav.com)

KFYV Flight Activity (Flightaware)

Listeners: 3 out of 1506 total

Drake Ground: 121.800
Drake Tower: 128.000
Jonesboro Flight Service Station (FSS): 122.300
Memphis Center (High): 132.550
Memphis Center (High): 353.800
Razorback Approach: 121.000

KGAI CTAF/UNICOM (Archives)
Gaithersburg, Maryland, United States

Feed Status: UP
Listen in your browser - HTML5 player(in browser, HTML5)
Click here to listen with your own player(launches your MP3 player)

KGAI 241756Z AUTO 30006KT 10SM BKN095 01/M11 A3025 RMK AO2 SLP263 T00061106 10006 21072 58024 FZRANO

KGAI Airport Info (Airnav.com)

KGAI Flight Activity (Flightaware)

Listeners: 1 out of 1506 total

Gaithersburg CTAF: 123.075

KGBR/20N CTAF
Great Barrington, Massachusetts, United States

Feed Status: DOWN
Offline since: 2020-11-21 13:08:39 UTC

KGBR Airport Info (Airnav.com)

Great Barrington CTAF: 122.800

KGDM/KORE CTAF (Archives)
Gardner, Massachusetts, United States

Feed Status: UP
Listen in your browser - HTML5 player(in browser, HTML5)
Click here to listen with your own player(launches your MP3 player)

KGDM Airport Info (Airnav.com)

KGDM Flight Activity (Flightaware)

Listeners: 0 out of 1506 total

Gardner CTAF: 122.800

KGED ASOS (Archives)
Georgetown, Delaware, United States

Feed Status: UP
Listen in your browser - HTML5 player(in browser, HTML5)
Click here to listen with your own player(launches your MP3 player)

KGED 241754Z AUTO 31010G16KT 10SM CLR 03/M12 A3024 RMK AO2 SLP239 T00281122 10028 21044 56020 $

KGED Airport Info (Airnav.com)

KGED Flight Activity (Flightaware)

Listeners: 0 out of 1506 total

Georgetown ASOS: 118.375

KGED Clearance Delivery (Archives)
Georgetown, Delaware, United States

Feed Status: UP
Listen in your browser - HTML5 player(in browser, HTML5)
Click here to listen with your own player(launches your MP3 player)

KGED 241754Z AUTO 31010G16KT 10SM CLR 03/M12 A3024 RMK AO2 SLP239 T00281122 10028 21044 56020 $

KGED Airport Info (Airnav.com)

KGED Flight Activity (Flightaware)

Listeners: 0 out of 1506 total

Georgetown Clearance Delivery (Dover Approach): 125.550

KGED CTAF (Archives)
Georgetown, Delaware, United States

Feed Status: UP
Listen in your browser - HTML5 player(in browser, HTML5)
Click here to listen with your own player(launches your MP3 player)

KGED 241754Z AUTO 31010G16KT 10SM CLR 03/M12 A3024 RMK AO2 SLP239 T00281122 10028 21044 56020 $

KGED Airport Info (Airnav.com)

KGED Flight Activity (Flightaware)

Listeners: 0 out of 1506 total

Georgetown CTAF: 123.000

KGFK Approach (Archives)
Grand Forks, North Dakota, United States

Feed Status: UP
Listen in your browser - HTML5 player(in browser, HTML5)
Click here to listen with your own player(launches your MP3 player)

KGFK 241753Z VRB04KT 10SM FEW060 M17/M23 A3021 RMK AO2 SLP254 4/001 T11671228 11167 21194 51003 $

KGFK Airport Info (Airnav.com)

KGFK Flight Activity (Flightaware)

Listeners: 1 out of 1506 total

Grand Forks Approach: 118.100
Grand Forks Approach (VFR): 132.300

KGFK ATIS (Archives)
Grand Forks, North Dakota, United States

Feed Status: UP
Listen in your browser - HTML5 player(in browser, HTML5)
Click here to listen with your own player(launches your MP3 player)

KGFK 241753Z VRB04KT 10SM FEW060 M17/M23 A3021 RMK AO2 SLP254 4/001 T11671228 11167 21194 51003 $

KGFK Airport Info (Airnav.com)

KGFK Flight Activity (Flightaware)

Listeners: 1 out of 1506 total

Grand Forks ATIS: 119.400

KGFK Ground (Archives)
Grand Forks, North Dakota, United States

Feed Status: UP
Listen in your browser - HTML5 player(in browser, HTML5)
Click here to listen with your own player(launches your MP3 player)

KGFK 241753Z VRB04KT 10SM FEW060 M17/M23 A3021 RMK AO2 SLP254 4/001 T11671228 11167 21194 51003 $

KGFK Airport Info (Airnav.com)

KGFK Flight Activity (Flightaware)

Listeners: 2 out of 1506 total

Grand Forks Ground: 124.575

KGFK Tower 1 (118.4/IFR/VFR) (Archives)
Grand Forks, North Dakota, United States

Feed Status: UP
Listen in your browser - HTML5 player(in browser, HTML5)
Click here to listen with your own player(launches your MP3 player)

KGFK 241753Z VRB04KT 10SM FEW060 M17/M23 A3021 RMK AO2 SLP254 4/001 T11671228 11167 21194 51003 $

KGFK Airport Info (Airnav.com)

KGFK Flight Activity (Flightaware)

Listeners: 2 out of 1506 total

Grand Forks Tower (IFR/VFR): 118.400

KGFK Tower 2 (120.55/VFR) (Archives)
Grand Forks, North Dakota, United States

Feed Status: UP
Listen in your browser - HTML5 player(in browser, HTML5)
Click here to listen with your own player(launches your MP3 player)

KGFK 241753Z VRB04KT 10SM FEW060 M17/M23 A3021 RMK AO2 SLP254 4/001 T11671228 11167 21194 51003 $

KGFK Airport Info (Airnav.com)

KGFK Flight Activity (Flightaware)

Listeners: 3 out of 1506 total

Grand Forks Tower (VFR): 120.550

KGFL CTAF/App (Archives)
Glens Falls, New York, United States

Feed Status: UP
Listen in your browser - HTML5 player(in browser, HTML5)
Click here to listen with your own player(launches your MP3 player)

KGFL 241753Z AUTO 34012G22KT 10SM CLR M05/M20 A3010 RMK AO2 SLP205 T10501200 11050 21150 58024 $

KGFL Airport Info (Airnav.com)

KGFL Flight Activity (Flightaware)

Listeners: 0 out of 1506 total

Albany Approach: 118.050
Albany Approach: 132.825
Glens Falls Unicom: 123.000
Unicom (Granville, Schroon Lake, Argyle, Heber Air: 122.900
Unicom (Saratoga Co., Rutland, Ticonderoga, Round : 122.800

KGGG App/Dep (Archives)
Longview, Texas, United States

Feed Status: UP
Listen in your browser - HTML5 player(in browser, HTML5)
Click here to listen with your own player(launches your MP3 player)

KGGG 241753Z 00000KT 10SM OVC002 13/12 A2997 RMK AO2 SLP150 T01330122 10133 20100 58013

KGGG Airport Info (Airnav.com)

KGGG Flight Activity (Flightaware)

Listeners: 0 out of 1506 total

Longview Approach (East): 127.325
Longview Approach (West): 128.750

KGGG Gnd/Twr (Archives)
Longview, Texas, United States

Feed Status: UP
Listen in your browser - HTML5 player(in browser, HTML5)
Click here to listen with your own player(launches your MP3 player)

KGGG 241753Z 00000KT 10SM OVC002 13/12 A2997 RMK AO2 SLP150 T01330122 10133 20100 58013

KGGG Airport Info (Airnav.com)

KGGG Flight Activity (Flightaware)

Listeners: 0 out of 1506 total

EastTex Ground: 121.600
EastTex Tower: 119.200

KGIF ASOS (Archives)
Winter Haven, Florida, United States

Feed Status: UP
Listen in your browser - HTML5 player(in browser, HTML5)
Click here to listen with your own player(launches your MP3 player)

KGIF 241753Z AUTO 25004KT 10SM FEW047 24/16 A3013 RMK AO2 SLP201 T02440156 10250 20144 58018

KGIF Airport Info (Airnav.com)

KGIF Flight Activity (Flightaware)

Listeners: 0 out of 1506 total

Winter Haven ASOS: 133.675

KGIF CTAF/GCO/Guard (Archives)
Winter Haven, Florida, United States

Feed Status: UP
Listen in your browser - HTML5 player(in browser, HTML5)
Click here to listen with your own player(launches your MP3 player)

KGIF 241753Z AUTO 25004KT 10SM FEW047 24/16 A3013 RMK AO2 SLP201 T02440156 10250 20144 58018

KGIF Airport Info (Airnav.com)

KGIF Flight Activity (Flightaware)

Listeners: 0 out of 1506 total

Emergency/Guard: 121.500
Winter Haven CTAF: 123.050
Winter Haven GCO (Clearance Delivery): 121.725

KGIF GCO/Guard (Archives)
Winter Haven, Florida, United States

Feed Status: UP
Listen in your browser - HTML5 player(in browser, HTML5)
Click here to listen with your own player(launches your MP3 player)

KGIF 241753Z AUTO 25004KT 10SM FEW047 24/16 A3013 RMK AO2 SLP201 T02440156 10250 20144 58018

KGIF Airport Info (Airnav.com)

KGIF Flight Activity (Flightaware)

Listeners: 0 out of 1506 total

Emergency/Guard: 121.500
Winter Haven GCO (Clearance Delivery): 121.725

KGIF/F57 CTAF (Archives)
Winter Haven, Florida, United States

Feed Status: UP
Listen in your browser - HTML5 player(in browser, HTML5)
Click here to listen with your own player(launches your MP3 player)

KGIF 241753Z AUTO 25004KT 10SM FEW047 24/16 A3013 RMK AO2 SLP201 T02440156 10250 20144 58018

KGIF Airport Info (Airnav.com)

KGIF Flight Activity (Flightaware)

Listeners: 0 out of 1506 total

Winter Haven CTAF: 123.050

KGJT Gnd/Twr/App/ZDV (Archives)
Grand Junction, Colorado, United States

Feed Status: UP
Listen in your browser - HTML5 player(in browser, HTML5)
Click here to listen with your own player(launches your MP3 player)

KGJT 241755Z 10011KT 1 3/4SM -SN BR BKN028 OVC041 M01/M03 A2980 RMK AO2 P0000 T10061028

KGJT Airport Info (Airnav.com)

KGJT Flight Activity (Flightaware)

Listeners: 1 out of 1506 total

Denver Approach: 119.700
Denver Center (Sector 11 Grand Junction Low): 134.500
Grand Junction Ground: 121.700
Grand Junction Tower: 118.100

KGKY Ground/Tower (Archives)
Arlington, Texas, United States

Feed Status: UP
Listen in your browser - HTML5 player(in browser, HTML5)
Click here to listen with your own player(launches your MP3 player)

KGKY 241753Z VRB03KT 1SM BR OVC004 15/14 A2995 RMK AO2 SFC VIS 1 3/4 SLP137 T01500139 10150 20128 58004

KGKY Airport Info (Airnav.com)

KGKY Flight Activity (Flightaware)

Listeners: 0 out of 1506 total

Arlington Ground: 121.875
Arlington Tower: 128.625

KGMU ATIS (Archives)
Greenville, South Carolina, United States

Feed Status: UP
Listen in your browser - HTML5 player(in browser, HTML5)
Click here to listen with your own player(launches your MP3 player)

KGMU 241753Z 17005KT 10SM CLR 11/M10 A3023 RMK AO2 SLP238 T01061100 10106 20011 58029 $

KGMU Airport Info (Airnav.com)

KGMU Flight Activity (Flightaware)

Listeners: 0 out of 1506 total

Greenville ATIS: 127.075

KGMU Ground (Archives)
Greenville, South Carolina, United States

Feed Status: UP
Listen in your browser - HTML5 player(in browser, HTML5)
Click here to listen with your own player(launches your MP3 player)

KGMU 241753Z 17005KT 10SM CLR 11/M10 A3023 RMK AO2 SLP238 T01061100 10106 20011 58029 $

KGMU Airport Info (Airnav.com)

KGMU Flight Activity (Flightaware)

Listeners: 0 out of 1506 total

Greenville Ground: 121.250

KGMU Ground/Tower (Archives)
Greenville, South Carolina, United States

Feed Status: UP
Listen in your browser - HTML5 player(in browser, HTML5)
Click here to listen with your own player(launches your MP3 player)

KGMU 241753Z 17005KT 10SM CLR 11/M10 A3023 RMK AO2 SLP238 T01061100 10106 20011 58029 $

KGMU Airport Info (Airnav.com)

KGMU Flight Activity (Flightaware)

Listeners: 0 out of 1506 total

Greenville Ground: 121.250
Greenville Tower: 119.900

KGMU Tower (Archives)
Greenville, South Carolina, United States

Feed Status: UP
Listen in your browser - HTML5 player(in browser, HTML5)
Click here to listen with your own player(launches your MP3 player)

KGMU 241753Z 17005KT 10SM CLR 11/M10 A3023 RMK AO2 SLP238 T01061100 10106 20011 58029 $

KGMU Airport Info (Airnav.com)

KGMU Flight Activity (Flightaware)

Listeners: 0 out of 1506 total

Greenville Tower: 119.900

KGNV Ground/Tower (Archives)
Gainesville, Florida, United States

Feed Status: UP
Listen in your browser - HTML5 player(in browser, HTML5)
Click here to listen with your own player(launches your MP3 player)

KGNV 241753Z 12009KT 10SM SCT012 OVC037 19/16 A3017 RMK AO2 SLP216 60002 T01890156 10189 20128 56021

KGNV Airport Info (Airnav.com)

KGNV Flight Activity (Flightaware)

Listeners: 1 out of 1506 total

Gainesville Ground: 121.700
Gainesville Tower: 119.550

KGPT App/Dep (Archives)
Gulfport, Mississippi, United States

Feed Status: UP
Listen in your browser - HTML5 player(in browser, HTML5)
Click here to listen with your own player(launches your MP3 player)

KGPT 241753Z 13013KT 10SM OVC006 19/17 A3008 RMK AO2 SLP184 T01940167 10194 20150 58013

KGPT Airport Info (Airnav.com)

KGPT Flight Activity (Flightaware)

Listeners: 0 out of 1506 total

Gulfport Approach/Departure: 124.600
Gulfport Approach/Departure: 127.500

KGPT App/Dep #1 (Archives)
Gulfport, Mississippi, United States

Feed Status: UP
Listen in your browser - HTML5 player(in browser, HTML5)
Click here to listen with your own player(launches your MP3 player)

KGPT 241753Z 13013KT 10SM OVC006 19/17 A3008 RMK AO2 SLP184 T01940167 10194 20150 58013

KGPT Airport Info (Airnav.com)

KGPT Flight Activity (Flightaware)

Listeners: 0 out of 1506 total

Gulfport Approach/Departure: 124.600

KGPT App/Dep #2 (Archives)
Gulfport, Mississippi, United States

Feed Status: UP
Listen in your browser - HTML5 player(in browser, HTML5)
Click here to listen with your own player(launches your MP3 player)

KGPT 241753Z 13013KT 10SM OVC006 19/17 A3008 RMK AO2 SLP184 T01940167 10194 20150 58013

KGPT Airport Info (Airnav.com)

KGPT Flight Activity (Flightaware)

Listeners: 0 out of 1506 total

Gulfport Approach/Departure: 127.500

KGPT Approach (Final) (Archives)
Gulfport, Mississippi, United States

Feed Status: UP
Listen in your browser - HTML5 player(in browser, HTML5)
Click here to listen with your own player(launches your MP3 player)

KGPT 241753Z 13013KT 10SM OVC006 19/17 A3008 RMK AO2 SLP184 T01940167 10194 20150 58013

KGPT Airport Info (Airnav.com)

KGPT Flight Activity (Flightaware)

Listeners: 0 out of 1506 total

Gulfport Approach (Final): 126.750

KGPT ATIS (Archives)
Gulfport, Mississippi, United States

Feed Status: UP
Listen in your browser - HTML5 player(in browser, HTML5)
Click here to listen with your own player(launches your MP3 player)

KGPT 241753Z 13013KT 10SM OVC006 19/17 A3008 RMK AO2 SLP184 T01940167 10194 20150 58013

KGPT Airport Info (Airnav.com)

KGPT Flight Activity (Flightaware)

Listeners: 0 out of 1506 total

Gulfport ATIS: 119.450

KGPT Emergency/Guard (Archives)
Gulfport, Mississippi, United States

Feed Status: UP
Listen in your browser - HTML5 player(in browser, HTML5)
Click here to listen with your own player(launches your MP3 player)

KGPT 241753Z 13013KT 10SM OVC006 19/17 A3008 RMK AO2 SLP184 T01940167 10194 20150 58013

KGPT Airport Info (Airnav.com)

KGPT Flight Activity (Flightaware)

Listeners: 0 out of 1506 total

Emergency/Guard: 121.500

KGPT Gnd/Twr (Archives)
Gulfport, Mississippi, United States

Feed Status: UP
Listen in your browser - HTML5 player(in browser, HTML5)
Click here to listen with your own player(launches your MP3 player)

KGPT 241753Z 13013KT 10SM OVC006 19/17 A3008 RMK AO2 SLP184 T01940167 10194 20150 58013

KGPT Airport Info (Airnav.com)

KGPT Flight Activity (Flightaware)

Listeners: 0 out of 1506 total

Gulfport Ground: 120.400
Gulfport Tower: 123.700

KGPT Ground (Archives)
Gulfport, Mississippi, United States

Feed Status: UP
Listen in your browser - HTML5 player(in browser, HTML5)
Click here to listen with your own player(launches your MP3 player)

KGPT 241753Z 13013KT 10SM OVC006 19/17 A3008 RMK AO2 SLP184 T01940167 10194 20150 58013

KGPT Airport Info (Airnav.com)

KGPT Flight Activity (Flightaware)

Listeners: 0 out of 1506 total

Gulfport Ground: 120.400

KGPT Tower (Archives)
Gulfport, Mississippi, United States

Feed Status: UP
Listen in your browser - HTML5 player(in browser, HTML5)
Click here to listen with your own player(launches your MP3 player)

KGPT 241753Z 13013KT 10SM OVC006 19/17 A3008 RMK AO2 SLP184 T01940167 10194 20150 58013

KGPT Airport Info (Airnav.com)

KGPT Flight Activity (Flightaware)

Listeners: 0 out of 1506 total

Gulfport Tower: 123.700

KGQQ CTAF/Del/App (Archives)
Galion, Ohio, United States

Feed Status: UP
Listen in your browser - HTML5 player(in browser, HTML5)
Click here to listen with your own player(launches your MP3 player)

KGQQ Airport Info (Airnav.com)

KGQQ Flight Activity (Flightaware)

Listeners: 0 out of 1506 total

Galion Clearance Delivery: 126.800
Galion CTAF/UNICOM: 122.800
Mansfield Approach: 124.200

KGRK Twr/App
Fort Hood (Killeen), Texas, United States

Feed Status: DOWN
Offline since: 2019-11-24 15:09:39 UTC

KGRK 201758Z AUTO 06003KT 7SM OVC009 08/06 A3028 RMK AO2 RAB1658E19 SLP257 P0000 60008 T00770059 10079 20064 58022

KGRK Airport Info (Airnav.com)

Gray Tower: 120.750

KGTU Gnd/Twr (Archives)
Georgetown, Texas, United States

Feed Status: UP
Listen in your browser - HTML5 player(in browser, HTML5)
Click here to listen with your own player(launches your MP3 player)

KGTU 241756Z AUTO 13004KT 1/4SM -RA FG OVC002 17/17 A2993 RMK AO2 SLP135 P0000 60001 T01720167 58012

KGTU Airport Info (Airnav.com)

KGTU Flight Activity (Flightaware)

Listeners: 1 out of 1506 total

Georgetown Ground: 119.125
Georgetown Tower: 120.225

KGVL AWOS (Archives)
Gainesville, Georgia, United States

Feed Status: UP
Listen in your browser - HTML5 player(in browser, HTML5)
Click here to listen with your own player(launches your MP3 player)

KGVL 241753Z AUTO 12004KT 10SM SCT028 11/M07 A3020 RMK AO2 SLP226 T01061067 10106 20028 58023

KGVL Airport Info (Airnav.com)

KGVL Flight Activity (Flightaware)

Listeners: 0 out of 1506 total

Gainesville AWOS: 126.475

KGVL CTAF/Clearance (Archives)
Gainesville, Georgia, United States

Feed Status: UP
Listen in your browser - HTML5 player(in browser, HTML5)
Click here to listen with your own player(launches your MP3 player)

KGVL 241753Z AUTO 12004KT 10SM SCT028 11/M07 A3020 RMK AO2 SLP226 T01061067 10106 20028 58023

KGVL Airport Info (Airnav.com)

KGVL Flight Activity (Flightaware)

Listeners: 2 out of 1506 total

Gainesville Clearance (Atlanta Center or TRACON): 134.800
Gainesville CTAF: 123.075

KGWS CTAF/Guard (Archives)
Glenwood Springs, Colorado, United States

Feed Status: UP
Listen in your browser - HTML5 player(in browser, HTML5)
Click here to listen with your own player(launches your MP3 player)

KGWS Airport Info (Airnav.com)

KGWS Flight Activity (Flightaware)

Listeners: 0 out of 1506 total

Emergency/Guard: 121.500
Glenwood Springs CTAF: 123.000

KGXY RCO (Denver Radio) (Archives)
Greeley, Colorado, United States

Feed Status: UP
Listen in your browser - HTML5 player(in browser, HTML5)
Click here to listen with your own player(launches your MP3 player)

KGXY 241756Z AUTO 14004KT 10SM OVC020 M01/M06 A2986 RMK AO2 SLP151 T10111056 11011 21033 58014 FZRANO

KGXY Airport Info (Airnav.com)

KGXY Flight Activity (Flightaware)

Listeners: 1 out of 1506 total

Greeley RCO (Denver Radio): 122.650

KGYH Tower (Archives)
Greenville, South Carolina, United States

Feed Status: UP
Listen in your browser - HTML5 player(in browser, HTML5)
Click here to listen with your own player(launches your MP3 player)

KGMU 241753Z 17005KT 10SM CLR 11/M10 A3023 RMK AO2 SLP238 T01061100 10106 20011 58029 $

KGMU Airport Info (Airnav.com)

KGMU Flight Activity (Flightaware)

Listeners: 0 out of 1506 total

Donaldson Tower: 133.325

KGYI ATIS (Archives)
Sherman/Denison, Texas, United States

Feed Status: UP
Listen in your browser - HTML5 player(in browser, HTML5)
Click here to listen with your own player(launches your MP3 player)

KGYI 241750Z 00000KT 1 3/4SM BR OVC002 11/10 A2999

KGYI Airport Info (Airnav.com)

KGYI Flight Activity (Flightaware)

Listeners: 0 out of 1506 total

North Texas ATIS: 118.775

KGYI Ground/Tower (Archives)
Sherman/Denison, Texas, United States

Feed Status: UP
Listen in your browser - HTML5 player(in browser, HTML5)
Click here to listen with your own player(launches your MP3 player)

KGYI 241750Z 00000KT 1 3/4SM BR OVC002 11/10 A2999

KGYI Airport Info (Airnav.com)

KGYI Flight Activity (Flightaware)

Listeners: 0 out of 1506 total

North Texas Ground: 124.125
North Texas Tower: 120.575

KGYR Ground (Archives)
Goodyear, Arizona, United States

Feed Status: UP
Listen in your browser - HTML5 player(in browser, HTML5)
Click here to listen with your own player(launches your MP3 player)

KGYR 241747Z 22007KT 10SM SCT035 BKN060 BKN200 11/08 A2986

KGYR Airport Info (Airnav.com)

KGYR Flight Activity (Flightaware)

Listeners: 1 out of 1506 total

Goodyear Ground: 121.700

KGYR Ground/Tower (Archives)
Goodyear, Arizona, United States

Feed Status: UP
Listen in your browser - HTML5 player(in browser, HTML5)
Click here to listen with your own player(launches your MP3 player)

KGYR 241747Z 22007KT 10SM SCT035 BKN060 BKN200 11/08 A2986

KGYR Airport Info (Airnav.com)

KGYR Flight Activity (Flightaware)

Listeners: 1 out of 1506 total

Goodyear Ground: 121.700
Goodyear Tower: 120.100

KGYR Tower (Archives)
Goodyear, Arizona, United States

Feed Status: UP
Listen in your browser - HTML5 player(in browser, HTML5)
Click here to listen with your own player(launches your MP3 player)

KGYR 241747Z 22007KT 10SM SCT035 BKN060 BKN200 11/08 A2986

KGYR Airport Info (Airnav.com)

KGYR Flight Activity (Flightaware)

Listeners: 0 out of 1506 total

Goodyear Tower: 120.100

KHBG CTAF (Air Race Classic)
Hattiesburg, Mississippi, United States

Feed Status: DOWN
Offline since: 2019-07-19 17:38:22 UTC

Hattiesburg CTAF: 122.800

KHBZ CTAF (Archives)
Heber Springs, Arkansas, United States

Feed Status: UP
Listen in your browser - HTML5 player(in browser, HTML5)
Click here to listen with your own player(launches your MP3 player)

KHBZ Airport Info (Airnav.com)

KHBZ Flight Activity (Flightaware)

Listeners: 0 out of 1506 total

Heber Springs CTAF/UNICOM: 122.700

KHDC De/Gnd/Twr/App/ZHU (Archives)
Hammond, Louisiana, United States

Feed Status: UP
Listen in your browser - HTML5 player(in browser, HTML5)
Click here to listen with your own player(launches your MP3 player)

KHDC 241735Z AUTO 18009KT 10SM OVC005 18/17 A3008 RMK AO2

KHDC Airport Info (Airnav.com)

KHDC Flight Activity (Flightaware)

Listeners: 0 out of 1506 total

Hammond CTAF: 122.700
Hammond Ground: 119.850
Hammond Tower: 120.575
Houston Center (Low): 126.350
New Orleans Approach (West): 125.500
New Orleans Clearance/Approach: 119.300

KHEF Del/Gnd/Twr (Archives)
Manassas, Virginia, United States

Feed Status: UP
Listen in your browser - HTML5 player(in browser, HTML5)
Click here to listen with your own player(launches your MP3 player)

KHEF 241756Z 24004KT 10SM CLR 02/M11 A3026 RMK AO2 PRESFR SLP256 T00221106 10028 21056 58025 FZRANO

KHEF Airport Info (Airnav.com)

KHEF Flight Activity (Flightaware)

Listeners: 0 out of 1506 total

Manassas Clearance Delivery (after Tower closes): 120.200
Manassas Ground: 121.800
Manassas Tower: 133.100

KHFD Ground/Tower (Archives)
Hartford, Connecticut, United States

Feed Status: UP
Listen in your browser - HTML5 player(in browser, HTML5)
Click here to listen with your own player(launches your MP3 player)

KHFD 241753Z 31016G25KT 10SM CLR M02/M21 A3005 RMK AO2 PK WND 31030/1732 SLP176 T10171211 11011 21078 58023

KHFD Airport Info (Airnav.com)

KHFD Flight Activity (Flightaware)

Listeners: 0 out of 1506 total

Brainard Ground: 121.600
Brainard Tower: 119.600

KHGR Tower (Archives)
Hagerstown, Maryland, United States

Feed Status: UP
Listen in your browser - HTML5 player(in browser, HTML5)
Click here to listen with your own player(launches your MP3 player)

KMRB 241753Z 00000KT 10SM BKN090 BKN120 00/M11 A3023 RMK AO2 SLP245 T00001106 10000 21078 58029

KMRB Airport Info (Airnav.com)

KMRB Flight Activity (Flightaware)

Listeners: 0 out of 1506 total

Hagerstown Tower: 120.300

KHHR Ground/Tower
Hawthorne, California, United States

Feed Status: DOWN
Offline since: 2020-10-02 19:33:05 UTC

KHHR 241753Z 09005KT 10SM CLR 11/06 A2995 RMK AO2 SLP142 60000 T01060061 10106 20056 53011 $

KHHR Airport Info (Airnav.com)

Hawthorne Ground: 125.100
Hawthorne Tower: 121.100

KHIO Ground (Archives)
Portland, Oregon, United States

Feed Status: UP
Listen in your browser - HTML5 player(in browser, HTML5)
Click here to listen with your own player(launches your MP3 player)

KHIO 241753Z 16004KT 5SM -RA BR BKN009 OVC013 03/02 A2981 RMK AO2 SLP096 P0005 60012 T00330017 10039 20033 56010

KHIO Airport Info (Airnav.com)

KHIO Flight Activity (Flightaware)

Listeners: 0 out of 1506 total

Hillsboro Ground: 121.700

KHIO Tower (Both) (Archives)
Portland, Oregon, United States

Feed Status: UP
Listen in your browser - HTML5 player(in browser, HTML5)
Click here to listen with your own player(launches your MP3 player)

KHIO 241753Z 16004KT 5SM -RA BR BKN009 OVC013 03/02 A2981 RMK AO2 SLP096 P0005 60012 T00330017 10039 20033 56010

KHIO Airport Info (Airnav.com)

KHIO Flight Activity (Flightaware)

Listeners: 1 out of 1506 total

Hillsboro Tower: 119.300
Hillsboro Tower: 132.800

KHIO Tower (Primary) (Archives)
Portland, Oregon, United States

Feed Status: UP
Listen in your browser - HTML5 player(in browser, HTML5)
Click here to listen with your own player(launches your MP3 player)

KHIO 241753Z 16004KT 5SM -RA BR BKN009 OVC013 03/02 A2981 RMK AO2 SLP096 P0005 60012 T00330017 10039 20033 56010

KHIO Airport Info (Airnav.com)

KHIO Flight Activity (Flightaware)

Listeners: 0 out of 1506 total

Hillsboro Tower: 119.300

KHKY ASOS (Archives)
Hickory, North Carolina, United States

Feed Status: UP
Listen in your browser - HTML5 player(in browser, HTML5)
Click here to listen with your own player(launches your MP3 player)

KHKY 241753Z VRB04KT 10SM OVC110 08/M12 A3021 RMK AO2 SLP227 T00781117 10078 21028 58027 $

KHKY Airport Info (Airnav.com)

KHKY Flight Activity (Flightaware)

Listeners: 0 out of 1506 total

Hickory ASOS: 118.325

KHKY Clearance Delivery (ZTL) (Archives)
Hickory, North Carolina, United States

Feed Status: UP
Listen in your browser - HTML5 player(in browser, HTML5)
Click here to listen with your own player(launches your MP3 player)

KHKY 241753Z VRB04KT 10SM OVC110 08/M12 A3021 RMK AO2 SLP227 T00781117 10078 21028 58027 $

KHKY Airport Info (Airnav.com)

KHKY Flight Activity (Flightaware)

Listeners: 0 out of 1506 total

Hickory Clearance Delivery (Atlanta Center): 124.250

KHKY Emergency/Guard (Archives)
Hickory, North Carolina, United States

Feed Status: UP
Listen in your browser - HTML5 player(in browser, HTML5)
Click here to listen with your own player(launches your MP3 player)

KHKY 241753Z VRB04KT 10SM OVC110 08/M12 A3021 RMK AO2 SLP227 T00781117 10078 21028 58027 $

KHKY Airport Info (Airnav.com)

KHKY Flight Activity (Flightaware)

Listeners: 0 out of 1506 total

Emergency/Guard: 121.500

KHKY Ground (Archives)
Hickory, North Carolina, United States

Feed Status: UP
Listen in your browser - HTML5 player(in browser, HTML5)
Click here to listen with your own player(launches your MP3 player)

KHKY 241753Z VRB04KT 10SM OVC110 08/M12 A3021 RMK AO2 SLP227 T00781117 10078 21028 58027 $

KHKY Airport Info (Airnav.com)

KHKY Flight Activity (Flightaware)

Listeners: 0 out of 1506 total

Hickory Ground: 121.700

KHKY Tower (Archives)
Hickory, North Carolina, United States

Feed Status: UP
Listen in your browser - HTML5 player(in browser, HTML5)
Click here to listen with your own player(launches your MP3 player)

KHKY 241753Z VRB04KT 10SM OVC110 08/M12 A3021 RMK AO2 SLP227 T00781117 10078 21028 58027 $

KHKY Airport Info (Airnav.com)

KHKY Flight Activity (Flightaware)

Listeners: 0 out of 1506 total

Hickory Tower: 128.150

KHMT CTAF
Hemet, California, United States

Feed Status: DOWN
Offline since: 2020-08-16 05:23:05 UTC

KHMT 241755Z AUTO 00000KT 10SM SCT022 OVC033 07/06 A2994 RMK AO2 T00710058 10075 20051

KHMT Airport Info (Airnav.com)

Hemet CTAF: 123.000

KHND Ground/Tower (Archives)
Las Vegas, Nevada, United States

Feed Status: UP
Listen in your browser - HTML5 player(in browser, HTML5)
Click here to listen with your own player(launches your MP3 player)

KHND 241756Z 00000KT 10SM CLR 08/M03 A2985 RMK AO2 SLP131 T00831028 10083 21011 53007

KHND Airport Info (Airnav.com)

KHND Flight Activity (Flightaware)

Listeners: 2 out of 1506 total

Henderson Ground: 127.800
Henderson Tower: 125.100

KHPN ATIS (Archives)
White Plains, New York, United States

Feed Status: UP
Listen in your browser - HTML5 player(in browser, HTML5)
Click here to listen with your own player(launches your MP3 player)

KHPN 241756Z 29014G18KT 10SM CLR M02/M16 A3008 RMK AO2 SLP196 T10221161 11022 21072 58021 $

KHPN Airport Info (Airnav.com)

KHPN Flight Activity (Flightaware)

Listeners: 0 out of 1506 total

Westchester County ATIS: 133.800

KHPN Del/Gnd/Tower #1 (Archives)
White Plains, New York, United States

Feed Status: UP
Listen in your browser - HTML5 player(in browser, HTML5)
Click here to listen with your own player(launches your MP3 player)

KHPN 241756Z 29014G18KT 10SM CLR M02/M16 A3008 RMK AO2 SLP196 T10221161 11022 21072 58021 $

KHPN Airport Info (Airnav.com)

KHPN Flight Activity (Flightaware)

Listeners: 2 out of 1506 total

Westchester Clearance Delivery: 127.250
Westchester Ground: 121.825
Westchester Tower: 118.575

KHPN Del/Gnd/Tower #2 (Archives)
White Plains, New York, United States

Feed Status: UP
Listen in your browser - HTML5 player(in browser, HTML5)
Click here to listen with your own player(launches your MP3 player)

KHPN 241756Z 29014G18KT 10SM CLR M02/M16 A3008 RMK AO2 SLP196 T10221161 11022 21072 58021 $

KHPN Airport Info (Airnav.com)

KHPN Flight Activity (Flightaware)

Listeners: 0 out of 1506 total

Westchester Clearance Delivery: 127.250
Westchester Ground: 121.825
Westchester Tower: 118.575

KHPN Delivery/Ground (Archives)
White Plains, New York, United States

Feed Status: UP
Listen in your browser - HTML5 player(in browser, HTML5)
Click here to listen with your own player(launches your MP3 player)

KHPN 241756Z 29014G18KT 10SM CLR M02/M16 A3008 RMK AO2 SLP196 T10221161 11022 21072 58021 $

KHPN Airport Info (Airnav.com)

KHPN Flight Activity (Flightaware)

Listeners: 0 out of 1506 total

Westchester Clearance Delivery: 127.250
Westchester Ground: 121.825

KHPN Tower (Archives)
New York, New York, United States

Feed Status: UP
Listen in your browser - HTML5 player(in browser, HTML5)
Click here to listen with your own player(launches your MP3 player)

KHPN 241756Z 29014G18KT 10SM CLR M02/M16 A3008 RMK AO2 SLP196 T10221161 11022 21072 58021 $

KHPN Airport Info (Airnav.com)

KHPN Flight Activity (Flightaware)

Listeners: 1 out of 1506 total

Westchester Tower: 118.575

KHPN Tower (Archives)
New York, New York, United States

Feed Status: UP
Listen in your browser - HTML5 player(in browser, HTML5)
Click here to listen with your own player(launches your MP3 player)

KHPN 241756Z 29014G18KT 10SM CLR M02/M16 A3008 RMK AO2 SLP196 T10221161 11022 21072 58021 $

KHPN Airport Info (Airnav.com)

KHPN Flight Activity (Flightaware)

Listeners: 1 out of 1506 total

Westchester Tower: 118.575

NY Approach (NOBBI/NYACK/HAARP) (Archives)
New York, New York, United States

Feed Status: UP
Listen in your browser - HTML5 player(in browser, HTML5)
Click here to listen with your own player(launches your MP3 player)

KHPN 241756Z 29014G18KT 10SM CLR M02/M16 A3008 RMK AO2 SLP196 T10221161 11022 21072 58021 $

KHPN Airport Info (Airnav.com)

KHPN Flight Activity (Flightaware)

Listeners: 0 out of 1506 total

New York Approach (HAARP Sector): 135.350
New York Approach (HAARP Sector): 120.800
New York Approach (NOBBI Sector): 126.400
New York Approach (NYACK Sector): 120.550

KHQZ Gnd/Twr (Archives)
Mesquite, Texas, United States

Feed Status: UP
Listen in your browser - HTML5 player(in browser, HTML5)
Click here to listen with your own player(launches your MP3 player)

KHQZ 241750Z 00000KT 4SM BR OVC003 13/13 A2996

KHQZ Airport Info (Airnav.com)

KHQZ Flight Activity (Flightaware)

Listeners: 0 out of 1506 total

Mesquite Ground: 118.850
Mesquite Tower: 120.300

KHRL Gnd/Twr/App (Archives)
Harlingen, Texas, United States

Feed Status: UP
Listen in your browser - HTML5 player(in browser, HTML5)
Click here to listen with your own player(launches your MP3 player)

KHRL 241752Z 18025G33KT 10SM SCT033 28/20 A2986 RMK AO2 PK WND 17034/1729 SLP110 T02830200 10289 20222 58012 $

KHRL Airport Info (Airnav.com)

KHRL Flight Activity (Flightaware)

Listeners: 0 out of 1506 total

Harlingen Clearance/Ground: 121.700
Harlingen Tower: 119.300
Valley Approach: 120.700

KHRO CTAF/ZME/Misc (Archives)
Harrison, Arkansas, United States

Feed Status: UP
Listen in your browser - HTML5 player(in browser, HTML5)
Click here to listen with your own player(launches your MP3 player)

KHRO 241753Z AUTO 00000KT 10SM OVC009 09/07 A3000 RMK AO2 SLP163 60001 T00940072 10094 20050 50002

KHRO Airport Info (Airnav.com)

KHRO Flight Activity (Flightaware)

Listeners: 1 out of 1506 total

Boone County CTAF: 123.000
Jonesboro FSS: 122.450
Jonesboro FSS: 255.400
KBBG Tower (aircraft only): 128.150
Memphis Center (Low): 126.850
Memphis Center (Low): 281.550
Memphis Center (Ultra-High): 133.025
Memphis Center (Ultra-High): 284.750
Springfield Approach (aircraft only): 126.350

KHUF App/Dep (Archives)
Terre Haute, Indiana, United States

Feed Status: UP
Listen in your browser - HTML5 player(in browser, HTML5)
Click here to listen with your own player(launches your MP3 player)

KHUF 241753Z 20005KT 10SM OVC006 01/M01 A3008 RMK AO2 SLP190 60006 I6001 T00061006 10006 21011 58007 $

KHUF Airport Info (Airnav.com)

KHUF Flight Activity (Flightaware)

Listeners: 0 out of 1506 total

Hulman Approach: 125.450

KHUF Emergency/Guard (Archives)
Terre Haute, Indiana, United States

Feed Status: UP
Listen in your browser - HTML5 player(in browser, HTML5)
Click here to listen with your own player(launches your MP3 player)

KHUF 241753Z 20005KT 10SM OVC006 01/M01 A3008 RMK AO2 SLP190 60006 I6001 T00061006 10006 21011 58007 $

KHUF Airport Info (Airnav.com)

KHUF Flight Activity (Flightaware)

Listeners: 0 out of 1506 total

Emergency/Guard: 121.500

KHUF Gnd/Twr (Archives)
Terre Haute, Indiana, United States

Feed Status: UP
Listen in your browser - HTML5 player(in browser, HTML5)
Click here to listen with your own player(launches your MP3 player)

KHUF 241753Z 20005KT 10SM OVC006 01/M01 A3008 RMK AO2 SLP190 60006 I6001 T00061006 10006 21011 58007 $

KHUF Airport Info (Airnav.com)

KHUF Flight Activity (Flightaware)

Listeners: 0 out of 1506 total

Hulman Ground/Clearance: 121.600
Hulman Tower: 134.725

KHUF Gnd/Twr/App (Archives)
Terre Haute, Indiana, United States

Feed Status: UP
Listen in your browser - HTML5 player(in browser, HTML5)
Click here to listen with your own player(launches your MP3 player)

KHUF 241753Z 20005KT 10SM OVC006 01/M01 A3008 RMK AO2 SLP190 60006 I6001 T00061006 10006 21011 58007 $

KHUF Airport Info (Airnav.com)

KHUF Flight Activity (Flightaware)

Listeners: 0 out of 1506 total

Hulman Approach: 125.450
Hulman Ground/Clearance: 121.600
Hulman Tower: 134.725
Indianapolis Center (Sector 35 Terre Haute Low): 132.200
Indianapolis Center (Sector 80 King High): 134.175

KHUF Ground (Archives)
Terre Haute, Indiana, United States

Feed Status: UP
Listen in your browser - HTML5 player(in browser, HTML5)
Click here to listen with your own player(launches your MP3 player)

KHUF 241753Z 20005KT 10SM OVC006 01/M01 A3008 RMK AO2 SLP190 60006 I6001 T00061006 10006 21011 58007 $

KHUF Airport Info (Airnav.com)

KHUF Flight Activity (Flightaware)

Listeners: 0 out of 1506 total

Hulman Ground/Clearance: 121.600

KHUF Tower (Archives)
Terre Haute, Indiana, United States

Feed Status: UP
Listen in your browser - HTML5 player(in browser, HTML5)
Click here to listen with your own player(launches your MP3 player)

KHUF 241753Z 20005KT 10SM OVC006 01/M01 A3008 RMK AO2 SLP190 60006 I6001 T00061006 10006 21011 58007 $

KHUF Airport Info (Airnav.com)

KHUF Flight Activity (Flightaware)

Listeners: 0 out of 1506 total

Hulman Tower: 134.725

KHUL ASOS (Archives)
Houlton, Maine, United States

Feed Status: UP
Listen in your browser - HTML5 player(in browser, HTML5)
Click here to listen with your own player(launches your MP3 player)

KHUL 241753Z AUTO 31010G20KT 10SM OVC031 M05/M13 A2956 RMK AO2 SLP020 60000 T10501128 11050 21117 51001

KHUL Airport Info (Airnav.com)

KHUL Flight Activity (Flightaware)

Listeners: 0 out of 1506 total

Houlton ASOS: 132.025

KHUL/KPQI/ZBW01/15 (Archives)
Houlton, Maine, United States

Feed Status: UP
Listen in your browser - HTML5 player(in browser, HTML5)
Click here to listen with your own player(launches your MP3 player)

KHUL 241753Z AUTO 31010G20KT 10SM OVC031 M05/M13 A2956 RMK AO2 SLP020 60000 T10501128 11050 21117 51001

KHUL Airport Info (Airnav.com)

KHUL Flight Activity (Flightaware)

Listeners: 0 out of 1506 total

Boston Center (Sector 01 Millinocket High Sector): 128.050
Boston Center (Sector 01 Millinocket High Sector): 319.100
Boston Center (Surry 15 Low Sector): 120.250
Boston Center (Surry 15 Low Sector): 346.400
Boston Center (Surry 15 Low Sector): 124.750
Emergency/Guard: 121.500
Houlton CTAF/UNICOM: 122.800
Presque Isle CTAF/UNICOM: 122.800

KHUT Ground/Twr (Archives)
Hutchinson, Kansas, United States

Feed Status: UP
Listen in your browser - HTML5 player(in browser, HTML5)
Click here to listen with your own player(launches your MP3 player)

KHUT 241752Z 02008KT 10SM OVC009 01/M02 A3006 RMK AO2 SLP179 T00111017 10011 20000 51016

KHUT Airport Info (Airnav.com)

KHUT Flight Activity (Flightaware)

Listeners: 1 out of 1506 total

Emergency/Guard: 121.500
Hutchinson Ground: 121.900
Hutchinson Tower: 118.500

KHVN Ground/Tower (Archives)
New Haven, Connecticut, United States

Feed Status: UP
Listen in your browser - HTML5 player(in browser, HTML5)
Click here to listen with your own player(launches your MP3 player)

KHVN 241753Z 32015G24KT 10SM CLR M01/M16 A3007 RMK AO2 SLP183 T10111156 11011 21061 58020

KHVN Airport Info (Airnav.com)

KHVN Flight Activity (Flightaware)

Listeners: 0 out of 1506 total

New Haven Ground: 121.700
New Haven Tower: 124.800

KHWD Ground/Tower (Archives)
Hayward, California, United States

Feed Status: UP
Listen in your browser - HTML5 player(in browser, HTML5)
Click here to listen with your own player(launches your MP3 player)

KHWD 241754Z 24009KT 9SM SCT024 OVC032 10/04 A2995 RMK AO2 SLP153 60000 T01000044 10100 20072 53001

KHWD Airport Info (Airnav.com)

KHWD Flight Activity (Flightaware)

Listeners: 0 out of 1506 total

Hayward Ground: 121.400
Hayward Tower: 118.900
Hayward Tower: 120.200

KHWO ATIS (Archives)
Hollywood, Florida, United States

Feed Status: UP
Listen in your browser - HTML5 player(in browser, HTML5)
Click here to listen with your own player(launches your MP3 player)

KHWO 241753Z 02006KT 10SM BKN033 BKN041 27/17 A3011 RMK AO2 SLP195 T02670172 10278 20183 58017 $

KHWO Airport Info (Airnav.com)

KHWO Flight Activity (Flightaware)

Listeners: 0 out of 1506 total

North Perry ATIS: 135.475

KHWO Ground (Archives)
Hollywood, Florida, United States

Feed Status: UP
Listen in your browser - HTML5 player(in browser, HTML5)
Click here to listen with your own player(launches your MP3 player)

KHWO 241753Z 02006KT 10SM BKN033 BKN041 27/17 A3011 RMK AO2 SLP195 T02670172 10278 20183 58017 $

KHWO Airport Info (Airnav.com)

KHWO Flight Activity (Flightaware)

Listeners: 0 out of 1506 total

North Perry Ground: 120.450

KHWO Tower (Both) (Archives)
Hollywood, Florida, United States

Feed Status: UP
Listen in your browser - HTML5 player(in browser, HTML5)
Click here to listen with your own player(launches your MP3 player)

KHWO 241753Z 02006KT 10SM BKN033 BKN041 27/17 A3011 RMK AO2 SLP195 T02670172 10278 20183 58017 $

KHWO Airport Info (Airnav.com)

KHWO Flight Activity (Flightaware)

Listeners: 1 out of 1506 total

North Perry Tower (Primary): 132.100
North Perry Tower (Secondary): 134.300

KHWO Tower (Primary)
Hollywood, Florida, United States

Feed Status: DOWN
Offline since: 2019-12-30 16:50:05 UTC

KHWO 241753Z 02006KT 10SM BKN033 BKN041 27/17 A3011 RMK AO2 SLP195 T02670172 10278 20183 58017 $

KHWO Airport Info (Airnav.com)

North Perry Tower (Primary): 132.100

KHWO Tower (Secondary) (Archives)
Hollywood, Florida, United States

Feed Status: UP
Listen in your browser - HTML5 player(in browser, HTML5)
Click here to listen with your own player(launches your MP3 player)

KHWO 241753Z 02006KT 10SM BKN033 BKN041 27/17 A3011 RMK AO2 SLP195 T02670172 10278 20183 58017 $

KHWO Airport Info (Airnav.com)

KHWO Flight Activity (Flightaware)

Listeners: 0 out of 1506 total

North Perry Tower (Secondary): 134.300

KHWV CTAF (Archives)
Shirley, New York, United States

Feed Status: UP
Listen in your browser - HTML5 player(in browser, HTML5)
Click here to listen with your own player(launches your MP3 player)

KHWV 241756Z AUTO 32017KT 10SM CLR M01/M15 A3009 RMK AO2 SLP189 T10111150 11011 21056 58026

KHWV Airport Info (Airnav.com)

KHWV Flight Activity (Flightaware)

Listeners: 1 out of 1506 total

Brookhaven CTAF: 122.800
Emergency/Guard: 121.500

KHXD Ground/Tower (Archives)
Hilton Head Island, South Carolina, United States

Feed Status: UP
Listen in your browser - HTML5 player(in browser, HTML5)
Click here to listen with your own player(launches your MP3 player)

KHXD 241750Z 08010KT 09SM BKN043 BKN050 14/08 A3024

KHXD Airport Info (Airnav.com)

KHXD Flight Activity (Flightaware)

Listeners: 3 out of 1506 total

Hilton Head Ground: 121.100
Hilton Head Tower: 118.975

ARINC Oceanic (Archives)
Hyannis, Massachusetts, United States

Feed Status: UP
Listen in your browser - HTML5 player(in browser, HTML5)
Click here to listen with your own player(launches your MP3 player)

KHYA 241756Z 28017G25KT 10SM CLR 00/M18 A2983 RMK AO2 PK WND 29030/1726 SLP103 T00001178 10006 21067 56023

KHYA Airport Info (Airnav.com)

KHYA Flight Activity (Flightaware)

Listeners: 0 out of 1506 total

ARINC Oceanic: 129.900

Boston Approach (Cape North) (Archives)
Hyannis, Massachusetts, United States

Feed Status: UP
Listen in your browser - HTML5 player(in browser, HTML5)
Click here to listen with your own player(launches your MP3 player)

KFMH 241745Z 30020G25KT 10SM CLR M01/M19 A2988

KFMH Airport Info (Airnav.com)

KFMH Flight Activity (Flightaware)

Listeners: 0 out of 1506 total

Boston Approach (Cape North Arrival): 118.200

KHYA ATIS (Archives)
Hyannis, Massachusetts, United States

Feed Status: UP
Listen in your browser - HTML5 player(in browser, HTML5)
Click here to listen with your own player(launches your MP3 player)

KHYA 241756Z 28017G25KT 10SM CLR 00/M18 A2983 RMK AO2 PK WND 29030/1726 SLP103 T00001178 10006 21067 56023

KHYA Airport Info (Airnav.com)

KHYA Flight Activity (Flightaware)

Listeners: 0 out of 1506 total

Hyannis ATIS: 123.800

KHYA Del/Gnd (Archives)
Hyannis, Massachusetts, United States

Feed Status: UP
Listen in your browser - HTML5 player(in browser, HTML5)
Click here to listen with your own player(launches your MP3 player)

KHYA 241756Z 28017G25KT 10SM CLR 00/M18 A2983 RMK AO2 PK WND 29030/1726 SLP103 T00001178 10006 21067 56023

KHYA Airport Info (Airnav.com)

KHYA Flight Activity (Flightaware)

Listeners: 0 out of 1506 total

Hyannis Clearance Delivery: 125.150
Hyannis Ground: 118.450

KHYA Del/Gnd/Twr (Archives)
Hyannis, Massachusetts, United States

Feed Status: UP
Listen in your browser - HTML5 player(in browser, HTML5)
Click here to listen with your own player(launches your MP3 player)

KHYA 241756Z 28017G25KT 10SM CLR 00/M18 A2983 RMK AO2 PK WND 29030/1726 SLP103 T00001178 10006 21067 56023

KHYA Airport Info (Airnav.com)

KHYA Flight Activity (Flightaware)

Listeners: 0 out of 1506 total

Hyannis Clearance Delivery: 125.150
Hyannis Ground: 118.450
Hyannis Tower: 119.500

KHYA Emergency/Guard (Archives)
Hyannis, Massachusetts, United States

Feed Status: UP
Listen in your browser - HTML5 player(in browser, HTML5)
Click here to listen with your own player(launches your MP3 player)

KHYA 241756Z 28017G25KT 10SM CLR 00/M18 A2983 RMK AO2 PK WND 29030/1726 SLP103 T00001178 10006 21067 56023

KHYA Airport Info (Airnav.com)

KHYA Flight Activity (Flightaware)

Listeners: 0 out of 1506 total

Emergency/Guard: 121.500

KHYA Tower (Archives)
Hyannis, Massachusetts, United States

Feed Status: UP
Listen in your browser - HTML5 player(in browser, HTML5)
Click here to listen with your own player(launches your MP3 player)

KHYA 241756Z 28017G25KT 10SM CLR 00/M18 A2983 RMK AO2 PK WND 29030/1726 SLP103 T00001178 10006 21067 56023

KHYA Airport Info (Airnav.com)

KHYA Flight Activity (Flightaware)

Listeners: 1 out of 1506 total

Hyannis Tower: 119.500

KHYI Gnd/Twr/Misc (Archives)
Austin, Texas, United States

Feed Status: UP
Listen in your browser - HTML5 player(in browser, HTML5)
Click here to listen with your own player(launches your MP3 player)

KHYI 241756Z 14006KT 1/2SM FG OVC003 18/18 A2991 RMK AO2 SLP123 T01830183 10183 20156 58013

KHYI Airport Info (Airnav.com)

KHYI Flight Activity (Flightaware)

Listeners: 2 out of 1506 total

Redbird FBO ASRI: 130.850
San Marcos Ground: 120.125
San Marcos Tower: 126.825

KHYS CTAF (Archives)
Hays, Kansas, United States

Feed Status: UP
Listen in your browser - HTML5 player(in browser, HTML5)
Click here to listen with your own player(launches your MP3 player)

KHYS 241756Z AUTO 04006KT 10SM OVC008 M03/M04 A3007 RMK AO2 SLP203 T10281039 11022 21044 51009 FZRANO

KHYS Airport Info (Airnav.com)

KHYS Flight Activity (Flightaware)

Listeners: 0 out of 1506 total

Hays CTAF: 122.800

KIAG Del/Gnd/Twr (Archives)
Niagara Falls, New York, United States

Feed Status: UP
Listen in your browser - HTML5 player(in browser, HTML5)
Click here to listen with your own player(launches your MP3 player)

KIAG 241753Z 16003KT 10SM FEW023 BKN028 OVC035 M04/M08 A3023 RMK AO2 SNB1657E44 SLP255 P0000 60000 T10391078 11033 21083 58023

KIAG Airport Info (Airnav.com)

KIAG Flight Activity (Flightaware)

Listeners: 0 out of 1506 total

Niagara Clearance Delivery: 119.250
Niagara Emergency/Guard: 121.500
Niagara Ground: 121.700
Niagara Tower: 118.500
Niagara UNICOM: 122.950

KIKV Del/CTAF (Archives)
Ankeny, Iowa, United States

Feed Status: UP
Listen in your browser - HTML5 player(in browser, HTML5)
Click here to listen with your own player(launches your MP3 player)

KIKV 241755Z AUTO 02009KT 10SM OVC013 M02/M04 A3011 RMK AO2

KIKV Airport Info (Airnav.com)

KIKV Flight Activity (Flightaware)

Listeners: 0 out of 1506 total

Ankeny Clearance Delivery (Des Moines via RCO): 126.650
Ankeny CTAF: 122.900

KILM Gnd/Twr/App
Wilmington, North Carolina, United States

Feed Status: DOWN
Offline since: 2021-01-24 18:08:39 UTC

KILM 241753Z 00000KT 10SM CLR 09/M07 A3028 RMK AO2 SLP254 T00891072 10089 21011 58026

KILM Airport Info (Airnav.com)

Emergency/Guard: 121.500
Wilmington Approach: 118.250
Wilmington Approach: 135.750
Wilmington Approach: 317.425
Wilmington Approach: 284.650
Wilmington Ground: 121.900
Wilmington Ground: 348.600
Wilmington Tower: 119.900
Wilmington Tower: 239.300

KILM Gnd/Twr/App/ZDC
Wilmington, North Carolina, United States

Feed Status: DOWN
Offline since: 2021-01-24 18:09:05 UTC

KILM 241753Z 00000KT 10SM CLR 09/M07 A3028 RMK AO2 SLP254 T00891072 10089 21011 58026

KILM Airport Info (Airnav.com)

Emergency/Guard: 121.500
Washington Center (Sector 35 Wilmington High): 269.150
Washington Center (Sector 35 Wilmington High): 124.025
Wilmington Approach: 317.425
Wilmington Approach: 284.650
Wilmington Approach: 135.750
Wilmington Approach: 118.250
Wilmington Ground: 121.900
Wilmington Ground: 348.600
Wilmington Tower: 239.300
Wilmington Tower: 119.900

KINF CTAF (Archives)
Inverness, Florida, United States

Feed Status: UP
Listen in your browser - HTML5 player(in browser, HTML5)
Click here to listen with your own player(launches your MP3 player)

KINF 241815Z AUTO 00000KT 10SM BKN027 BKN034 23/18 A3014 RMK AO2

KINF Airport Info (Airnav.com)

KINF Flight Activity (Flightaware)

Listeners: 0 out of 1506 total

Inverness CTAF: 122.725

KINT Ground/Tower (Archives)
Winston Salem, North Carolina, United States

Feed Status: UP
Listen in your browser - HTML5 player(in browser, HTML5)
Click here to listen with your own player(launches your MP3 player)

KINT 241754Z 19007KT 10SM SCT075 BKN120 04/M11 A3024 RMK AO2 SLP245 T00441106 10044 21028 58025

KINT Airport Info (Airnav.com)

KINT Flight Activity (Flightaware)

Listeners: 0 out of 1506 total

Winston-Salem Ground: 128.250
Winston-Salem Tower: 123.750

KCID Gnd/Twr/App/KIOW (Archives)
Iowa City, Iowa, United States

Feed Status: UP
Listen in your browser - HTML5 player(in browser, HTML5)
Click here to listen with your own player(launches your MP3 player)

KCID 241752Z 34008KT 6SM HZ BKN048 OVC100 M01/M04 A3004 RMK AO2 SLP183 T10111039 11011 21039 50002

KCID Airport Info (Airnav.com)

KCID Flight Activity (Flightaware)

Listeners: 0 out of 1506 total

Cedar Rapids Approach (091-269): 119.700
Cedar Rapids Approach (270-090): 134.050
Cedar Rapids Clearance Delivery: 125.450
Cedar Rapids Ground (0500-2330): 121.600
Cedar Rapids Tower (0500-2330): 118.700
UNICOM C17 (Marion) and surrounding area: 122.700
UNICOM IA24 Green Castle: 122.900
UNICOM KIOW (Iowa City) and surrounding area: 122.800

KIPJ CTAF/Del (Archives)
Lincolnton, North Carolina, United States

Feed Status: UP
Listen in your browser - HTML5 player(in browser, HTML5)
Click here to listen with your own player(launches your MP3 player)

KIPJ 241755Z AUTO 00000KT 10SM OVC120 08/M12 A3022 RMK AO2 T00811123 10091 21036

KIPJ Airport Info (Airnav.com)

KIPJ Flight Activity (Flightaware)

Listeners: 0 out of 1506 total

Lincolnton Clearance Delivery: 124.900
Lincolnton CTAF: 123.050

KISM Del/Gnd (Archives)
Orlando, Florida, United States

Feed Status: UP
Listen in your browser - HTML5 player(in browser, HTML5)
Click here to listen with your own player(launches your MP3 player)

KJSM Airport Info (Airnav.com)

KJSM Flight Activity (Flightaware)

Listeners: 0 out of 1506 total

Emergency/Guard: 121.500
Kissimmee Ground/Clearance Delivery: 121.700

KISM Del/Gnd/Twr (Archives)
Orlando, Florida, United States

Feed Status: UP
Listen in your browser - HTML5 player(in browser, HTML5)
Click here to listen with your own player(launches your MP3 player)

KJSM Airport Info (Airnav.com)

KJSM Flight Activity (Flightaware)

Listeners: 2 out of 1506 total

Emergency/Guard: 121.500
Kissimmee Ground/Clearance Delivery: 121.700
Kissimmee Tower/CTAF: 124.450

KISM Tower (Archives)
Orlando, Florida, United States

Feed Status: UP
Listen in your browser - HTML5 player(in browser, HTML5)
Click here to listen with your own player(launches your MP3 player)

KJSM Airport Info (Airnav.com)

KJSM Flight Activity (Flightaware)

Listeners: 0 out of 1506 total

Kissimmee Tower/CTAF: 124.450

KIWA ATIS (Archives)
Phoenix, Arizona, United States

Feed Status: UP
Listen in your browser - HTML5 player(in browser, HTML5)
Click here to listen with your own player(launches your MP3 player)

KIWA 241650Z 27003KT 10SM VCSH SCT017 BKN033 10/05 A2985

KIWA Airport Info (Airnav.com)

KIWA Flight Activity (Flightaware)

Listeners: 0 out of 1506 total

Gateway ATIS: 133.500

KIWA Clearance Delivery (Archives)
Phoenix, Arizona, United States

Feed Status: UP
Listen in your browser - HTML5 player(in browser, HTML5)
Click here to listen with your own player(launches your MP3 player)

KIWA 241650Z 27003KT 10SM VCSH SCT017 BKN033 10/05 A2985

KIWA Airport Info (Airnav.com)

KIWA Flight Activity (Flightaware)

Listeners: 0 out of 1506 total

Gateway Clearance Delivery: 135.050

KIWA Ground (Archives)
Phoenix, Arizona, United States

Feed Status: UP
Listen in your browser - HTML5 player(in browser, HTML5)
Click here to listen with your own player(launches your MP3 player)

KIWA 241650Z 27003KT 10SM VCSH SCT017 BKN033 10/05 A2985

KIWA Airport Info (Airnav.com)

KIWA Flight Activity (Flightaware)

Listeners: 0 out of 1506 total

Gateway Ground: 128.250

KIWA Tower (Archives)
Phoenix, Arizona, United States

Feed Status: UP
Listen in your browser - HTML5 player(in browser, HTML5)
Click here to listen with your own player(launches your MP3 player)

KIWA 241650Z 27003KT 10SM VCSH SCT017 BKN033 10/05 A2985

KIWA Airport Info (Airnav.com)

KIWA Flight Activity (Flightaware)

Listeners: 0 out of 1506 total

Gateway Tower (East): 124.750
Gateway Tower (West): 120.600

KIXD ASOS/ATIS (Archives)
Olathe, Kansas, United States

Feed Status: UP
Listen in your browser - HTML5 player(in browser, HTML5)
Click here to listen with your own player(launches your MP3 player)

KIXD 241753Z 36008KT 4SM BR OVC004 03/02 A3004 RMK AO2 SLP177 60003 T00330017 10033 20022 50008

KIXD Airport Info (Airnav.com)

KIXD Flight Activity (Flightaware)

Listeners: 0 out of 1506 total

New Century ATIS/ASOS: 135.325

KIXD Ground/Tower/K34 (Archives)
Olathe, Kansas, United States

Feed Status: UP
Listen in your browser - HTML5 player(in browser, HTML5)
Click here to listen with your own player(launches your MP3 player)

KIXD 241753Z 36008KT 4SM BR OVC004 03/02 A3004 RMK AO2 SLP177 60003 T00330017 10033 20022 50008

KIXD Airport Info (Airnav.com)

KIXD Flight Activity (Flightaware)

Listeners: 0 out of 1506 total

K34 CTAF: 122.800
New Century Ground: 124.300
New Century Tower: 133.000

KJFX CTAF
Jasper, Alabama, United States

Feed Status: DOWN
Offline since: 2019-12-15 18:54:39 UTC

KJFX 241755Z AUTO 00000KT 10SM OVC024 17/07 A3010 RMK AO2 PWINO

KJFX Airport Info (Airnav.com)

Walker County CTAF: 122.700

KJLN ATIS (Archives)
Joplin, Missouri, United States

Feed Status: UP
Listen in your browser - HTML5 player(in browser, HTML5)
Click here to listen with your own player(launches your MP3 player)

KJLN 241753Z 22010KT 5SM BR OVC004 08/07 A3000 RMK AO2 SLP160 60001 T00830072 10083 20033 50003

KJLN Airport Info (Airnav.com)

KJLN Flight Activity (Flightaware)

Listeners: 0 out of 1506 total

Joplin ATIS: 120.850

KJLN Ground (Archives)
Joplin, Missouri, United States

Feed Status: UP
Listen in your browser - HTML5 player(in browser, HTML5)
Click here to listen with your own player(launches your MP3 player)

KJLN 241753Z 22010KT 5SM BR OVC004 08/07 A3000 RMK AO2 SLP160 60001 T00830072 10083 20033 50003

KJLN Airport Info (Airnav.com)

KJLN Flight Activity (Flightaware)

Listeners: 0 out of 1506 total

Joplin Ground: 121.600

KJLN Ground/Tower (Archives)
Joplin, Missouri, United States

Feed Status: UP
Listen in your browser - HTML5 player(in browser, HTML5)
Click here to listen with your own player(launches your MP3 player)

KJLN 241753Z 22010KT 5SM BR OVC004 08/07 A3000 RMK AO2 SLP160 60001 T00830072 10083 20033 50003

KJLN Airport Info (Airnav.com)

KJLN Flight Activity (Flightaware)

Listeners: 0 out of 1506 total

Joplin Ground: 121.600
Joplin Tower: 119.800

KJLN Tower (Archives)
Joplin, Missouri, United States

Feed Status: UP
Listen in your browser - HTML5 player(in browser, HTML5)
Click here to listen with your own player(launches your MP3 player)

KJLN 241753Z 22010KT 5SM BR OVC004 08/07 A3000 RMK AO2 SLP160 60001 T00830072 10083 20033 50003

KJLN Airport Info (Airnav.com)

KJLN Flight Activity (Flightaware)

Listeners: 0 out of 1506 total

Joplin Tower: 119.800

KJNX AWOS (Archives)
Smithfield, North Carolina, United States

Feed Status: UP
Listen in your browser - HTML5 player(in browser, HTML5)
Click here to listen with your own player(launches your MP3 player)

KJNX 241755Z AUTO 00000KT 10SM CLR 06/M10 A3029 RMK AO2

KJNX Airport Info (Airnav.com)

KJNX Flight Activity (Flightaware)

Listeners: 0 out of 1506 total

Johnston AWOS: 120.225

KJNX CTAF (Archives)
Smithfield, North Carolina, United States

Feed Status: UP
Listen in your browser - HTML5 player(in browser, HTML5)
Click here to listen with your own player(launches your MP3 player)

KJNX 241755Z AUTO 00000KT 10SM CLR 06/M10 A3029 RMK AO2

KJNX Airport Info (Airnav.com)

KJNX Flight Activity (Flightaware)

Listeners: 1 out of 1506 total

Johnston CTAF: 122.725

KJQF Ground/Tower (Archives)
Concord, North Carolina, United States

Feed Status: UP
Listen in your browser - HTML5 player(in browser, HTML5)
Click here to listen with your own player(launches your MP3 player)

KJQF 241750Z 21006KT 10SM CLR 08/M11 A3026

KJQF Airport Info (Airnav.com)

KJQF Flight Activity (Flightaware)

Listeners: 3 out of 1506 total

Concord Ground: 121.850
Concord Tower: 134.650

KJRA/KJRB CTAF #1 (Archives)
New York, New York, United States

Feed Status: UP
Listen in your browser - HTML5 player(in browser, HTML5)
Click here to listen with your own player(launches your MP3 player)

KJRA Airport Info (Airnav.com)

KJRA Flight Activity (Flightaware)

Listeners: 0 out of 1506 total

Hudson River/New York Harbor/KJRA West 30th Street Heliport: 123.050

KJRA/KJRB CTAF #2 (Archives)
New York, New York, United States

Feed Status: UP
Listen in your browser - HTML5 player(in browser, HTML5)
Click here to listen with your own player(launches your MP3 player)


Listeners: 0 out of 1506 total

Hudson River/New York Harbor/KJRA West 30th Street Heliport: 123.050

KJRA/KJRB CTAF (Archives)
New York, New York, United States

Feed Status: UP
Listen in your browser - HTML5 player(in browser, HTML5)
Click here to listen with your own player(launches your MP3 player)

KJRA Airport Info (Airnav.com)

KJRA Flight Activity (Flightaware)

Listeners: 0 out of 1506 total

Hudson River/New York Harbor/KJRA West 30th Street Heliport: 123.050

KJWY/2TS6 CTAF/Unicom (Archives)
Midlothian/Waxahachie, Texas, United States

Feed Status: UP
Listen in your browser - HTML5 player(in browser, HTML5)
Click here to listen with your own player(launches your MP3 player)

KJWY 241755Z AUTO 07003KT 3/4SM BR OVC001 13/13 A2996 RMK AO2 60001 T01310131 10131 20111

KJWY Airport Info (Airnav.com)

KJWY Flight Activity (Flightaware)

Listeners: 0 out of 1506 total

Mid-Way CTAF/UNICOM: 122.975

Regional Approach (South/RBD)
Midlothian/Waxahachie, Texas, United States

Feed Status: DOWN
Offline since: 2020-03-29 19:10:05 UTC

KRBD Airport Info (Airnav.com)

Regional Approach (South): 125.200

KJYO AWOS (Archives)
Leesburg, Virginia, United States

Feed Status: UP
Listen in your browser - HTML5 player(in browser, HTML5)
Click here to listen with your own player(launches your MP3 player)

KJYO 241755Z AUTO 30006KT 10SM OVC110 01/M09 A3027 RMK AO2

KJYO Airport Info (Airnav.com)

KJYO Flight Activity (Flightaware)

Listeners: 0 out of 1506 total

Leesburg AWOS: 125.225

KJYO CTAF/Tower (Archives)
Leesburg, Virginia, United States

Feed Status: UP
Listen in your browser - HTML5 player(in browser, HTML5)
Click here to listen with your own player(launches your MP3 player)

KJYO 241755Z AUTO 30006KT 10SM OVC110 01/M09 A3027 RMK AO2

KJYO Airport Info (Airnav.com)

KJYO Flight Activity (Flightaware)

Listeners: 0 out of 1506 total

Leesburg CTAF: 122.975
Leesburg Tower: 127.500

KJYO Del/Gnd (Archives)
Leesburg, Virginia, United States

Feed Status: UP
Listen in your browser - HTML5 player(in browser, HTML5)
Click here to listen with your own player(launches your MP3 player)

KJYO 241755Z AUTO 30006KT 10SM OVC110 01/M09 A3027 RMK AO2

KJYO Airport Info (Airnav.com)

KJYO Flight Activity (Flightaware)

Listeners: 0 out of 1506 total

Leesburg Clearance Delivery (Potomac TRACON): 118.550
Leesburg Ground: 120.500

ZDC Sectors 12/04 (Archives)
Leesburg, Virginia, United States

Feed Status: UP
Listen in your browser - HTML5 player(in browser, HTML5)
Click here to listen with your own player(launches your MP3 player)

KIAD 241752Z 30006KT 10SM SCT095 BKN120 BKN250 02/M11 A3026 RMK AO2 SLP249 T00171111 10022 21056 58025

KIAD Airport Info (Airnav.com)

KIAD Flight Activity (Flightaware)

Listeners: 0 out of 1506 total

Washington Center (Sector 04 Pinion High): 133.975
Washington Center (Sector 12 Brooke High): 126.875
Washington Center (ZDC Guard Dog Low (Shared w/Potomac TRACON): 135.525

KLAF App/Dep (Archives)
Lafayette, Indiana, United States

Feed Status: UP
Listen in your browser - HTML5 player(in browser, HTML5)
Click here to listen with your own player(launches your MP3 player)

KLAF 241754Z 17003KT 4SM BR OVC007 00/M01 A3007 RMK AO2 CIG 004V009 SLP189 60000 I1000 I6001 T00001011 10011 21006 58008 $

KLAF Airport Info (Airnav.com)

KLAF Flight Activity (Flightaware)

Listeners: 0 out of 1506 total

Grissom Approach: 123.850

KLAF ATIS (Archives)
Lafayette, Indiana, United States

Feed Status: UP
Listen in your browser - HTML5 player(in browser, HTML5)
Click here to listen with your own player(launches your MP3 player)

KLAF 241754Z 17003KT 4SM BR OVC007 00/M01 A3007 RMK AO2 CIG 004V009 SLP189 60000 I1000 I6001 T00001011 10011 21006 58008 $

KLAF Airport Info (Airnav.com)

KLAF Flight Activity (Flightaware)

Listeners: 0 out of 1506 total

Lafayette ATIS: 127.750

KLAF Ground (Archives)
Lafayette, Indiana, United States

Feed Status: UP
Listen in your browser - HTML5 player(in browser, HTML5)
Click here to listen with your own player(launches your MP3 player)

KLAF 241754Z 17003KT 4SM BR OVC007 00/M01 A3007 RMK AO2 CIG 004V009 SLP189 60000 I1000 I6001 T00001011 10011 21006 58008 $

KLAF Airport Info (Airnav.com)

KLAF Flight Activity (Flightaware)

Listeners: 0 out of 1506 total

Lafayette Ground: 121.900

KLAF Tower (Archives)
Lafayette, Indiana, United States

Feed Status: UP
Listen in your browser - HTML5 player(in browser, HTML5)
Click here to listen with your own player(launches your MP3 player)

KLAF 241754Z 17003KT 4SM BR OVC007 00/M01 A3007 RMK AO2 CIG 004V009 SLP189 60000 I1000 I6001 T00001011 10011 21006 58008 $

KLAF Airport Info (Airnav.com)

KLAF Flight Activity (Flightaware)

Listeners: 0 out of 1506 total

Lafayette Tower: 119.600

KLAL Approach/Departure (Archives)
Lakeland, Florida, United States

Feed Status: UP
Listen in your browser - HTML5 player(in browser, HTML5)
Click here to listen with your own player(launches your MP3 player)

KLAL 241750Z 00000KT 10SM BKN030 25/16 A3013

KLAL Airport Info (Airnav.com)

KLAL Flight Activity (Flightaware)

Listeners: 0 out of 1506 total

Emergency/Guard: 121.500
Tampa Approach: 119.900
Tampa Approach (KLAL IFR Arrivals Cancelling): 120.650

KLAL ATIS (Archives)
Lakeland, Florida, United States

Feed Status: UP
Listen in your browser - HTML5 player(in browser, HTML5)
Click here to listen with your own player(launches your MP3 player)

KLAL 241750Z 00000KT 10SM BKN030 25/16 A3013

KLAL Airport Info (Airnav.com)

KLAL Flight Activity (Flightaware)

Listeners: 0 out of 1506 total

Lakeland ATIS: 118.025

KLAL Ground/Advisory (Archives)
Lakeland, Florida, United States

Feed Status: UP
Listen in your browser - HTML5 player(in browser, HTML5)
Click here to listen with your own player(launches your MP3 player)

KLAL 241750Z 00000KT 10SM BKN030 25/16 A3013

KLAL Airport Info (Airnav.com)

KLAL Flight Activity (Flightaware)

Listeners: 1 out of 1506 total

Lakeland Ground: 121.400
Lakeland Helicopter: 123.025
Lakeland IFR Ground Control: 127.100
Paradise City Advisory: 123.625
Sun 'n Fun Ground Advisory: 126.075
Warbird Parking Advisory: 125.025

KLAL Tower (Archives)
Lakeland, Florida, United States

Feed Status: UP
Listen in your browser - HTML5 player(in browser, HTML5)
Click here to listen with your own player(launches your MP3 player)

KLAL 241750Z 00000KT 10SM BKN030 25/16 A3013

KLAL Airport Info (Airnav.com)

KLAL Flight Activity (Flightaware)

Listeners: 1 out of 1506 total

Lakeland Tower: 124.500

KLBE Ground/Tower (Archives)
Latrobe, Pennsylvania, United States

Feed Status: UP
Listen in your browser - HTML5 player(in browser, HTML5)
Click here to listen with your own player(launches your MP3 player)

KLBE 241747Z 04009KT 20SM OVC070 M03/M11 A3018

KLBE Airport Info (Airnav.com)

KLBE Flight Activity (Flightaware)

Listeners: 0 out of 1506 total

Latrobe Ground: 121.800
Latrobe Tower: 125.000

KLBX CTAF (Archives)
Angleton/Lake Jackson, Texas, United States

Feed Status: UP
Listen in your browser - HTML5 player(in browser, HTML5)
Click here to listen with your own player(launches your MP3 player)

KLBX 241753Z AUTO 17018G24KT 10SM CLR 25/20 A2994 RMK AO2 PK WND 16028/1709 SLP138 T02500200 10261 20178 58010

KLBX Airport Info (Airnav.com)

KLBX Flight Activity (Flightaware)

Listeners: 0 out of 1506 total

KLBX CTAF: 123.000

KLCI AWOS (Archives)
Laconia, New Hampshire, United States

Feed Status: UP
Listen in your browser - HTML5 player(in browser, HTML5)
Click here to listen with your own player(launches your MP3 player)

KLCI 241756Z AUTO 25012G22KT 10SM CLR M06/M15 A2988 RMK AO2 SLP130 T10611150 11056 21128 55010 FZRANO

KLCI Airport Info (Airnav.com)

KLCI Flight Activity (Flightaware)

Listeners: 0 out of 1506 total

Laconia AWOS: 133.525

KLCI Del/CTAF (Archives)
Laconia, New Hampshire, United States

Feed Status: UP
Listen in your browser - HTML5 player(in browser, HTML5)
Click here to listen with your own player(launches your MP3 player)

KLCI 241756Z AUTO 25012G22KT 10SM CLR M06/M15 A2988 RMK AO2 SLP130 T10611150 11056 21128 55010 FZRANO

KLCI Airport Info (Airnav.com)

KLCI Flight Activity (Flightaware)

Listeners: 0 out of 1506 total

Laconia Clearance Delivery (Boston Approach): 119.850
Laconia CTAF: 123.000

KLDJ CTAF (Archives)
Linden, New Jersey, United States

Feed Status: UP
Listen in your browser - HTML5 player(in browser, HTML5)
Click here to listen with your own player(launches your MP3 player)

KJRA Airport Info (Airnav.com)

KJRA Flight Activity (Flightaware)

Listeners: 0 out of 1506 total

Linden CTAF: 123.000

KLEE App/Dep (Archives)
Leesburg, Florida, United States

Feed Status: UP
Listen in your browser - HTML5 player(in browser, HTML5)
Click here to listen with your own player(launches your MP3 player)

KLEE 241753Z VRB04KT 10SM FEW039 SCT055 24/18 A3014 RMK AO2 SLP205 T02440178 10244 20150 58018

KLEE Airport Info (Airnav.com)

KLEE Flight Activity (Flightaware)

Listeners: 0 out of 1506 total

Orlando Approach: 135.300
Orlando Approach: 120.225

KLEE ASOS (Archives)
Leesburg, Florida, United States

Feed Status: UP
Listen in your browser - HTML5 player(in browser, HTML5)
Click here to listen with your own player(launches your MP3 player)

KLEE 241753Z VRB04KT 10SM FEW039 SCT055 24/18 A3014 RMK AO2 SLP205 T02440178 10244 20150 58018

KLEE Airport Info (Airnav.com)

KLEE Flight Activity (Flightaware)

Listeners: 0 out of 1506 total

Leesburg ASOS: 134.325

KLEE Ground (Archives)
Leesburg, Florida, United States

Feed Status: UP
Listen in your browser - HTML5 player(in browser, HTML5)
Click here to listen with your own player(launches your MP3 player)

KLEE 241753Z VRB04KT 10SM FEW039 SCT055 24/18 A3014 RMK AO2 SLP205 T02440178 10244 20150 58018

KLEE Airport Info (Airnav.com)

KLEE Flight Activity (Flightaware)

Listeners: 0 out of 1506 total

Leesburg Ground: 121.725

KLEE Tower (Archives)
Leesburg, Florida, United States

Feed Status: UP
Listen in your browser - HTML5 player(in browser, HTML5)
Click here to listen with your own player(launches your MP3 player)

KLEE 241753Z VRB04KT 10SM FEW039 SCT055 24/18 A3014 RMK AO2 SLP205 T02440178 10244 20150 58018

KLEE Airport Info (Airnav.com)

KLEE Flight Activity (Flightaware)

Listeners: 2 out of 1506 total

Leesburg Tower: 119.350

KLFI Del/Gnd/Twr (Archives)
Hampton, Virginia, United States

Feed Status: UP
Listen in your browser - HTML5 player(in browser, HTML5)
Click here to listen with your own player(launches your MP3 player)

KLFI 201856Z 33012KT 10SM FEW030 10/M07 A3003 RMK AO2A SLP176 T01021066 $

KLFI Airport Info (Airnav.com)

KLFI Flight Activity (Flightaware)

Listeners: 0 out of 1506 total

Langley Clearance Delivery: 257.625
Langley Ground: 275.800
Langley Tower: 253.500
Langley Tower: 236.600

KLGB Clearance Delivery (Archives)
Long Beach, California, United States

Feed Status: UP
Listen in your browser - HTML5 player(in browser, HTML5)
Click here to listen with your own player(launches your MP3 player)

KLGB 241753Z 07004KT 10SM CLR 11/09 A2995 RMK AO2 SLP141 T01110094 10111 20050 51011

KLGB Airport Info (Airnav.com)

KLGB Flight Activity (Flightaware)

Listeners: 0 out of 1506 total

Long Beach Clearance Delivery: 118.150

KLGB Ground (Archives)
Long Beach, California, United States

Feed Status: UP
Listen in your browser - HTML5 player(in browser, HTML5)
Click here to listen with your own player(launches your MP3 player)

KLGB 241753Z 07004KT 10SM CLR 11/09 A2995 RMK AO2 SLP141 T01110094 10111 20050 51011

KLGB Airport Info (Airnav.com)

KLGB Flight Activity (Flightaware)

Listeners: 0 out of 1506 total

Long Beach Ground: 133.000

KLGB Tower (Archives)
Long Beach, California, United States

Feed Status: UP
Listen in your browser - HTML5 player(in browser, HTML5)
Click here to listen with your own player(launches your MP3 player)

KLGB 241753Z 07004KT 10SM CLR 11/09 A2995 RMK AO2 SLP141 T01110094 10111 20050 51011

KLGB Airport Info (Airnav.com)

KLGB Flight Activity (Flightaware)

Listeners: 2 out of 1506 total

Long Beach Tower: 119.400

KCTJ/KLGC CTAF (Archives)
LaGrange, Georgia, United States

Feed Status: UP
Listen in your browser - HTML5 player(in browser, HTML5)
Click here to listen with your own player(launches your MP3 player)

KCCO 241735Z AUTO 15008KT 10SM BKN024 15/02 A3018 RMK AO2 T01500022

KCCO Airport Info (Airnav.com)

KCCO Flight Activity (Flightaware)

Listeners: 0 out of 1506 total

KCTJ/KLGC CTAF: 122.975

KLGC CTAF (Air Race Classic)
LaGrange, Georgia, United States

Feed Status: DOWN
Offline since: 2020-04-29 17:54:05 UTC

LaGrange CTAF: 122.975

KLHZ CTAF (Archives)
Louisburg, North Carolina, United States

Feed Status: UP
Listen in your browser - HTML5 player(in browser, HTML5)
Click here to listen with your own player(launches your MP3 player)

KLHZ 241755Z AUTO 20003KT 10SM CLR 05/M10 A3029 RMK AO2

KLHZ Airport Info (Airnav.com)

KLHZ Flight Activity (Flightaware)

Listeners: 0 out of 1506 total

Louisburg CTAF/UNICOM: 123.000
Louisburg GCO: 135.075
Raleigh Approach (East): 125.300

KFTG/KEIK/KBDU/KLMO/Misc (Archives)
Longmont, Colorado, United States

Feed Status: UP
Listen in your browser - HTML5 player(in browser, HTML5)
Click here to listen with your own player(launches your MP3 player)

KDEN 241753Z 00000KT 10SM FEW020 SCT140 00/M07 A2981 RMK AO2 SLP111 T00001072 10000 21050 58013 $

KDEN Airport Info (Airnav.com)

KDEN Flight Activity (Flightaware)

Listeners: 0 out of 1506 total

Air-to-Air Fixed Wing: 122.750
Air-to-Air Informal: 123.450
Boulder CTAF: 122.725
Erie CTAF: 123.000
Front Range Tower: 120.200
KBKF Tower: 121.000
Longmont CTAF: 122.975
MULTICOM: 122.900
UNICOM: 122.950

KLMO CTAF (Archives)
Longmont, Colorado, United States

Feed Status: UP
Listen in your browser - HTML5 player(in browser, HTML5)
Click here to listen with your own player(launches your MP3 player)

KLMO 241755Z AUTO 00000KT 10SM OVC019 M01/M07 A2985 RMK AO2 T10111067

KLMO Airport Info (Airnav.com)

KLMO Flight Activity (Flightaware)

Listeners: 0 out of 1506 total

Fort Collins CTAF: 122.700
Longmont CTAF: 122.975

KLNS Ground/Tower (Archives)
Lancaster, Pennsylvania, United States

Feed Status: UP
Listen in your browser - HTML5 player(in browser, HTML5)
Click here to listen with your own player(launches your MP3 player)

KLNS 241753Z 31009KT 10SM CLR 00/M13 A3023 RMK AO2 SLP240 T00001133 10006 21056 58017

KLNS Airport Info (Airnav.com)

KLNS Flight Activity (Flightaware)

Listeners: 3 out of 1506 total

Lancaster Ground: 121.800
Lancaster Tower: 120.900

KLNS Tower (Archives)
Lancaster, Pennsylvania, United States

Feed Status: UP
Listen in your browser - HTML5 player(in browser, HTML5)
Click here to listen with your own player(launches your MP3 player)

KLNS 241753Z 31009KT 10SM CLR 00/M13 A3023 RMK AO2 SLP240 T00001133 10006 21056 58017

KLNS Airport Info (Airnav.com)

KLNS Flight Activity (Flightaware)

Listeners: 1 out of 1506 total

Lancaster Tower: 120.900

KLOU ATIS (Archives)
Louisville, Kentucky, United States

Feed Status: UP
Listen in your browser - HTML5 player(in browser, HTML5)
Click here to listen with your own player(launches your MP3 player)

KLOU 241753Z 13003KT 2 1/2SM -RA BR SCT023 BKN035 OVC060 01/M01 A3009 RMK AO2 SLP195 P0002 60010 I1000 I6000 T00111006 10017 20000 58016

KLOU Airport Info (Airnav.com)

KLOU Flight Activity (Flightaware)

Listeners: 0 out of 1506 total

Bowman ATIS: 120.025

KLOU Del/Gnd (Archives)
Louisville, Kentucky, United States

Feed Status: UP
Listen in your browser - HTML5 player(in browser, HTML5)
Click here to listen with your own player(launches your MP3 player)

KLOU 241753Z 13003KT 2 1/2SM -RA BR SCT023 BKN035 OVC060 01/M01 A3009 RMK AO2 SLP195 P0002 60010 I1000 I6000 T00111006 10017 20000 58016

KLOU Airport Info (Airnav.com)

KLOU Flight Activity (Flightaware)

Listeners: 0 out of 1506 total

Bowman Clearance Delivery: 118.900
Bowman Ground: 121.800

KLOU Del/Gnd/Twr (Archives)
Louisville, Kentucky, United States

Feed Status: UP
Listen in your browser - HTML5 player(in browser, HTML5)
Click here to listen with your own player(launches your MP3 player)

KLOU 241753Z 13003KT 2 1/2SM -RA BR SCT023 BKN035 OVC060 01/M01 A3009 RMK AO2 SLP195 P0002 60010 I1000 I6000 T00111006 10017 20000 58016

KLOU Airport Info (Airnav.com)

KLOU Flight Activity (Flightaware)

Listeners: 0 out of 1506 total

Bowman Clearance Delivery: 118.900
Bowman Ground: 121.800
Bowman Tower: 119.500

KLOU Tower (Archives)
Louisville, Kentucky, United States

Feed Status: UP
Listen in your browser - HTML5 player(in browser, HTML5)
Click here to listen with your own player(launches your MP3 player)

KLOU 241753Z 13003KT 2 1/2SM -RA BR SCT023 BKN035 OVC060 01/M01 A3009 RMK AO2 SLP195 P0002 60010 I1000 I6000 T00111006 10017 20000 58016

KLOU Airport Info (Airnav.com)

KLOU Flight Activity (Flightaware)

Listeners: 0 out of 1506 total

Bowman Tower: 119.500

KLRD Ground/Tower (Archives)
Laredo, Texas, United States

Feed Status: UP
Listen in your browser - HTML5 player(in browser, HTML5)
Click here to listen with your own player(launches your MP3 player)

KLRD 241756Z 14009KT 10SM BKN016 OVC020 23/20 A2984 RMK AO2 SLP102 T02330200 10239 20211 58007 $

KLRD Airport Info (Airnav.com)

KLRD Flight Activity (Flightaware)

Listeners: 0 out of 1506 total

Laredo Ground: 121.800
Laredo Tower: 120.100
Laredo UNICOM: 122.950

KLUK Twr/App/Dep (Archives)
Cincinnati, Ohio, United States

Feed Status: UP
Listen in your browser - HTML5 player(in browser, HTML5)
Click here to listen with your own player(launches your MP3 player)

KLUK 241753Z 15006KT 8SM -RA FEW031 BKN050 OVC080 00/M03 A3012 RMK AO2 SLP203 P0000 60002 T00001033 10006 21017 58023

KLUK Airport Info (Airnav.com)

KLUK Flight Activity (Flightaware)

Listeners: 0 out of 1506 total

Cincinnati Approach: 121.000
Cincinnati Departure: 128.700
Lunken Tower: 118.700

KLWM Ground/Tower (Archives)
Lawrence, Massachusetts, United States

Feed Status: UP
Listen in your browser - HTML5 player(in browser, HTML5)
Click here to listen with your own player(launches your MP3 player)

KLWM 241754Z 30014G32KT 10SM CLR M02/M16 A2988 RMK AO2 PK WND 30036/1725 SLP119 T10171161 11011 21078 58018

KLWM Airport Info (Airnav.com)

KLWM Flight Activity (Flightaware)

Listeners: 0 out of 1506 total

Eagle East Jet Service: 122.850
Emergency/Guard: 121.500
Four Star Aviation Jet Center: 123.300
Lawrence Clearance (after hours, Boston Approach): 126.150
Lawrence Ground: 124.300
Lawrence Tower: 119.250
Northeast Executive Jet: 130.600

KLXT CTAF (Air Race Classic)
Lee's Summit, Missouri, United States

Feed Status: DOWN
Offline since: 2019-06-27 20:24:02 UTC

Lee's Summit CTAF: 122.800

KLXT/3GV CTAF (Archives)
Lee's Summit, Missouri, United States

Feed Status: UP
Listen in your browser - HTML5 player(in browser, HTML5)
Click here to listen with your own player(launches your MP3 player)

KOJC 241753Z 01008KT 2 1/2SM BR OVC004 03/03 A3003 RMK AO2 SLP175 60002 T00330033 10033 20017 50004 $

KOJC Airport Info (Airnav.com)

KOJC Flight Activity (Flightaware)

Listeners: 0 out of 1506 total

Lee's Summit/Grain Valley CTAF: 122.800

KLXT/KMKC Area Helicopters (Archives)
Lee's Summit, Missouri, United States

Feed Status: UP
Listen in your browser - HTML5 player(in browser, HTML5)
Click here to listen with your own player(launches your MP3 player)

KOJC 241753Z 01008KT 2 1/2SM BR OVC004 03/03 A3003 RMK AO2 SLP175 60002 T00330033 10033 20017 50004 $

KOJC Airport Info (Airnav.com)

KOJC Flight Activity (Flightaware)

Listeners: 0 out of 1506 total

Helicopter Air to Air: 123.025

KLXV CTAF (Archives)
Leadville, Colorado, United States

Feed Status: UP
Listen in your browser - HTML5 player(in browser, HTML5)
Click here to listen with your own player(launches your MP3 player)

KLXV 241753Z AUTO 20007KT 10SM BKN065 OVC080 M09/M13 A2974 RMK AO2 SLP084 T10891133 11072 21194 58008 $

KLXV Airport Info (Airnav.com)

KLXV Flight Activity (Flightaware)

Listeners: 0 out of 1506 total

Leadville CTAF: 122.800

KLYH Ground (Archives)
Lynchburg, Virginia, United States

Feed Status: UP
Listen in your browser - HTML5 player(in browser, HTML5)
Click here to listen with your own player(launches your MP3 player)

KLYH 241754Z 21008KT 10SM OVC080 05/M11 A3022 RMK AO2 SLP239 T00501111 10061 21044 58023

KLYH Airport Info (Airnav.com)

KLYH Flight Activity (Flightaware)

Listeners: 0 out of 1506 total

Lynchburg Ground: 121.900

KLYH Tower (Archives)
Lynchburg, Virginia, United States

Feed Status: UP
Listen in your browser - HTML5 player(in browser, HTML5)
Click here to listen with your own player(launches your MP3 player)

KLYH 241754Z 21008KT 10SM OVC080 05/M11 A3022 RMK AO2 SLP239 T00501111 10061 21044 58023

KLYH Airport Info (Airnav.com)

KLYH Flight Activity (Flightaware)

Listeners: 0 out of 1506 total

Lynchburg Tower: 127.650

Atlanta App/Dep (SAT-P) (Archives)
Lawrenceville, Georgia, United States

Feed Status: UP
Listen in your browser - HTML5 player(in browser, HTML5)
Click here to listen with your own player(launches your MP3 player)

KLZU 241756Z 13006KT 10SM BKN030 A3019 RMK AO2 SLPNO 6//// $

KLZU Airport Info (Airnav.com)

KLZU Flight Activity (Flightaware)

Listeners: 0 out of 1506 total

Atlanta Approach/Departure (SAT-P): 126.975

KLZU Tower (Archives)
Lawrenceville, Georgia, United States

Feed Status: UP
Listen in your browser - HTML5 player(in browser, HTML5)
Click here to listen with your own player(launches your MP3 player)

KLZU 241756Z 13006KT 10SM BKN030 A3019 RMK AO2 SLPNO 6//// $

KLZU Airport Info (Airnav.com)

KLZU Flight Activity (Flightaware)

Listeners: 1 out of 1506 total

Gwinnett Tower: 124.100

KMAN/KEUL CTAF (Archives)
Nampa, Idaho, United States

Feed Status: UP
Listen in your browser - HTML5 player(in browser, HTML5)
Click here to listen with your own player(launches your MP3 player)

KMAN 241755Z AUTO 14011KT 10SM CLR M00/M00 A2984 RMK A01

KMAN Airport Info (Airnav.com)

KMAN Flight Activity (Flightaware)

Listeners: 0 out of 1506 total

Nampa/Caldwell CTAF/UNICOM: 122.700

KMCC CTAF/Del/Gnd/Twr (Archives)
Sacramento, California, United States

Feed Status: UP
Listen in your browser - HTML5 player(in browser, HTML5)
Click here to listen with your own player(launches your MP3 player)

KMCC 241755Z AUTO 14010KT 10SM BKN028 08/05 A2992 RMK AO2

KMCC Airport Info (Airnav.com)

KMCC Flight Activity (Flightaware)

Listeners: 1 out of 1506 total

McClellan Clearance Delivery: 119.825
McClellan CTAF: 122.975
McClellan Ground (temp): 118.650
McClellan Tower (temp): 119.300

KMCO App/Dep (North Satellite) (Archives)
Orlando, Florida, United States

Feed Status: UP
Listen in your browser - HTML5 player(in browser, HTML5)
Click here to listen with your own player(launches your MP3 player)

KORL 241753Z VRB03KT 10SM BKN032 OVC060 26/17 A3013 RMK AO2 SLP204 T02560172 10256 20156 58016

KORL Airport Info (Airnav.com)

KORL Flight Activity (Flightaware)

Listeners: 0 out of 1506 total

Orlando Approach (North Satellite): 135.300

KMDD ASOS (Archives)
Midland, Texas, United States

Feed Status: UP
Listen in your browser - HTML5 player(in browser, HTML5)
Click here to listen with your own player(launches your MP3 player)

KMAF 241753Z 15014KT 10SM BKN021 17/12 A2984 RMK AO2 SLP080 T01670117 10178 20122 58012

KMAF Airport Info (Airnav.com)

KMAF Flight Activity (Flightaware)

Listeners: 0 out of 1506 total

Midland Airpark ASOS: 118.125

KMDD Clearance Delivery (Archives)
Midland, Texas, United States

Feed Status: UP
Listen in your browser - HTML5 player(in browser, HTML5)
Click here to listen with your own player(launches your MP3 player)

KMAF 241753Z 15014KT 10SM BKN021 17/12 A2984 RMK AO2 SLP080 T01670117 10178 20122 58012

KMAF Airport Info (Airnav.com)

KMAF Flight Activity (Flightaware)

Listeners: 0 out of 1506 total

Midland Airpark Clearance Delivery: 121.800

KMDD CTAF (Archives)
Midland, Texas, United States

Feed Status: UP
Listen in your browser - HTML5 player(in browser, HTML5)
Click here to listen with your own player(launches your MP3 player)

KMAF 241753Z 15014KT 10SM BKN021 17/12 A2984 RMK AO2 SLP080 T01670117 10178 20122 58012

KMAF Airport Info (Airnav.com)

KMAF Flight Activity (Flightaware)

Listeners: 0 out of 1506 total

Midland Airpark CTAF: 122.700

KMDH Ground/Tower (Archives)
Carbondale/Murphysboro, Illinois, United States

Feed Status: UP
Listen in your browser - HTML5 player(in browser, HTML5)
Click here to listen with your own player(launches your MP3 player)

KMDH 241752Z 21004KT 10SM OVC007 06/03 A3005 RMK AO2 SLP178 60001 T00560033 10056 20011 58007

KMDH Airport Info (Airnav.com)

KMDH Flight Activity (Flightaware)

Listeners: 0 out of 1506 total

Carbondale Ground: 121.800
Carbondale Tower: 126.250
Carbondale Tower: 125.350

KMDQ CTAF
Huntsville, Alabama, United States

Feed Status: DOWN
Offline since: 2020-04-06 12:25:06 UTC

Huntsville Executive CTAF: 123.000

KMDT App/Dep (East) (Archives)
Harrisburg, Pennsylvania, United States

Feed Status: UP
Listen in your browser - HTML5 player(in browser, HTML5)
Click here to listen with your own player(launches your MP3 player)

KMDT 241756Z 29008KT 10SM BKN110 BKN250 M01/M13 A3024 RMK AO2 SLP244 T10061133 10000 21050 58017

KMDT Airport Info (Airnav.com)

KMDT Flight Activity (Flightaware)

Listeners: 0 out of 1506 total

Harrisburg App/Dep (East): 126.450

KMDT App/Dep (East/West) (Archives)
Harrisburg, Pennsylvania, United States

Feed Status: UP
Listen in your browser - HTML5 player(in browser, HTML5)
Click here to listen with your own player(launches your MP3 player)

KMDT 241756Z 29008KT 10SM BKN110 BKN250 M01/M13 A3024 RMK AO2 SLP244 T10061133 10000 21050 58017

KMDT Airport Info (Airnav.com)

KMDT Flight Activity (Flightaware)

Listeners: 0 out of 1506 total

Harrisburg App/Dep (East): 126.450
Harrisburg App/Dep (North): 118.250
Harrisburg App/Dep (West): 124.100

KMDT App/Dep (North) (Archives)
Harrisburg, Pennsylvania, United States

Feed Status: UP
Listen in your browser - HTML5 player(in browser, HTML5)
Click here to listen with your own player(launches your MP3 player)

KMDT 241756Z 29008KT 10SM BKN110 BKN250 M01/M13 A3024 RMK AO2 SLP244 T10061133 10000 21050 58017

KMDT Airport Info (Airnav.com)

KMDT Flight Activity (Flightaware)

Listeners: 0 out of 1506 total

Harrisburg App/Dep (North): 118.250

KMDT App/Dep (West) (Archives)
Harrisburg, Pennsylvania, United States

Feed Status: UP
Listen in your browser - HTML5 player(in browser, HTML5)
Click here to listen with your own player(launches your MP3 player)

KMDT 241756Z 29008KT 10SM BKN110 BKN250 M01/M13 A3024 RMK AO2 SLP244 T10061133 10000 21050 58017

KMDT Airport Info (Airnav.com)

KMDT Flight Activity (Flightaware)

Listeners: 0 out of 1506 total

Harrisburg App/Dep (West): 124.100

KMDT ATIS (Archives)
Harrisburg, Pennsylvania, United States

Feed Status: UP
Listen in your browser - HTML5 player(in browser, HTML5)
Click here to listen with your own player(launches your MP3 player)

KMDT 241756Z 29008KT 10SM BKN110 BKN250 M01/M13 A3024 RMK AO2 SLP244 T10061133 10000 21050 58017

KMDT Airport Info (Airnav.com)

KMDT Flight Activity (Flightaware)

Listeners: 0 out of 1506 total

Harrisburg ATIS: 118.800

KMDT Emergency/Ground (Archives)
Harrisburg, Pennsylvania, United States

Feed Status: UP
Listen in your browser - HTML5 player(in browser, HTML5)
Click here to listen with your own player(launches your MP3 player)

KMDT 241756Z 29008KT 10SM BKN110 BKN250 M01/M13 A3024 RMK AO2 SLP244 T10061133 10000 21050 58017

KMDT Airport Info (Airnav.com)

KMDT Flight Activity (Flightaware)

Listeners: 0 out of 1506 total

Emergency/Guard: 121.500

KMDT Ground (Archives)
Harrisburg, Pennsylvania, United States

Feed Status: UP
Listen in your browser - HTML5 player(in browser, HTML5)
Click here to listen with your own player(launches your MP3 player)

KMDT 241756Z 29008KT 10SM BKN110 BKN250 M01/M13 A3024 RMK AO2 SLP244 T10061133 10000 21050 58017

KMDT Airport Info (Airnav.com)

KMDT Flight Activity (Flightaware)

Listeners: 0 out of 1506 total

Harrisburg Ground: 121.700

KMDT Tower (Archives)
Harrisburg, Pennsylvania, United States

Feed Status: UP
Listen in your browser - HTML5 player(in browser, HTML5)
Click here to listen with your own player(launches your MP3 player)

KMDT 241756Z 29008KT 10SM BKN110 BKN250 M01/M13 A3024 RMK AO2 SLP244 T10061133 10000 21050 58017

KMDT Airport Info (Airnav.com)

KMDT Flight Activity (Flightaware)

Listeners: 1 out of 1506 total

Harrisburg Tower: 124.800

KMEV CTAF/Unicom (Archives)
Minden, Nevada, United States

Feed Status: UP
Listen in your browser - HTML5 player(in browser, HTML5)
Click here to listen with your own player(launches your MP3 player)

KMEV 241755Z AUTO 00000KT 1/2SM UP FZFG OVC003 M05/M06 A2982 RMK AO2

KMEV Airport Info (Airnav.com)

KMEV Flight Activity (Flightaware)

Listeners: 1 out of 1506 total

Minden CTAF/UNICOM: 123.050

KMFD ATIS (Archives)
Mansfield, Ohio, United States

Feed Status: UP
Listen in your browser - HTML5 player(in browser, HTML5)
Click here to listen with your own player(launches your MP3 player)

KMFD 241752Z 12009KT 10SM OVC070 M02/M11 A3011 RMK AO2 SLP214 T10221106 11022 21056 58027

KMFD Airport Info (Airnav.com)

KMFD Flight Activity (Flightaware)

Listeners: 0 out of 1506 total

Mansfield ATIS: 125.300

KMFE App/Dep (Archives)
Mc Allen, Texas, United States

Feed Status: UP
Listen in your browser - HTML5 player(in browser, HTML5)
Click here to listen with your own player(launches your MP3 player)

KMFE 241753Z 16017G23KT 10SM OVC033 26/18 A2986 RMK AO2 PK WND 16028/1700 SLP109 T02610183 10261 20217 58009 $

KMFE Airport Info (Airnav.com)

KMFE Flight Activity (Flightaware)

Listeners: 0 out of 1506 total

Valley Approach: 121.000
Valley Departure: 120.700

KMFE Gnd/Twr (Archives)
Mc Allen, Texas, United States

Feed Status: UP
Listen in your browser - HTML5 player(in browser, HTML5)
Click here to listen with your own player(launches your MP3 player)

KMFE 241753Z 16017G23KT 10SM OVC033 26/18 A2986 RMK AO2 PK WND 16028/1700 SLP109 T02610183 10261 20217 58009 $

KMFE Airport Info (Airnav.com)

KMFE Flight Activity (Flightaware)

Listeners: 0 out of 1506 total

Mc Allen Ground: 121.800
Mc Allen Tower: 118.500
San Angelo Radio: 122.200

KMFR App/Dep (Archives)
Medford, Oregon, United States

Feed Status: UP
Listen in your browser - HTML5 player(in browser, HTML5)
Click here to listen with your own player(launches your MP3 player)

KMFR 241753Z 36003KT 1 1/4SM -SN BR BKN003 OVC028 01/M01 A2986 RMK AO2 SLP118 P0001 60001 T00061011 10006 21011 56013

KMFR Airport Info (Airnav.com)

KMFR Flight Activity (Flightaware)

Listeners: 1 out of 1506 total

Cascade Approach/Departure: 124.300

KMFR Emergency/Guard (Archives)
Medford, Oregon, United States

Feed Status: UP
Listen in your browser - HTML5 player(in browser, HTML5)
Click here to listen with your own player(launches your MP3 player)

KMFR 241753Z 36003KT 1 1/4SM -SN BR BKN003 OVC028 01/M01 A2986 RMK AO2 SLP118 P0001 60001 T00061011 10006 21011 56013

KMFR Airport Info (Airnav.com)

KMFR Flight Activity (Flightaware)

Listeners: 0 out of 1506 total

Emergency/Guard: 121.500

KMFR Ground (Archives)
Medford, Oregon, United States

Feed Status: UP
Listen in your browser - HTML5 player(in browser, HTML5)
Click here to listen with your own player(launches your MP3 player)

KMFR 241753Z 36003KT 1 1/4SM -SN BR BKN003 OVC028 01/M01 A2986 RMK AO2 SLP118 P0001 60001 T00061011 10006 21011 56013

KMFR Airport Info (Airnav.com)

KMFR Flight Activity (Flightaware)

Listeners: 0 out of 1506 total

Medford Ground: 121.800

KMFR Ground/Tower (Archives)
Medford, Oregon, United States

Feed Status: UP
Listen in your browser - HTML5 player(in browser, HTML5)
Click here to listen with your own player(launches your MP3 player)

KMFR 241753Z 36003KT 1 1/4SM -SN BR BKN003 OVC028 01/M01 A2986 RMK AO2 SLP118 P0001 60001 T00061011 10006 21011 56013

KMFR Airport Info (Airnav.com)

KMFR Flight Activity (Flightaware)

Listeners: 1 out of 1506 total

Medford Ground: 121.800
Medford Tower: 119.400

Atlanta Approach (N. Sat) (Archives)
Marietta, Georgia, United States

Feed Status: UP
Listen in your browser - HTML5 player(in browser, HTML5)
Click here to listen with your own player(launches your MP3 player)

KRYY 241750Z 12009KT 10SM FEW025 13/M02 A3018 RMK AO2 SLP940 T01281022 10128 20044 58023 $

KRYY Airport Info (Airnav.com)

KRYY Flight Activity (Flightaware)

Listeners: 0 out of 1506 total

Atlanta Approach (North Satellite): 121.000

KMGE Ground (Archives)
Marietta, Georgia, United States

Feed Status: UP
Listen in your browser - HTML5 player(in browser, HTML5)
Click here to listen with your own player(launches your MP3 player)

KRYY 241750Z 12009KT 10SM FEW025 13/M02 A3018 RMK AO2 SLP940 T01281022 10128 20044 58023 $

KRYY Airport Info (Airnav.com)

KRYY Flight Activity (Flightaware)

Listeners: 0 out of 1506 total

Dobbins Ground: 125.300

KMGE Tower (Archives)
Marietta, Georgia, United States

Feed Status: UP
Listen in your browser - HTML5 player(in browser, HTML5)
Click here to listen with your own player(launches your MP3 player)

KRYY 241750Z 12009KT 10SM FEW025 13/M02 A3018 RMK AO2 SLP940 T01281022 10128 20044 58023 $

KRYY Airport Info (Airnav.com)

KRYY Flight Activity (Flightaware)

Listeners: 0 out of 1506 total

Dobbins Tower: 120.750

KMGW Ground/Tower (Archives)
Morgantown, West Virginia, United States

Feed Status: UP
Listen in your browser - HTML5 player(in browser, HTML5)
Click here to listen with your own player(launches your MP3 player)

KMGW 241753Z 04004KT 10SM OVC090 M02/M11 A3016 RMK AO2 SLP229 T10171106 11017 21089 58036

KMGW Airport Info (Airnav.com)

KMGW Flight Activity (Flightaware)

Listeners: 0 out of 1506 total

Morgantown Ground: 121.700
Morgantown Tower: 125.100

KMGY Air to Air (Archives)
Dayton, Ohio, United States

Feed Status: UP
Listen in your browser - HTML5 player(in browser, HTML5)
Click here to listen with your own player(launches your MP3 player)

KMGY 241753Z AUTO 11006KT 6SM -SN BR SCT012 BKN036 OVC045 M02/M04 A3008 RMK AO2 UPB34E36SNE34B36 SLP196 P0002 60004 T10171039 11011 21022 58019

KMGY Airport Info (Airnav.com)

KMGY Flight Activity (Flightaware)

Listeners: 0 out of 1506 total

Air to Air: 123.450

KMGY App/Dep (Archives)
Dayton, Ohio, United States

Feed Status: UP
Listen in your browser - HTML5 player(in browser, HTML5)
Click here to listen with your own player(launches your MP3 player)

KMGY 241753Z AUTO 11006KT 6SM -SN BR SCT012 BKN036 OVC045 M02/M04 A3008 RMK AO2 UPB34E36SNE34B36 SLP196 P0002 60004 T10171039 11011 21022 58019

KMGY Airport Info (Airnav.com)

KMGY Flight Activity (Flightaware)

Listeners: 0 out of 1506 total

Dayton Approach/Departure: 118.850

KMGY AWOS (Archives)
Dayton, Ohio, United States

Feed Status: UP
Listen in your browser - HTML5 player(in browser, HTML5)
Click here to listen with your own player(launches your MP3 player)

KMGY 241753Z AUTO 11006KT 6SM -SN BR SCT012 BKN036 OVC045 M02/M04 A3008 RMK AO2 UPB34E36SNE34B36 SLP196 P0002 60004 T10171039 11011 21022 58019

KMGY Airport Info (Airnav.com)

KMGY Flight Activity (Flightaware)

Listeners: 0 out of 1506 total

Dayton-Wright Brothers AWOS: 118.375

KMGY Clearance Delivery (Archives)
Dayton, Ohio, United States

Feed Status: UP
Listen in your browser - HTML5 player(in browser, HTML5)
Click here to listen with your own player(launches your MP3 player)

KMGY 241753Z AUTO 11006KT 6SM -SN BR SCT012 BKN036 OVC045 M02/M04 A3008 RMK AO2 UPB34E36SNE34B36 SLP196 P0002 60004 T10171039 11011 21022 58019

KMGY Airport Info (Airnav.com)

KMGY Flight Activity (Flightaware)

Listeners: 0 out of 1506 total

Dayton Clearance Delivery (KMGY): 119.400

KMGY CTAF (Archives)
Dayton, Ohio, United States

Feed Status: UP
Listen in your browser - HTML5 player(in browser, HTML5)
Click here to listen with your own player(launches your MP3 player)

KMGY 241753Z AUTO 11006KT 6SM -SN BR SCT012 BKN036 OVC045 M02/M04 A3008 RMK AO2 UPB34E36SNE34B36 SLP196 P0002 60004 T10171039 11011 21022 58019

KMGY Airport Info (Airnav.com)

KMGY Flight Activity (Flightaware)

Listeners: 0 out of 1506 total

Dayton-Wright Brothers CTAF: 122.800

KMGY Emergency/Guard (Archives)
Dayton, Ohio, United States

Feed Status: UP
Listen in your browser - HTML5 player(in browser, HTML5)
Click here to listen with your own player(launches your MP3 player)

KMGY 241753Z AUTO 11006KT 6SM -SN BR SCT012 BKN036 OVC045 M02/M04 A3008 RMK AO2 UPB34E36SNE34B36 SLP196 P0002 60004 T10171039 11011 21022 58019

KMGY Airport Info (Airnav.com)

KMGY Flight Activity (Flightaware)

Listeners: 0 out of 1506 total

Emergency/Guard: 121.500

KMHR Ground/Tower (Archives)
Sacramento, California, United States

Feed Status: UP
Listen in your browser - HTML5 player(in browser, HTML5)
Click here to listen with your own player(launches your MP3 player)

KMHR 241745Z 15008G13KT 10SM BKN200 08/06 A2992

KMHR Airport Info (Airnav.com)

KMHR Flight Activity (Flightaware)

Listeners: 3 out of 1506 total

Mather Ground: 121.850
Mather Tower: 120.650

NORCAL App (EXPO/127.4) (Archives)
Sacramento, California, United States

Feed Status: UP
Listen in your browser - HTML5 player(in browser, HTML5)
Click here to listen with your own player(launches your MP3 player)

KMHR 241745Z 15008G13KT 10SM BKN200 08/06 A2992

KMHR Airport Info (Airnav.com)

KMHR Flight Activity (Flightaware)

Listeners: 0 out of 1506 total

NORCAL Approach (EXPO Sector): 127.400

KMIC Tower/CTAF (Archives)
Minneapolis, Minnesota, United States

Feed Status: UP
Listen in your browser - HTML5 player(in browser, HTML5)
Click here to listen with your own player(launches your MP3 player)

KMIC 241753Z 32005KT 10SM CLR M05/M09 A3013 RMK AO2 SLP216 T10501094 11050 21083 50012

KMIC Airport Info (Airnav.com)

KMIC Flight Activity (Flightaware)

Listeners: 0 out of 1506 total

Crystal Tower/CTAF: 120.700

KBLM/N12/3N6/KMJX (Archives)
Toms River, New Jersey, United States

Feed Status: UP
Listen in your browser - HTML5 player(in browser, HTML5)
Click here to listen with your own player(launches your MP3 player)

KBLM 241756Z AUTO 29014G21KT 10SM CLR M01/M13 A3015 RMK AO2 SLP211 T10061133 11006 21056 58028 FZRANO

KBLM Airport Info (Airnav.com)

KBLM Flight Activity (Flightaware)

Listeners: 0 out of 1506 total

3N6 Old Bridge CTAF: 123.075
Emergency/Guard: 121.500
Monmouth Clearance: 120.950
Monmouth Clearance: 126.150
Monmouth CTAF: 123.000
N12 Lakewood CTAF: 122.800
Ocean County KMJX CTAF: 122.700

KMJX CTAF (Archives)
Toms River, New Jersey, United States

Feed Status: UP
Listen in your browser - HTML5 player(in browser, HTML5)
Click here to listen with your own player(launches your MP3 player)

KMJX 241756Z AUTO 28015G21KT 10SM CLR 00/M13 A3016 RMK AO2 SLP217 T00001128 10000 21056 58028 FZRANO

KMJX Airport Info (Airnav.com)

KMJX Flight Activity (Flightaware)

Listeners: 0 out of 1506 total

Toms River CTAF: 122.700

KLXT/KMKC Area Helicopters (Archives)
Kansas City, Missouri, United States

Feed Status: UP
Listen in your browser - HTML5 player(in browser, HTML5)
Click here to listen with your own player(launches your MP3 player)

KOJC 241753Z 01008KT 2 1/2SM BR OVC004 03/03 A3003 RMK AO2 SLP175 60002 T00330033 10033 20017 50004 $

KOJC Airport Info (Airnav.com)

KOJC Flight Activity (Flightaware)

Listeners: 0 out of 1506 total

Helicopter Air to Air: 123.025

KMKC ATIS (Archives)
Kansas City, Missouri, United States

Feed Status: UP
Listen in your browser - HTML5 player(in browser, HTML5)
Click here to listen with your own player(launches your MP3 player)

KMKC 241754Z 36006KT 10SM OVC011 04/02 A3004 RMK AO2 SLP176 T00390017 10039 20028 50006

KMKC Airport Info (Airnav.com)

KMKC Flight Activity (Flightaware)

Listeners: 0 out of 1506 total

Downtown ATIS: 120.750

KMKC Ground (Archives)
Kansas City, Missouri, United States

Feed Status: UP
Listen in your browser - HTML5 player(in browser, HTML5)
Click here to listen with your own player(launches your MP3 player)

KMKC 241754Z 36006KT 10SM OVC011 04/02 A3004 RMK AO2 SLP176 T00390017 10039 20028 50006

KMKC Airport Info (Airnav.com)

KMKC Flight Activity (Flightaware)

Listeners: 0 out of 1506 total

Downtown Ground: 121.900

KMKC Tower (Archives)
Kansas City, Missouri, United States

Feed Status: UP
Listen in your browser - HTML5 player(in browser, HTML5)
Click here to listen with your own player(launches your MP3 player)

KMKC 241754Z 36006KT 10SM OVC011 04/02 A3004 RMK AO2 SLP176 T00390017 10039 20028 50006

KMKC Airport Info (Airnav.com)

KMKC Flight Activity (Flightaware)

Listeners: 0 out of 1506 total

Downtown Tower: 133.300

KMKL Tower (Air Race Classic Start)
Jackson, Tennessee, United States

Feed Status: DOWN
Offline since: 2019-06-20 14:39:02 UTC

Jackson Tower: 127.150

KMLB Twr/App (Archives)
Melbourne, Florida, United States

Feed Status: UP
Listen in your browser - HTML5 player(in browser, HTML5)
Click here to listen with your own player(launches your MP3 player)

KMLB 241753Z 09010KT 10SM FEW014 24/19 A3011 RMK AO2 SLP196 60001 T02390194 10244 20172 58019 $

KMLB Airport Info (Airnav.com)

KMLB Flight Activity (Flightaware)

Listeners: 1 out of 1506 total

Melbourne Tower: 118.200
Orlando Approach: 132.650

KMMU ATIS (Archives)
Morristown, New Jersey, United States

Feed Status: UP
Listen in your browser - HTML5 player(in browser, HTML5)
Click here to listen with your own player(launches your MP3 player)

KMMU 241750Z 34013G25KT 10SM SCT250 M01/M13 A3014

KMMU Airport Info (Airnav.com)

KMMU Flight Activity (Flightaware)

Listeners: 0 out of 1506 total

Morristown ATIS: 124.250

KMMU Clearance Delivery (Archives)
Morristown, New Jersey, United States

Feed Status: UP
Listen in your browser - HTML5 player(in browser, HTML5)
Click here to listen with your own player(launches your MP3 player)

KMMU 241750Z 34013G25KT 10SM SCT250 M01/M13 A3014

KMMU Airport Info (Airnav.com)

KMMU Flight Activity (Flightaware)

Listeners: 0 out of 1506 total

Morristown Clearance Delivery: 128.600

KMMU Ground (Archives)
Morristown, New Jersey, United States

Feed Status: UP
Listen in your browser - HTML5 player(in browser, HTML5)
Click here to listen with your own player(launches your MP3 player)

KMMU 241750Z 34013G25KT 10SM SCT250 M01/M13 A3014

KMMU Airport Info (Airnav.com)

KMMU Flight Activity (Flightaware)

Listeners: 0 out of 1506 total

Morristown Ground: 134.200

KMMU Tower #1 (Archives)
Morristown, New Jersey, United States

Feed Status: UP
Listen in your browser - HTML5 player(in browser, HTML5)
Click here to listen with your own player(launches your MP3 player)

KMMU 241750Z 34013G25KT 10SM SCT250 M01/M13 A3014

KMMU Airport Info (Airnav.com)

KMMU Flight Activity (Flightaware)

Listeners: 0 out of 1506 total

Morristown Tower: 118.100

KMMU Tower #2 (Archives)
Morristown, New Jersey, United States

Feed Status: UP
Listen in your browser - HTML5 player(in browser, HTML5)
Click here to listen with your own player(launches your MP3 player)

KMMU 241750Z 34013G25KT 10SM SCT250 M01/M13 A3014

KMMU Airport Info (Airnav.com)

KMMU Flight Activity (Flightaware)

Listeners: 0 out of 1506 total

Morristown Tower: 118.100

KMMV CTAF (Archives)
Mc Minnville, Oregon, United States

Feed Status: UP
Listen in your browser - HTML5 player(in browser, HTML5)
Click here to listen with your own player(launches your MP3 player)

KMMV 241753Z AUTO 16004KT 8SM -RA OVC011 04/03 A2981 RMK AO2 SLP094 P0006 60023 T00390028 10044 20033 56012

KMMV Airport Info (Airnav.com)

KMMV Flight Activity (Flightaware)

Listeners: 0 out of 1506 total

Mc Minnville CTAF: 123.000

KMOR AWOS
Morristown, Tennessee, United States

Feed Status: DOWN
Offline since: 2021-01-24 00:47:39 UTC

KMOR 241755Z AUTO 00000KT 10SM OVC044 06/M07 A3013 RMK A01

KMOR Airport Info (Airnav.com)

Morristown AWOS: 126.725

KMOR Clearance Delivery
Morristown, Tennessee, United States

Feed Status: DOWN
Offline since: 2021-01-24 00:47:39 UTC

KMOR 241755Z AUTO 00000KT 10SM OVC044 06/M07 A3013 RMK A01

KMOR Airport Info (Airnav.com)

Morristown Clearance Delivery (RCO): 132.800

KMOR CTAF
Morristown, Tennessee, United States

Feed Status: DOWN
Offline since: 2021-01-24 00:47:39 UTC

KMOR 241755Z AUTO 00000KT 10SM OVC044 06/M07 A3013 RMK A01

KMOR Airport Info (Airnav.com)

Morristown CTAF: 122.800

KMQY Clearance Delivery (Archives)
Smyrna, Tennessee, United States

Feed Status: UP
Listen in your browser - HTML5 player(in browser, HTML5)
Click here to listen with your own player(launches your MP3 player)

KMQY 241756Z 15005KT 10SM SCT039 BKN055 OVC070 11/03 A3010 RMK AO2 RAE36 SLP201 6//// T01060033 10106 20039 58014 PNO $

KMQY Airport Info (Airnav.com)

KMQY Flight Activity (Flightaware)

Listeners: 0 out of 1506 total

Smyrna Clearance Delivery (after Tower closes): 121.700

KMQY Emergency/Guard (Archives)
Smyrna, Tennessee, United States

Feed Status: UP
Listen in your browser - HTML5 player(in browser, HTML5)
Click here to listen with your own player(launches your MP3 player)

KMQY 241756Z 15005KT 10SM SCT039 BKN055 OVC070 11/03 A3010 RMK AO2 RAE36 SLP201 6//// T01060033 10106 20039 58014 PNO $

KMQY Airport Info (Airnav.com)

KMQY Flight Activity (Flightaware)

Listeners: 0 out of 1506 total

Emergency/Guard: 121.500

KMQY Ground (Archives)
Smyrna, Tennessee, United States

Feed Status: UP
Listen in your browser - HTML5 player(in browser, HTML5)
Click here to listen with your own player(launches your MP3 player)

KMQY 241756Z 15005KT 10SM SCT039 BKN055 OVC070 11/03 A3010 RMK AO2 RAE36 SLP201 6//// T01060033 10106 20039 58014 PNO $

KMQY Airport Info (Airnav.com)

KMQY Flight Activity (Flightaware)

Listeners: 0 out of 1506 total

Smyrna Ground: 121.400

KMQY Ground/Tower (Archives)
Smyrna, Tennessee, United States

Feed Status: UP
Listen in your browser - HTML5 player(in browser, HTML5)
Click here to listen with your own player(launches your MP3 player)

KMQY 241756Z 15005KT 10SM SCT039 BKN055 OVC070 11/03 A3010 RMK AO2 RAE36 SLP201 6//// T01060033 10106 20039 58014 PNO $

KMQY Airport Info (Airnav.com)

KMQY Flight Activity (Flightaware)

Listeners: 0 out of 1506 total

Smyrna Ground: 121.400
Smyrna Tower: 233.100
Smyrna Tower: 118.500

KMQY Tower (Archives)
Smyrna, Tennessee, United States

Feed Status: UP
Listen in your browser - HTML5 player(in browser, HTML5)
Click here to listen with your own player(launches your MP3 player)

KMQY 241756Z 15005KT 10SM SCT039 BKN055 OVC070 11/03 A3010 RMK AO2 RAE36 SLP201 6//// T01060033 10106 20039 58014 PNO $

KMQY Airport Info (Airnav.com)

KMQY Flight Activity (Flightaware)

Listeners: 0 out of 1506 total

Smyrna Tower: 118.500
Smyrna Tower: 233.100

KMRB ATIS (Archives)
Martinsburg, West Virginia, United States

Feed Status: UP
Listen in your browser - HTML5 player(in browser, HTML5)
Click here to listen with your own player(launches your MP3 player)

KMRB 241753Z 00000KT 10SM BKN090 BKN120 00/M11 A3023 RMK AO2 SLP245 T00001106 10000 21078 58029

KMRB Airport Info (Airnav.com)

KMRB Flight Activity (Flightaware)

Listeners: 0 out of 1506 total

Martinsburg ATIS/AWOS: 119.925

KMRB Del/Gnd (Archives)
Martinsburg, West Virginia, United States

Feed Status: UP
Listen in your browser - HTML5 player(in browser, HTML5)
Click here to listen with your own player(launches your MP3 player)

KMRB 241753Z 00000KT 10SM BKN090 BKN120 00/M11 A3023 RMK AO2 SLP245 T00001106 10000 21078 58029

KMRB Airport Info (Airnav.com)

KMRB Flight Activity (Flightaware)

Listeners: 0 out of 1506 total

Martinsburg Clearance Delivery (after hours via Potomac TRACON): 132.075
Martinsburg Ground: 121.800

KMRB Emergency/Guard (Archives)
Martinsburg, West Virginia, United States

Feed Status: UP
Listen in your browser - HTML5 player(in browser, HTML5)
Click here to listen with your own player(launches your MP3 player)

KMRB 241753Z 00000KT 10SM BKN090 BKN120 00/M11 A3023 RMK AO2 SLP245 T00001106 10000 21078 58029

KMRB Airport Info (Airnav.com)

KMRB Flight Activity (Flightaware)

Listeners: 0 out of 1506 total

Emergency/Guard: 121.500

KMRB Tower/CTAF (Archives)
Martinsburg, West Virginia, United States

Feed Status: UP
Listen in your browser - HTML5 player(in browser, HTML5)
Click here to listen with your own player(launches your MP3 player)

KMRB 241753Z 00000KT 10SM BKN090 BKN120 00/M11 A3023 RMK AO2 SLP245 T00001106 10000 21078 58029

KMRB Airport Info (Airnav.com)

KMRB Flight Activity (Flightaware)

Listeners: 1 out of 1506 total

Martinsburg Tower: 124.300

KMRN CTAF (Archives)
Morganton, North Carolina, United States

Feed Status: UP
Listen in your browser - HTML5 player(in browser, HTML5)
Click here to listen with your own player(launches your MP3 player)

KHKY 241753Z VRB04KT 10SM OVC110 08/M12 A3021 RMK AO2 SLP227 T00781117 10078 21028 58027 $

KHKY Airport Info (Airnav.com)

KHKY Flight Activity (Flightaware)

Listeners: 0 out of 1506 total

Foothills CTAF: 122.700

KMSO Gnd/Twr/App/ZLC/ZSE (Archives)
Missoula, Montana, United States

Feed Status: UP
Listen in your browser - HTML5 player(in browser, HTML5)
Click here to listen with your own player(launches your MP3 player)

KMSO 241753Z 00000KT 10SM OVC090 M07/M09 A2981 RMK AO2 SLP140 I6000 T10671089 11067 21117 58004

KMSO Airport Info (Airnav.com)

KMSO Flight Activity (Flightaware)

Listeners: 2 out of 1506 total

Emergency/Guard: 121.500
Great Falls Radio Miller Peak RCO: 122.450
Minuteman Jet Center Unicom: 122.950
Missoula Ground/Clearance Delivery: 121.900
Missoula International Airport Operations: 155.820
Missoula International Airport Operations: 154.965
Missoula Tower: 118.400
Northstar Unicom: 123.300
Salt Lake Center: 132.400
Salt Lake City Center: 133.400
Seattle Center (Mullan Pass RCAG): 128.450
Spokane Approach/Departure: 124.900

KMTC App/Dep
Mount Clemens, Michigan, United States

Feed Status: DOWN
Offline since: 2020-12-01 07:30:22 UTC

KMTC 201856Z 24010KT 10SM OVC031 M03/M09 A3013 RMK AO2A SLP217 T10341087 $

KMTC Airport Info (Airnav.com)

Selfridge Approach: 119.600
Selfridge Approach: 318.200
Selfridge Approach: 391.900

KMTC Ground/Tower
Mount Clemens, Michigan, United States

Feed Status: DOWN
Offline since: 2020-12-01 07:30:22 UTC

KMTC 201856Z 24010KT 10SM OVC031 M03/M09 A3013 RMK AO2A SLP217 T10341087 $

KMTC Airport Info (Airnav.com)

Selfridge Ground: 128.300
Selfridge Ground: 275.800
Selfridge Tower: 120.150
Selfridge Tower: 225.400

KMTJ CTAF/ZDV/Guard (Archives)
Montrose, Colorado, United States

Feed Status: UP
Listen in your browser - HTML5 player(in browser, HTML5)
Click here to listen with your own player(launches your MP3 player)

KMTJ 241753Z AUTO 30004KT 10SM BKN049 OVC060 M01/M04 A2981 RMK AO2 SNB01E34 SLP099 P0000 60006 T10111039 10006 21039 58006

KMTJ Airport Info (Airnav.com)

KMTJ Flight Activity (Flightaware)

Listeners: 1 out of 1506 total

Denver Center (Sector 12 Gunnison Low): 125.350
Emergency/Guard: 121.500
Montrose CTAF: 122.800

KMTN Ground/Misc (Archives)
Baltimore, Maryland, United States

Feed Status: UP
Listen in your browser - HTML5 player(in browser, HTML5)
Click here to listen with your own player(launches your MP3 player)

KMTN 241754Z 28011KT 10SM CLR 02/M11 A3027

KMTN Airport Info (Airnav.com)

KMTN Flight Activity (Flightaware)

Listeners: 0 out of 1506 total

Helo Air to Air: 123.025
Martin Ground/Clearance: 121.800
Martin Ground/Clearance: 253.400

KMTN Tower (Archives)
Baltimore, Maryland, United States

Feed Status: UP
Listen in your browser - HTML5 player(in browser, HTML5)
Click here to listen with your own player(launches your MP3 player)

KMTN 241754Z 28011KT 10SM CLR 02/M11 A3027

KMTN Airport Info (Airnav.com)

KMTN Flight Activity (Flightaware)

Listeners: 1 out of 1506 total

Martin Tower: 121.300
Martin Tower: 254.425

KMTW CTAF (Archives)
Manitowoc, Wisconsin, United States

Feed Status: UP
Listen in your browser - HTML5 player(in browser, HTML5)
Click here to listen with your own player(launches your MP3 player)

KMTW 241756Z AUTO 27009KT 10SM UP OVC019 00/M03 A3003 RMK AO2 SNB25E40 SLP180 P0002 60003 T00001033 10000 21028 58015 FZRANO

KMTW Airport Info (Airnav.com)

KMTW Flight Activity (Flightaware)

Listeners: 0 out of 1506 total

Manitowoc CTAF: 122.800

KMWA Gnd/Twr/CTAF (Archives)
Marion, Illinois, United States

Feed Status: UP
Listen in your browser - HTML5 player(in browser, HTML5)
Click here to listen with your own player(launches your MP3 player)

KMWA 241745Z 19006KT 10SM OVC007 05/03 A3006

KMWA Airport Info (Airnav.com)

KMWA Flight Activity (Flightaware)

Listeners: 0 out of 1506 total

Marion Ground: 121.700
Marion Tower/CTAF: 128.400

KMWC Gnd/Twr (Archives)
Milwaukee, Wisconsin, United States

Feed Status: UP
Listen in your browser - HTML5 player(in browser, HTML5)
Click here to listen with your own player(launches your MP3 player)

KMKE 241752Z 23007KT 10SM BKN014 OVC025 M01/M04 A3004 RMK AO2 SLP183 4/003 933005 60011 T10061039 11006 21017 58011

KMKE Airport Info (Airnav.com)

KMKE Flight Activity (Flightaware)

Listeners: 0 out of 1506 total

Timmerman Ground: 121.700
Timmerman Tower: 120.500

KMYF ATIS (Archives)
San Diego, California, United States

Feed Status: UP
Listen in your browser - HTML5 player(in browser, HTML5)
Click here to listen with your own player(launches your MP3 player)

KSAN 241751Z 16003KT 10SM FEW030 SCT065 SCT200 13/07 A2999 RMK AO2 SLP154 60003 T01280072 10128 20083 51017

KSAN Airport Info (Airnav.com)

KSAN Flight Activity (Flightaware)

Listeners: 1 out of 1506 total

Montgomery ATIS: 126.900

KMYF Ground #2 (Archives)
San Diego, California, United States

Feed Status: UP
Listen in your browser - HTML5 player(in browser, HTML5)
Click here to listen with your own player(launches your MP3 player)

KSAN 241751Z 16003KT 10SM FEW030 SCT065 SCT200 13/07 A2999 RMK AO2 SLP154 60003 T01280072 10128 20083 51017

KSAN Airport Info (Airnav.com)

KSAN Flight Activity (Flightaware)

Listeners: 0 out of 1506 total

Montgomery Ground: 118.225

KMYF Tower (Archives)
San Diego, California, United States

Feed Status: UP
Listen in your browser - HTML5 player(in browser, HTML5)
Click here to listen with your own player(launches your MP3 player)

KMYF 241753Z 09004KT 10SM BKN039 11/07 A2996 RMK AO2 SLP146 T01060067 10106 20061 51017

KMYF Airport Info (Airnav.com)

KMYF Flight Activity (Flightaware)

Listeners: 0 out of 1506 total

Montgomery Tower: 125.700
Montgomery Tower/CTAF: 119.200

KMYF Tower (Primary) (Archives)
San Diego, California, United States

Feed Status: UP
Listen in your browser - HTML5 player(in browser, HTML5)
Click here to listen with your own player(launches your MP3 player)

KSAN 241751Z 16003KT 10SM FEW030 SCT065 SCT200 13/07 A2999 RMK AO2 SLP154 60003 T01280072 10128 20083 51017

KSAN Airport Info (Airnav.com)

KSAN Flight Activity (Flightaware)

Listeners: 1 out of 1506 total

Montgomery Tower (Primary): 119.200

KNEL/KWRI/ZNY (Archives)
Lakehurst, New Jersey, United States

Feed Status: UP
Listen in your browser - HTML5 player(in browser, HTML5)
Click here to listen with your own player(launches your MP3 player)

KBLM 241756Z AUTO 29014G21KT 10SM CLR M01/M13 A3015 RMK AO2 SLP211 T10061133 11006 21056 58028 FZRANO

KBLM Airport Info (Airnav.com)

KBLM Flight Activity (Flightaware)

Listeners: 1 out of 1506 total

Emergency/Guard: 121.500
Lakehurst Ground: 307.050
Lakehurst Ground: 118.375
Lakehurst Tower: 340.200
Lakehurst Tower: 360.200
Lakehurst Tower: 127.775
McGuire Approach: 126.475
McGuire Approach: 124.150
McGuire Arrival: 120.250
McGuire Tower: 257.800
McGuire Tower: 255.600
McGuire Tower: 118.650
NEL Army Ops: 255.700
New York Center (DIXIE Sector Low): 118.975
New York Center (DIXIE Sector Low): 307.800
New York Center (Kennedy Sector High): 282.300
New York Center (Kennedy Sector High): 125.325
WRI 108 ANG Command Post: 251.200
WRI 108 ANG Command Post: 321.000
WRI Army Ops: 139.300
WRI Army Ops: 265.600
WRI Army Ops: 41.350
WRI Army Ops Command Post: 319.400
WRI Army Ops Command Post (backup): 349.400
WRI Pilot to Dispatch: 134.100
WRI Pilot to Dispatch: 372.200
WRI USMC HMH 772 Ops: 283.000
WRI USMC HMLA 773 Ops: 264.200

KNEW Del/Gnd
New Orleans, Louisiana, United States

Feed Status: DOWN
Offline since: 2020-10-28 22:22:22 UTC

KNEW 241753Z 15007KT 10SM BKN006 OVC010 22/19 A3007 RMK AO2 CIG 004V009 SLP176 T02220189 10222 20156 58012

KNEW Airport Info (Airnav.com)

Lakefront Clearance Delivery: 127.400
Lakefront Ground: 121.700

KNEW Tower
New Orleans, Louisiana, United States

Feed Status: DOWN
Offline since: 2020-10-28 22:22:22 UTC

KNEW 241753Z 15007KT 10SM BKN006 OVC010 22/19 A3007 RMK AO2 CIG 004V009 SLP176 T02220189 10222 20156 58012

KNEW Airport Info (Airnav.com)

Lakefront Tower: 119.900

KNGU Del/Gnd/Twr (Archives)
Norfolk, Virginia, United States

Feed Status: UP
Listen in your browser - HTML5 player(in browser, HTML5)
Click here to listen with your own player(launches your MP3 player)

KNGU 241659Z 33004KT 10SM FEW160 BKN300 02/M09 A3031 RMK AO2 SLP264 T00171089 $

KNGU Airport Info (Airnav.com)

KNGU Flight Activity (Flightaware)

Listeners: 0 out of 1506 total

AMC/ATOC: 349.500
AMC/ATOC: 130.650
Chambers Clearance Delivery: 339.800
Chambers Clearance Delivery: 120.700
Chambers Ground: 370.850
Chambers Ground: 121.800
Chambers Ground (Helicopters): 298.950
Chambers Tower: 257.975
Chambers Tower: 126.375
Chambers Tower (Helicopters): 279.600
Metro: 271.600
Norfolk Approach/Departure: 335.625
Norfolk Departure: 363.125
Radar: 279.525
Radar: 335.800
Radar: 322.525

KNKX Del/Gnd/Twr (Archives)
San Diego, California, United States

Feed Status: UP
Listen in your browser - HTML5 player(in browser, HTML5)
Click here to listen with your own player(launches your MP3 player)

KNKX 241655Z 13003KT 10SM FEW042 OVC060 09/08 A2995 RMK AO2 SLP139 T00940078 $

KNKX Airport Info (Airnav.com)

KNKX Flight Activity (Flightaware)

Listeners: 0 out of 1506 total

Miramar Clearance Delivery: 125.975
Miramar Clearance Delivery: 254.325
Miramar Ground: 128.625
Miramar Ground: 307.325
Miramar Tower: 135.200
Miramar Tower: 298.925
Miramar Tower: 340.200

KNTU Giant Killer (Archives)
Virginia Beach, Virginia, United States

Feed Status: UP
Listen in your browser - HTML5 player(in browser, HTML5)
Click here to listen with your own player(launches your MP3 player)

KORF 241751Z AUTO 01005KT 10SM CLR 03/M07 A3028 RMK AO2 SLP251 T00331072 10033 20000 56022

KORF Airport Info (Airnav.com)

KORF Flight Activity (Flightaware)

Listeners: 0 out of 1506 total

Giant Killer: 118.125
Giant Killer: 125.375
Giant Killer: 233.700
Giant Killer: 271.500
Giant Killer: 127.650
Giant Killer: 238.100
Giant Killer: 350.000
Giant Killer W-107: 255.000

KNTU Gnd/Twr/App/Radar (Archives)
Virginia Beach, Virginia, United States

Feed Status: UP
Listen in your browser - HTML5 player(in browser, HTML5)
Click here to listen with your own player(launches your MP3 player)

KNTU 241756Z 32009KT 10SM BKN250 04/M08 A3027 RMK AO2 SLP253 T00391083 10044 21006 56021

KNTU Airport Info (Airnav.com)

KNTU Flight Activity (Flightaware)

Listeners: 1 out of 1506 total

Base Ops: 289.400
Emergency/Guard: 121.500
Emergency/Guard: 243.000
Oceana Approach: 123.900
Oceana Approach: 266.800
Oceana Clearance Delivery: 254.400
Oceana Departure: 119.600
Oceana Departure: 288.300
Oceana Ground: 336.400
Oceana Metro: 387.400
Oceana Radar: 363.600
Oceana Radar: 134.100
Oceana Radar: 310.800
Oceana Radar: 322.000
Oceana Radar: 325.200
Oceana Radar: 346.000
Oceana Tower: 127.075
Oceana Tower: 360.200
PMSV Metro: 287.400
SFA: 328.400
SFA: 346.400
SFA: 348.750
SFA: 352.100
SFA: 363.100

KNUQ Gnd/Twr (Archives)
Mountain View, California, United States

Feed Status: UP
Listen in your browser - HTML5 player(in browser, HTML5)
Click here to listen with your own player(launches your MP3 player)

KNUQ 241750Z AUTO 00000KT 9SM BKN024 OVC029 08/05 A2998 RMK AO2

KNUQ Airport Info (Airnav.com)

KNUQ Flight Activity (Flightaware)

Listeners: 0 out of 1506 total

Golden Gate Traffic: 124.300
Moffett Ground: 121.850
Moffett Ground: 336.400
Moffett Tower: 119.550
Moffett Tower: 346.250
Stanford University Hospital Heliport: 130.050

KOAJ Gnd/Twr (Archives)
Jacksonville, North Carolina, United States

Feed Status: UP
Listen in your browser - HTML5 player(in browser, HTML5)
Click here to listen with your own player(launches your MP3 player)

KOAJ 241756Z 25004KT 10SM CLR 07/M10 A3029 RMK AO2 SLP261 T00721100 10072 21044 56028 $

KOAJ Airport Info (Airnav.com)

KOAJ Flight Activity (Flightaware)

Listeners: 0 out of 1506 total

Ellis Ground: 125.400
Ellis Tower: 132.650

KOCF Gnd/Twr/App (Archives)
Ocala, Florida, United States

Feed Status: UP
Listen in your browser - HTML5 player(in browser, HTML5)
Click here to listen with your own player(launches your MP3 player)

KOCF 241751Z 09006KT 10SM FEW015 22/17 A3015 RMK AO2 SLP210 T02170172 10222 20150 58019 $

KOCF Airport Info (Airnav.com)

KOCF Flight Activity (Flightaware)

Listeners: 1 out of 1506 total

Jacksonville Approach (OCF RCO): 118.600
Ocala Ground: 121.400
Ocala Tower: 119.250
UNICOM: 123.000

KOFP CTAF (Archives)
Richmond/Ashland, Virginia, United States

Feed Status: UP
Listen in your browser - HTML5 player(in browser, HTML5)
Click here to listen with your own player(launches your MP3 player)

KOFP 241754Z AUTO VRB04KT 10SM CLR 04/M11 A3028 RMK AO2 SLP255 T00391111 10044 21072 58026

KOFP Airport Info (Airnav.com)

KOFP Flight Activity (Flightaware)

Listeners: 0 out of 1506 total

Hanover County CTAF: 122.700

KOGB CTAF (Archives)
Orangeburg, South Carolina, United States

Feed Status: UP
Listen in your browser - HTML5 player(in browser, HTML5)
Click here to listen with your own player(launches your MP3 player)

KOGB 241753Z AUTO VRB04KT 10SM OVC049 13/M01 A3024 RMK AO2 SLP240 T01331011 10133 20033 58022

KOGB Airport Info (Airnav.com)

KOGB Flight Activity (Flightaware)

Listeners: 0 out of 1506 total

Orangeburg CTAF: 122.700

KOGD Ogden Ground/Tower (Archives)
Ogden, Utah, United States

Feed Status: UP
Listen in your browser - HTML5 player(in browser, HTML5)
Click here to listen with your own player(launches your MP3 player)

KOGD 241753Z 00000KT 5SM -SN OVC009 M01/M04 A2983 RMK AO2 SNB33 CIG 007V011 SLP108 P0000 60000 I6000 T10061039 11006 21044 50002 $

KOGD Airport Info (Airnav.com)

KOGD Flight Activity (Flightaware)

Listeners: 1 out of 1506 total

Ogden Ground: 121.700
Ogden Tower: 118.700

KOJC App/Dep (Archives)
Olathe, Kansas, United States

Feed Status: UP
Listen in your browser - HTML5 player(in browser, HTML5)
Click here to listen with your own player(launches your MP3 player)

KOJC 241753Z 01008KT 2 1/2SM BR OVC004 03/03 A3003 RMK AO2 SLP175 60002 T00330033 10033 20017 50004 $